GFSNGP_850_rhum_000.txt.gz
RH
94 94 99 88 80 78 94 74 76 59 68 56 48 40 46 48 53 57 60 60 57 58 60 60 60 62 62 60 57 53 51 49 51 55 57 65 66 61 49 28 17 22 30 31
99 85 87 94 85 81 82 88 88 85 90 38 39 40 51 52 56 58 58 58 57 58 61 63 64 64 64 62 60 58 55 51 53 56 65 66 61 52 33 20 20 30 34 34
100 88 84 95 79 84 92 89 88 97 66 46 44 44 55 57 53 53 55 56 56 56 59 63 65 64 63 64 63 60 55 53 56 65 66 59 53 38 21 19 28 36 38 37
100 94 84 47 57 72 84 78 82 48 47 49 57 70 57 53 52 52 54 57 58 58 61 64 65 65 65 64 62 59 56 56 67 67 59 55 42 23 19 23 36 39 40 39
90 86 60 43 43 61 62 62 48 49 64 66 59 50 67 54 50 50 52 53 53 57 62 65 66 65 64 63 63 61 58 70 69 64 58 48 26 19 20 33 37 41 41 37
91 83 68 45 41 38 38 61 43 56 60 63 56 59 75 71 56 54 53 56 58 63 65 64 64 64 65 65 62 62 73 72 68 62 55 31 21 17 30 37 41 43 40 31
89 95 78 54 42 41 54 55 44 50 51 58 56 58 68 68 62 60 60 61 63 64 64 65 66 67 67 66 67 74 76 71 65 57 32 24 16 24 34 41 45 42 32 25
81 93 92 49 38 38 46 50 56 56 58 65 72 71 72 66 64 63 62 64 65 65 66 66 68 70 68 68 76 79 75 68 58 35 27 17 18 29 40 46 43 33 24 21
83 79 58 50 47 51 43 52 59 54 53 50 68 70 68 68 65 59 51 51 56 50 57 64 65 66 68 76 82 78 70 64 42 30 19 17 29 40 46 44 34 25 30 45
66 57 54 52 51 49 46 47 51 50 52 53 61 60 52 46 44 41 43 45 48 48 53 59 64 68 78 84 82 71 65 46 33 21 16 28 41 47 44 35 27 31 49 63
66 58 55 53 52 49 48 49 51 54 54 56 51 45 38 40 42 43 46 50 53 55 60 65 71 78 84 82 71 64 47 35 23 19 27 39 47 45 37 28 32 62 70 83
76 54 51 52 51 51 48 52 52 52 55 48 37 35 38 43 45 47 52 57 61 65 68 72 78 84 81 71 62 46 35 25 23 30 43 49 44 35 27 27 28 35 40 73
52 45 48 47 54 52 50 53 52 48 42 41 43 38 42 47 51 51 54 57 62 66 72 75 80 80 70 62 42 34 27 27 34 46 50 43 37 32 30 23 28 31 37 47
45 47 65 60 61 56 51 53 49 46 46 44 44 45 38 36 44 48 52 60 68 72 77 80 78 69 57 40 34 29 30 37 48 52 43 37 33 32 34 40 41 37 43 54
52 46 46 56 58 57 53 52 50 52 49 45 37 30 29 30 39 47 54 63 72 76 78 76 69 53 38 34 31 32 39 49 54 44 37 32 32 30 34 38 40 46 52 53
56 54 59 58 61 60 55 50 42 41 37 34 31 29 32 34 41 49 58 64 66 70 71 71 46 36 34 33 34 40 49 56 46 36 27 28 30 32 35 39 46 53 54 63
64 75 68 66 60 58 49 41 35 34 34 31 29 33 38 42 48 57 66 71 73 74 65 36 35 34 34 36 42 49 57 47 37 25 29 32 33 34 41 48 55 57 58 66
46 47 54 52 56 51 44 38 36 33 27 27 35 39 42 46 50 62 69 72 70 59 37 38 37 37 39 43 50 58 47 37 24 25 27 29 32 39 46 53 56 61 63 68
52 52 57 56 53 46 39 37 32 26 30 33 38 47 55 57 60 64 66 66 54 42 40 40 40 42 46 54 60 46 36 24 23 25 29 33 37 42 50 57 62 67 74 80
58 58 58 55 48 41 36 31 27 32 37 42 49 52 57 60 60 59 63 55 47 43 44 44 44 50 60 60 44 33 25 24 26 29 32 37 42 48 56 61 68 75 82 83
61 62 58 52 43 37 29 26 29 36 46 48 46 49 50 56 62 61 57 50 46 46 47 50 58 64 48 41 28 26 25 26 29 32 34 39 45 52 61 67 74 80 83 81
63 60 52 44 36 32 33 36 37 41 47 50 50 48 51 55 56 53 48 46 47 50 59 66 56 42 34 24 25 25 27 28 29 31 35 45 54 62 67 74 79 80 82 80
59 51 43 34 31 37 46 44 43 42 45 48 49 52 54 53 49 47 49 54 62 68 57 43 37 26 24 25 26 27 27 28 31 38 48 56 64 72 77 80 82 83 79 77
50 41 35 38 39 42 45 52 51 52 50 53 54 52 49 49 52 58 67 69 55 44 39 26 24 24 25 26 27 27 28 34 42 51 58 66 75 79 81 81 79 79 80 81
40 37 39 39 37 44 48 55 55 55 54 53 52 55 60 66 69 69 52 46 40 29 24 24 25 26 26 25 26 28 36 49 57 62 67 73 76 78 79 81 83 82 82 86
39 40 41 40 41 48 52 56 52 55 55 57 63 68 72 66 52 47 42 32 24 24 24 26 26 25 24 24 29 42 55 62 65 70 74 77 78 81 81 77 75 78 81 81
44 44 50 54 57 58 59 57 55 60 64 66 68 70 57 49 46 37 27 23 24 25 26 26 24 22 23 33 48 58 64 69 74 77 77 79 80 65 57 64 74 83 84 82

GFSNGP_850_rhum_003.txt.gz
RH
93 85 97 95 81 76 74 62 66 54 68 60 51 46 45 54 65 68 70 68 61 58 57 55 54 54 53 52 51 49 47 47 48 51 53 55 62 64 59 50 34 23 29 33
100 96 96 94 92 85 64 64 60 73 68 52 46 49 51 55 63 67 69 67 63 61 59 57 57 58 58 58 56 54 50 48 49 52 55 62 64 60 54 38 23 28 34 36
95 93 96 100 86 84 70 66 70 93 68 51 57 45 53 58 58 59 62 61 58 57 58 58 60 61 62 63 60 56 53 51 51 55 62 65 61 56 41 24 24 29 33 36
100 99 98 74 65 62 68 75 75 79 78 66 54 61 64 59 55 57 58 58 58 57 60 64 65 66 66 64 62 60 56 52 54 63 67 64 58 41 27 23 25 28 32 38
100 93 67 77 90 88 94 88 76 82 75 64 58 60 68 58 54 52 54 56 55 55 59 66 67 67 66 65 64 60 55 56 65 70 68 58 42 31 23 20 23 27 38 42
85 94 66 48 66 54 72 77 67 74 76 69 65 63 76 65 57 54 56 57 57 60 65 66 67 67 66 64 61 58 58 70 74 70 59 51 35 25 18 19 25 40 44 34
88 90 79 55 45 46 82 62 54 62 59 58 60 70 68 67 64 61 60 62 63 65 66 67 66 65 64 64 61 63 74 75 71 64 56 37 29 18 14 23 39 44 35 24
88 91 85 53 43 50 50 58 49 54 60 68 75 76 70 67 66 66 65 67 67 66 65 65 65 66 66 65 68 76 77 73 67 55 41 32 19 12 28 43 45 33 24 19
73 76 60 52 52 53 50 58 62 55 55 51 69 68 67 67 65 64 64 64 64 62 65 66 66 67 68 70 78 80 76 69 60 46 35 19 14 28 42 44 32 26 25 26
69 60 58 53 56 49 48 50 58 55 50 49 61 67 66 65 64 63 62 58 59 54 55 59 63 66 71 79 82 76 70 66 49 35 20 20 34 46 43 33 27 24 28 36
72 60 57 54 55 49 51 51 55 58 56 58 61 66 60 54 45 40 40 43 44 44 50 56 62 69 80 84 78 71 66 51 35 22 25 40 49 43 34 28 27 37 44 59
80 58 52 54 53 51 50 54 55 54 65 63 54 43 36 37 37 38 42 47 51 54 58 63 71 78 82 78 68 64 49 33 26 32 47 51 41 31 27 23 22 27 31 42
60 52 51 52 56 53 52 56 57 53 52 44 37 31 32 38 43 46 47 50 55 60 68 72 77 81 77 68 60 43 31 29 38 51 52 41 32 26 19 14 18 23 30 38
52 49 63 62 59 56 52 58 56 48 40 34 34 38 38 41 48 48 52 57 63 68 73 76 79 78 66 52 40 32 32 40 51 54 42 32 26 24 23 26 29 28 33 42
56 52 48 56 59 58 56 55 48 42 41 42 43 38 38 36 42 48 52 60 68 72 75 77 74 65 47 38 34 34 41 50 55 45 33 24 22 22 24 29 34 39 44 46
59 54 59 56 61 61 56 49 42 46 44 40 35 34 36 36 40 50 61 66 64 71 73 70 65 41 37 35 35 41 50 57 49 34 22 20 22 25 29 33 40 46 50 58
62 77 71 68 62 61 55 47 40 39 34 30 31 32 36 40 48 56 63 70 69 68 67 59 34 36 36 37 42 49 58 52 36 22 20 23 26 28 34 41 46 51 55 60
50 48 55 52 56 56 52 43 35 31 30 30 30 35 38 41 43 55 60 64 68 66 42 34 38 38 39 43 49 57 55 36 23 22 24 26 28 33 38 43 48 54 58 61
53 50 54 56 55 52 44 36 33 32 31 29 33 38 43 50 52 56 63 66 63 45 38 41 41 42 44 50 59 53 36 23 23 24 26 28 30 33 39 46 54 59 65 72
55 55 55 57 54 45 37 35 33 30 32 35 39 44 51 55 59 62 64 59 46 44 44 45 44 47 55 61 45 34 24 24 24 25 27 30 34 38 45 53 60 65 72 77
56 58 58 56 47 39 36 33 26 30 37 39 38 42 48 57 61 60 56 51 49 48 47 47 52 61 57 37 28 25 24 25 26 27 31 36 42 46 52 60 66 73 79 79
60 60 57 49 40 38 33 28 29 32 40 46 50 50 53 58 60 57 53 50 48 48 52 61 59 40 34 25 25 25 26 26 28 32 38 44 50 56 64 70 76 79 79 80
63 59 51 43 38 34 36 36 36 37 42 48 49 50 52 51 53 51 47 49 53 62 61 43 37 27 23 25 26 26 26 28 33 41 48 54 60 69 75 79 81 82 80 80
62 54 46 40 33 32 38 47 46 50 50 52 52 51 48 47 49 50 56 63 63 45 39 29 23 24 25 26 25 26 29 34 45 52 57 65 72 76 79 78 77 78 76 78
57 49 39 34 33 38 40 49 51 53 52 52 51 50 50 54 60 64 63 47 41 32 23 23 24 26 25 24 24 28 38 50 55 59 65 70 72 75 77 70 59 63 72 80
49 40 37 35 32 38 42 48 46 49 48 48 51 57 64 69 61 48 43 36 26 22 24 26 25 24 22 23 29 41 52 56 61 65 69 71 75 77 60 53 57 72 81 81
41 38 39 42 43 43 44 47 44 47 51 54 58 69 64 50 46 41 32 23 23 26 26 25 22 20 22 29 40 51 56 62 69 69 69 74 78 70 59 60 62 70 79 80

GFSNGP_850_rhum_006.txt.gz
RH
93 80 99 100 97 89 95 78 77 55 51 50 51 62 60 53 73 87 89 81 76 70 66 63 60 58 56 54 52 50 48 46 46 47 49 51 53 57 62 62 54 40 29 28
98 98 97 100 96 96 95 75 67 59 58 48 60 54 56 56 73 84 84 81 74 67 62 60 58 57 54 51 49 47 46 45 46 48 50 52 56 61 61 54 42 30 27 26
94 96 97 99 91 81 78 81 63 74 58 46 62 62 56 58 69 74 79 78 69 64 60 59 56 53 53 52 51 50 48 48 48 49 51 56 61 61 55 44 33 27 24 24
97 100 98 81 76 70 72 70 64 54 69 64 70 59 63 69 64 68 72 74 68 61 60 59 58 58 57 57 56 55 50 49 49 51 56 62 60 55 48 38 28 21 18 24
100 99 82 82 84 77 80 77 60 60 56 63 66 61 68 64 60 60 62 66 64 64 62 62 61 61 62 62 58 54 52 51 52 58 63 62 57 52 43 31 20 14 22 37
92 99 77 58 85 82 75 93 68 67 66 75 61 72 71 67 62 64 64 62 63 67 66 64 65 66 66 63 59 56 53 55 61 66 63 61 57 45 32 20 13 21 37 38
88 85 81 59 58 71 90 65 61 66 66 73 71 73 68 60 70 64 64 64 65 68 68 68 68 67 65 62 58 56 58 65 68 67 65 60 46 34 20 12 24 41 37 25
89 93 74 56 61 72 59 53 57 68 69 69 64 73 66 70 70 69 67 68 69 70 71 70 68 66 63 61 59 61 68 70 71 69 61 48 36 19 16 34 43 35 23 16
80 73 58 55 56 54 54 57 58 58 61 58 57 70 70 76 76 74 71 72 73 70 69 66 64 64 64 62 66 72 74 74 69 63 50 37 20 24 41 44 32 22 18 20
72 59 64 55 58 54 55 59 60 55 54 48 60 70 73 73 72 71 71 70 68 66 64 65 64 64 66 70 75 77 75 71 64 51 34 22 32 45 44 31 21 20 27 32
75 67 58 54 56 54 56 62 62 61 58 58 63 69 66 67 66 66 65 65 65 64 63 61 64 67 74 79 80 76 70 64 49 30 26 38 48 44 31 23 24 33 32 38
80 62 57 56 55 55 56 60 60 57 68 68 63 62 63 64 62 59 56 57 56 55 54 59 65 72 79 81 75 68 63 45 29 31 42 50 46 31 24 20 20 25 29 41
64 54 54 57 57 57 53 58 60 59 60 62 63 54 40 38 44 47 48 50 50 53 57 62 71 78 80 74 65 58 39 30 33 43 51 47 32 22 17 16 21 25 32 37
57 52 62 62 58 57 53 57 59 60 60 53 39 36 32 37 46 47 49 54 59 63 67 71 76 79 75 64 51 36 31 34 44 53 49 34 23 23 24 26 27 24 26 35
56 54 53 53 59 60 58 58 57 52 42 36 36 36 39 43 49 53 56 60 64 67 70 74 76 72 63 45 35 32 36 44 53 52 37 23 23 25 26 28 31 35 37 39
62 57 59 58 63 64 59 55 44 41 39 40 44 48 47 46 49 52 57 60 58 64 69 73 68 63 39 35 34 36 44 53 55 40 24 22 24 26 27 31 36 39 41 48
63 77 72 73 65 64 57 47 38 37 41 44 45 44 42 41 46 53 62 68 68 67 68 64 58 35 36 36 37 44 52 57 41 26 22 23 25 27 32 36 40 42 47 54
52 48 52 52 59 59 54 44 40 41 41 38 36 33 33 35 37 50 56 59 63 63 63 45 34 38 38 39 44 54 59 40 27 23 23 25 27 31 35 38 42 50 55 58
52 49 52 55 56 54 48 44 41 37 34 31 27 31 35 39 44 50 54 59 62 58 38 37 40 40 42 47 57 57 37 26 23 23 25 26 28 32 37 44 52 59 65 68
54 56 56 58 58 52 46 44 36 33 31 27 30 34 41 48 50 53 59 61 55 41 42 43 44 46 51 61 50 35 24 23 24 25 25 28 33 38 48 56 63 68 72 73
57 58 60 60 58 51 42 35 33 30 29 32 30 36 43 51 57 56 55 51 46 46 46 47 50 58 62 39 29 23 23 24 23 24 29 35 44 52 58 65 71 75 74 72
61 61 62 60 54 44 37 36 31 26 31 37 43 44 47 52 56 57 53 51 50 48 49 56 63 48 34 23 23 24 24 21 24 30 40 52 59 64 69 74 75 73 72 72
63 64 62 56 44 39 40 34 29 29 34 41 43 46 48 49 53 50 48 49 50 54 63 54 38 26 23 23 24 22 20 22 32 48 57 63 67 72 75 76 73 66 58 65
65 64 57 48 42 38 34 40 38 42 41 46 49 50 48 49 51 49 51 53 62 59 42 32 23 22 24 24 20 18 24 38 51 57 62 67 72 73 74 72 54 51 61 76
64 59 49 43 37 33 33 42 46 50 50 50 52 54 52 50 51 55 62 60 45 36 26 22 23 24 22 18 18 26 39 52 57 60 65 68 69 71 72 62 57 59 68 81
61 51 45 39 33 32 35 44 42 48 47 48 50 49 51 59 64 61 47 41 31 23 23 25 24 20 17 20 27 40 52 57 59 62 66 67 69 73 71 70 68 65 66 79
57 48 42 39 38 37 36 42 40 44 48 46 47 58 66 60 50 44 38 28 23 25 26 24 20 18 20 28 41 52 57 60 65 66 64 66 73 74 73 71 71 68 70 83

GFSNGP_850_rhum_009.txt.gz
RH
90 77 91 100 97 95 98 82 82 56 56 46 40 46 58 60 60 72 86 91 90 90 92 96 99 99 98 92 80 68 59 55 51 47 45 46 48 50 54 58 59 56 49 40
96 92 97 98 98 96 90 81 74 64 65 44 41 46 68 82 68 71 93 91 89 89 89 86 85 83 79 73 66 62 56 50 47 46 47 48 50 53 57 59 57 50 43 31
91 74 100 99 94 95 91 82 80 86 64 52 56 78 84 74 68 75 93 88 84 86 82 79 76 71 67 62 56 51 48 46 46 46 48 50 53 57 59 57 53 45 31 21
97 98 98 95 77 73 78 67 70 66 56 52 64 71 74 71 68 75 84 84 79 74 68 63 60 57 55 52 48 46 46 46 46 47 50 53 57 59 60 57 45 31 20 16
100 100 92 62 71 81 81 78 61 71 64 53 67 68 62 70 70 72 76 78 73 67 63 61 58 54 51 50 49 47 47 47 48 50 54 59 62 64 58 44 34 18 17 35
100 98 96 56 78 65 70 81 62 59 62 62 69 79 72 69 74 71 73 71 69 68 65 60 57 55 55 53 50 48 49 50 52 56 61 67 67 58 47 36 16 22 39 36
97 96 80 63 61 74 80 70 66 68 61 76 76 73 65 77 78 72 74 74 72 68 64 62 60 59 58 54 52 53 53 55 60 66 70 68 59 49 32 17 31 41 34 20
88 94 79 59 75 82 63 57 61 75 71 74 71 69 77 84 79 79 80 81 76 71 67 64 62 61 59 57 56 56 58 64 71 73 68 60 48 26 22 39 42 30 18 13
82 73 58 56 58 52 60 63 62 67 72 68 69 78 81 82 81 79 77 80 77 71 67 62 60 63 62 59 58 62 69 75 74 68 60 43 24 30 45 42 28 17 16 16
73 61 68 61 56 59 59 63 64 61 71 61 64 75 78 80 80 79 80 77 72 69 65 62 61 62 63 62 67 73 76 73 67 58 39 25 36 47 41 27 18 16 18 20
79 70 64 56 56 57 62 67 64 64 60 58 62 71 72 75 76 76 74 70 68 67 64 63 63 64 67 71 75 76 72 66 55 34 28 40 49 42 28 20 19 21 24 30
77 62 61 58 59 59 60 66 63 57 65 65 62 68 71 73 72 70 67 66 65 65 64 63 66 69 74 78 75 71 64 50 32 32 44 51 45 30 20 18 20 23 26 32
66 57 55 57 60 60 58 65 64 61 64 66 67 63 65 66 65 65 64 62 57 54 54 62 67 73 77 74 67 61 44 31 35 45 52 47 33 18 16 18 21 24 26 26
59 56 61 62 60 60 59 64 65 65 64 64 66 62 52 52 55 50 50 50 51 54 59 67 74 77 73 66 56 38 32 36 44 52 50 35 20 20 23 25 24 19 18 26
59 56 55 56 60 63 63 66 66 67 66 60 48 36 37 41 45 48 52 55 59 63 67 73 76 73 62 49 36 33 36 43 51 52 36 22 21 24 26 26 25 24 26 30
60 61 58 60 63 65 65 66 61 57 42 37 38 40 41 43 47 51 55 57 55 65 70 74 72 61 43 36 35 36 42 49 54 36 23 22 24 25 25 24 25 28 35 46
66 74 73 73 66 63 60 58 47 38 38 38 42 44 44 45 48 54 62 67 68 69 70 66 60 39 36 36 37 42 50 56 36 23 22 24 25 25 25 27 32 38 46 53
57 54 54 52 60 62 60 50 39 38 38 40 42 41 40 41 44 58 63 66 68 65 62 58 36 35 38 39 44 54 54 33 23 22 24 25 24 25 29 35 44 51 55 57
57 53 54 57 59 58 53 44 40 41 42 39 37 38 41 46 50 56 60 62 61 58 48 35 38 40 41 46 57 47 31 22 23 25 24 21 23 30 40 49 55 61 64 66
58 57 57 60 62 57 48 43 44 44 39 34 34 40 46 50 52 52 58 59 56 42 39 42 43 44 50 59 39 27 22 24 25 21 19 23 35 45 52 59 65 67 68 71
58 58 59 62 62 55 46 45 40 35 33 31 29 34 40 47 51 51 54 50 44 43 45 45 47 56 57 35 23 22 24 23 19 18 27 41 48 54 59 64 67 71 70 63
60 60 63 63 59 53 49 41 34 29 27 32 36 38 40 48 54 56 53 47 46 47 47 51 60 44 30 21 23 24 21 17 19 30 42 50 56 62 64 68 72 68 55 57
60 61 63 62 56 50 42 37 32 25 29 34 37 39 42 45 50 47 44 47 48 49 59 54 38 24 22 24 24 18 15 20 31 42 50 57 64 66 68 74 70 59 58 64
64 66 65 61 52 41 39 37 32 35 36 42 44 45 42 43 48 47 46 48 55 60 43 33 22 23 24 22 16 14 20 31 43 49 56 63 67 70 73 75 69 66 62 63
67 67 64 54 43 40 34 32 40 46 48 50 52 53 52 49 45 46 55 60 50 39 28 22 24 25 21 15 15 21 33 44 50 53 59 65 67 68 74 74 70 66 63 64
70 67 58 48 40 36 32 37 40 48 47 48 52 51 48 49 54 59 54 43 34 25 24 26 24 20 16 17 23 35 45 50 54 60 63 66 68 70 73 72 67 66 65 68
70 62 54 47 40 35 33 38 37 43 45 43 42 48 52 61 59 47 40 32 25 25 26 24 20 17 19 25 36 46 52 58 64 65 64 67 70 74 74 71 68 65 64 70

GFSNGP_850_rhum_012.txt.gz
RH
77 66 77 89 85 93 99 79 80 55 47 38 33 32 31 35 45 62 57 64 81 86 87 93 94 100 100 100 100 99 88 74 58 47 48 46 43 44 46 50 54 56 56 53
96 79 78 97 88 94 97 94 69 60 60 42 42 50 56 62 78 70 64 66 84 86 86 89 100 100 100 100 98 82 66 53 50 49 46 44 44 47 50 54 56 56 53 44
88 63 72 96 96 96 95 92 75 82 59 47 78 83 86 88 78 71 68 82 85 83 83 96 100 100 99 92 81 63 56 52 50 46 44 45 47 50 54 57 57 54 43 31
97 90 96 84 78 82 83 79 71 62 54 52 60 73 80 76 72 72 84 88 84 82 85 90 94 92 88 76 61 57 52 48 45 44 46 48 51 54 58 58 55 41 30 17
99 98 69 68 75 86 78 64 52 60 55 51 58 66 58 77 78 79 85 84 82 86 82 81 79 74 66 60 55 49 46 45 45 46 48 52 56 60 61 54 40 26 18 33
100 98 91 66 54 63 59 65 52 57 54 56 62 65 64 82 91 91 87 81 82 77 72 69 64 60 55 50 46 45 45 46 47 49 54 59 64 63 51 40 22 24 38 34
96 93 64 53 54 73 65 56 54 64 54 53 60 62 80 83 82 88 84 79 71 64 60 57 54 50 48 45 45 46 47 49 52 56 62 66 61 50 37 21 34 40 31 18
78 76 78 52 60 57 53 56 59 68 74 70 70 76 82 83 89 90 84 78 70 64 59 54 51 49 49 49 49 50 52 55 61 66 66 59 49 30 26 41 41 29 16 15
60 54 47 54 54 56 64 64 64 69 73 70 70 76 80 84 87 87 82 78 71 64 59 54 52 53 56 53 53 55 60 66 70 66 58 44 26 34 44 40 27 16 15 18
65 49 54 54 59 60 62 73 69 70 74 71 69 77 80 83 84 84 82 76 69 63 60 56 54 55 59 57 58 65 71 70 64 55 39 27 38 46 41 27 17 17 26 30
62 53 51 57 61 61 60 68 72 77 68 63 69 76 78 80 80 81 78 72 66 63 60 58 58 59 60 64 69 72 70 63 54 34 30 42 48 43 30 18 17 19 23 25
48 53 52 53 62 61 64 68 71 65 69 72 71 75 76 77 78 76 71 67 64 63 62 60 61 64 68 71 71 70 62 50 31 34 43 48 45 32 19 18 19 21 21 22
48 56 56 58 62 60 62 66 70 65 68 72 74 73 73 74 72 69 67 65 63 63 64 65 68 71 72 70 66 59 42 31 35 42 48 47 34 20 18 20 20 20 18 21
59 60 61 61 63 63 60 66 68 68 70 70 74 73 70 69 66 66 64 64 61 60 64 69 72 73 70 64 55 37 32 35 41 48 48 34 21 20 20 20 19 16 24 26
60 61 57 57 62 64 65 66 67 67 67 68 67 66 64 63 62 59 56 55 57 62 68 72 73 69 61 50 35 32 35 41 49 50 33 22 20 21 22 21 22 26 26 30
66 64 60 63 64 65 67 69 64 66 64 62 58 55 52 48 49 51 55 57 57 64 69 72 70 59 45 34 34 36 42 51 52 33 22 21 22 22 19 21 25 36 46 56
68 74 71 72 67 66 66 66 64 63 54 46 42 44 46 47 51 56 60 63 64 66 70 67 57 40 34 36 38 43 53 52 31 22 21 22 20 18 22 28 38 45 51 56
65 62 60 56 63 64 67 67 60 46 39 41 41 43 44 46 48 57 61 65 66 65 63 58 37 36 38 40 44 54 47 29 21 22 23 17 18 23 31 42 50 55 59 59
63 59 60 59 60 61 64 62 45 38 39 41 41 42 42 44 49 54 58 63 62 57 53 36 37 40 42 46 55 40 27 21 23 22 15 16 24 38 46 52 58 63 67 68
60 57 60 61 62 58 59 49 40 40 42 41 40 40 44 48 50 53 59 60 58 47 36 40 42 44 50 55 35 24 22 24 20 14 16 28 39 46 52 57 61 65 68 58
58 57 60 63 64 61 52 40 39 42 42 39 31 35 40 48 52 51 56 53 45 40 43 44 47 54 52 33 21 22 24 19 14 17 28 39 46 52 56 60 63 67 58 53
60 59 62 65 63 57 47 44 45 39 36 36 36 38 42 49 52 55 53 42 42 45 46 49 56 43 29 21 24 24 18 14 18 29 40 47 52 56 59 62 67 66 59 60
65 65 66 66 60 52 50 50 41 34 30 34 34 38 40 43 49 48 42 46 46 47 52 55 38 25 22 24 23 17 14 19 30 40 46 51 56 60 62 64 69 69 66 65
66 68 69 66 58 52 51 45 38 34 33 36 38 40 39 43 49 47 45 46 48 55 47 35 23 23 25 22 16 15 20 31 40 46 51 56 61 62 63 67 71 70 66 66
68 68 70 64 58 52 41 38 36 38 39 44 46 48 48 47 40 42 47 52 55 42 32 24 25 25 21 16 16 23 32 39 46 52 56 59 62 63 66 71 72 71 66 66
72 71 71 64 54 43 39 38 34 39 43 47 51 53 50 47 45 50 55 48 38 28 24 26 25 21 17 18 24 34 42 46 52 57 60 63 65 67 70 72 71 72 68 63
76 72 69 61 48 42 36 36 32 41 45 44 45 50 48 50 56 53 43 36 27 26 27 25 21 18 19 25 36 45 49 53 59 61 64 67 70 72 72 71 72 72 64 60

GFSNGP_850_rhum_015.txt.gz
RH
65 59 66 74 72 71 98 94 97 65 56 42 38 40 51 45 40 34 41 57 56 72 72 75 83 86 88 90 88 98 100 100 97 90 70 53 44 42 42 43 46 51 55 58
93 68 68 82 64 72 95 94 95 94 93 59 46 58 54 62 64 74 69 67 61 75 75 87 85 81 83 89 93 97 99 92 67 58 48 44 43 43 44 46 51 55 58 59
80 55 61 84 95 96 95 88 93 97 80 55 60 73 79 80 79 87 80 70 71 77 80 81 83 90 82 87 95 92 90 70 62 48 46 45 47 47 47 52 55 58 59 51
100 82 91 69 65 75 85 68 56 56 58 59 54 68 84 86 86 79 71 79 78 78 79 81 86 90 87 84 83 85 80 69 48 48 51 58 51 48 52 56 60 60 48 35
99 79 58 66 58 77 91 74 48 64 66 48 50 68 86 91 84 79 82 78 76 72 76 84 93 96 93 91 87 77 66 52 62 64 47 46 50 53 58 63 60 45 27 25
98 97 82 62 46 56 58 67 48 53 57 56 59 68 80 92 100 86 81 79 68 70 78 96 98 96 94 93 89 82 82 57 45 46 48 51 56 62 64 53 41 22 34 36
97 96 68 48 46 56 69 57 51 62 55 50 60 71 80 89 86 87 87 89 88 87 89 84 78 79 66 54 49 46 45 45 47 50 55 60 66 60 50 32 27 39 34 25
80 95 81 43 46 60 51 51 50 53 82 66 71 79 83 86 81 74 66 56 56 52 50 48 50 52 49 47 46 46 47 50 53 58 65 66 56 45 27 35 41 34 24 21
53 50 38 44 48 50 56 56 54 60 71 70 76 80 81 86 80 74 64 61 58 54 52 50 48 48 47 47 48 50 54 58 64 68 62 54 37 30 40 41 33 23 20 29
57 41 42 44 47 56 63 64 67 70 72 68 71 75 76 78 76 73 70 61 57 53 51 49 49 50 53 53 55 58 63 69 67 61 50 29 34 42 42 35 22 20 30 32
53 45 42 48 55 61 66 69 73 78 69 68 71 72 74 73 72 72 66 61 58 56 53 52 53 56 56 58 61 68 70 66 58 42 29 37 43 43 35 22 18 18 20 20
47 46 48 48 61 64 66 68 71 69 70 73 71 71 71 70 70 68 66 63 59 58 58 56 58 59 61 66 70 69 64 55 37 31 39 45 45 36 23 20 19 21 21 17
43 54 55 60 62 62 68 68 67 66 69 72 72 72 76 72 67 66 62 58 59 59 61 61 62 64 68 70 68 61 52 32 33 41 46 46 35 22 21 26 26 25 17 13
57 59 59 61 59 61 67 70 67 69 71 71 75 75 71 72 67 63 62 61 62 62 63 64 66 68 69 65 58 44 32 35 41 47 47 34 22 20 20 22 19 19 27 27
62 61 59 58 62 65 64 69 68 70 72 76 73 73 70 68 68 65 64 63 63 62 63 65 67 67 64 54 37 32 36 41 48 48 31 22 20 21 20 18 23 26 35 47
65 68 65 63 66 66 67 70 68 71 72 72 70 68 67 66 65 63 60 58 55 60 65 68 67 60 49 34 34 36 41 49 47 29 22 20 22 18 18 22 26 40 55 64
72 77 73 72 68 69 68 68 68 68 68 67 64 62 60 55 53 52 55 58 60 64 68 67 58 44 33 34 37 42 51 45 28 21 21 22 14 15 20 29 40 50 60 70
66 66 63 60 61 64 72 71 67 64 60 53 49 47 47 47 49 54 57 61 65 67 66 57 43 33 36 38 44 52 43 28 21 22 21 13 13 21 32 42 53 64 64 65
70 64 58 64 63 63 68 68 67 60 46 41 41 44 47 48 50 55 60 64 64 60 54 43 34 38 40 46 54 39 27 21 23 20 13 13 24 34 43 53 56 60 68 69
70 63 59 64 66 63 62 64 60 43 40 41 43 43 46 49 52 55 61 63 60 52 42 35 40 42 47 53 36 25 22 23 20 13 13 22 32 41 46 55 62 65 67 61
66 62 62 64 70 67 63 60 43 39 40 41 41 42 43 50 54 52 56 54 52 40 38 41 44 49 53 35 23 22 24 20 14 15 23 32 40 46 53 60 62 63 65 60
66 65 67 68 69 67 65 51 41 39 41 46 44 39 41 47 51 53 52 45 38 40 43 45 52 49 33 23 23 24 19 14 17 24 33 40 46 52 57 60 62 63 64 62
66 66 70 72 69 66 60 47 45 44 43 40 36 38 38 38 42 46 46 40 42 44 47 53 44 32 23 24 24 19 15 18 26 33 41 48 53 58 60 62 62 66 66 63
70 70 71 72 69 61 52 52 50 47 42 38 38 38 37 40 47 46 41 43 45 49 53 40 30 23 25 24 19 16 19 26 34 42 50 55 59 61 62 63 65 68 68 67
75 72 73 72 67 59 52 51 50 45 39 39 42 44 46 46 39 41 42 45 50 50 38 29 24 26 24 18 16 20 27 35 44 52 57 60 62 64 67 68 69 70 70 69
79 76 76 75 66 57 53 50 42 38 38 41 46 47 48 46 42 41 45 51 45 36 27 26 26 24 18 17 21 29 38 46 52 56 60 64 67 70 71 70 70 71 70 65
85 82 79 76 69 61 53 43 36 36 37 40 42 48 47 43 43 48 49 41 34 27 27 27 24 17 17 22 32 40 46 51 57 62 66 70 75 78 78 75 71 68 65 59

GFSNGP_850_rhum_018.txt.gz
RH
75 64 65 72 74 71 94 94 98 79 79 66 61 68 67 62 63 58 66 64 59 61 64 69 78 93 98 94 87 86 88 86 87 86 79 76 60 58 52 45 43 44 47 52
89 75 75 82 72 71 75 95 96 95 94 68 64 64 62 63 69 74 76 79 75 64 70 81 94 95 92 88 86 85 84 75 76 73 59 58 53 46 43 43 45 48 56 64
90 66 73 87 75 85 84 78 88 98 86 77 65 66 70 78 79 80 84 85 76 71 82 91 88 88 88 86 82 77 72 72 66 62 64 72 56 57 45 50 57 57 58 64
98 90 92 70 68 69 80 78 71 60 75 79 77 78 87 91 92 84 82 75 75 78 86 86 86 84 83 74 74 76 78 77 82 90 92 75 53 51 55 54 55 60 69 66
100 96 67 63 71 66 82 80 59 60 61 57 70 83 90 100 89 89 88 84 82 81 81 82 80 77 72 71 78 83 89 94 92 81 70 63 74 61 52 57 65 83 57 29
99 98 90 60 54 62 62 95 55 66 70 58 60 78 92 100 81 77 77 75 75 76 78 80 80 78 82 90 93 94 96 93 84 80 64 50 51 55 61 77 66 41 27 36
97 98 78 49 46 54 92 70 57 55 79 67 78 81 85 93 100 83 69 71 83 86 94 97 95 100 100 100 100 95 93 90 73 55 50 54 60 68 65 46 29 35 37 29
91 98 94 44 50 65 61 54 54 56 73 74 82 83 86 82 74 88 97 99 97 99 99 100 98 96 80 76 78 65 52 49 50 54 61 67 64 51 34 32 39 36 29 21
69 71 46 45 48 48 54 58 59 62 70 71 78 83 86 79 69 55 52 52 52 58 65 67 75 62 52 46 47 48 50 54 59 65 66 55 42 30 38 40 35 26 20 23
60 47 48 47 48 54 58 63 67 70 70 70 74 80 81 73 63 58 54 51 50 50 50 50 49 48 48 48 50 54 59 65 67 59 47 31 36 40 40 35 24 18 19 19
65 58 48 52 56 59 61 67 77 71 68 69 69 75 76 73 68 61 57 55 53 50 50 50 50 51 53 55 59 66 67 61 52 38 31 36 41 41 36 24 19 19 20 21
73 52 53 58 58 60 63 68 70 68 69 71 72 73 73 71 65 60 57 55 52 52 54 53 55 56 60 66 69 64 58 50 34 31 38 41 42 36 24 20 21 22 20 12
50 52 54 57 58 61 62 65 68 67 68 70 71 70 70 69 67 62 59 55 65 70 60 57 60 64 68 68 64 56 46 30 32 37 40 42 34 22 20 22 25 25 30 31
54 53 57 58 60 61 61 64 66 70 70 69 71 75 72 68 66 62 59 65 61 59 60 62 65 65 66 62 54 41 30 32 36 39 43 31 22 20 22 20 13 12 19 31
59 58 58 59 61 61 63 65 68 71 73 74 74 72 71 66 63 63 60 61 62 63 64 64 62 60 60 53 39 30 32 36 42 44 29 22 21 22 16 13 14 23 32 39
64 63 65 66 64 64 65 67 66 72 74 73 73 71 68 67 65 63 63 64 64 62 62 61 61 58 52 36 30 33 37 46 44 27 21 22 21 14 12 16 26 35 42 49
68 70 70 71 68 67 66 67 67 72 73 72 71 70 68 66 65 64 63 62 59 57 60 61 56 49 33 32 34 38 47 43 27 21 22 20 13 11 19 29 36 40 46 52
76 71 66 66 66 66 69 67 67 68 69 68 68 67 66 63 56 55 55 57 57 59 62 57 47 32 33 36 40 48 41 27 22 23 20 13 12 20 28 36 42 46 48 51
77 74 68 65 64 64 68 67 66 67 66 65 61 60 55 50 47 49 52 56 56 55 52 47 33 35 37 41 50 39 27 22 24 20 14 13 20 30 37 41 45 51 55 57
77 73 66 69 74 70 69 68 67 66 62 56 49 48 48 46 47 49 54 56 55 51 46 34 35 38 42 50 39 26 22 24 20 14 13 20 29 36 41 45 53 58 60 62
71 68 69 76 77 72 68 74 72 64 52 46 40 41 42 45 49 47 50 51 52 48 37 35 39 42 50 37 26 23 25 21 15 14 21 28 35 42 47 54 59 62 62 63
72 69 68 72 80 81 79 74 66 54 42 42 43 42 42 44 49 54 54 46 42 38 36 40 43 49 37 26 24 25 21 15 16 22 30 37 44 49 55 59 62 63 63 65
78 76 76 75 73 72 72 69 60 44 40 41 42 41 40 40 42 44 44 44 38 37 40 43 49 37 26 24 25 22 16 17 23 32 40 48 53 58 61 63 64 65 65 64
78 77 78 77 77 75 72 65 51 46 43 45 44 39 37 39 46 47 42 36 38 41 44 48 36 26 25 26 22 16 19 25 35 43 50 56 59 62 65 66 66 66 65 65
82 78 79 80 79 76 70 59 54 52 50 46 41 43 42 42 36 37 36 39 41 45 47 36 26 26 26 21 15 19 28 38 45 50 55 59 62 66 68 69 68 65 61 60
84 82 80 82 79 74 67 58 54 54 50 43 43 44 44 44 42 38 38 40 44 46 35 26 26 26 19 16 20 30 39 45 50 55 62 70 75 78 77 74 68 64 60 57
84 85 82 81 81 76 68 61 57 52 46 39 36 41 43 42 40 40 41 46 43 34 27 27 26 17 15 21 31 39 45 49 57 63 66 68 68 67 66 64 61 58 54 51

GFSNGP_850_rhum_021.txt.gz
RH
80 75 77 77 76 73 84 78 97 68 71 65 62 69 68 68 69 67 80 71 66 66 68 69 68 64 74 79 92 93 99 98 96 95 90 75 79 72 63 68 67 63 49 46
98 76 81 91 78 72 72 71 78 81 84 64 65 77 70 67 68 73 74 75 76 68 73 81 85 97 95 98 99 99 100 96 89 83 79 72 58 64 82 58 52 55 48 50
96 74 85 93 79 70 78 80 82 97 77 64 75 85 96 99 97 93 86 81 79 82 85 92 96 92 100 92 91 85 90 84 79 73 65 72 73 72 70 65 53 50 56 60
99 89 90 68 71 70 84 73 74 77 65 57 62 91 96 98 81 99 86 80 82 82 86 89 95 99 99 92 88 81 77 77 79 76 85 82 84 87 88 83 77 78 66 64
100 96 74 63 75 78 86 74 64 66 71 74 62 85 92 98 85 86 81 80 82 85 87 88 89 91 90 86 83 79 67 65 76 82 88 95 97 94 86 88 83 64 62 37
98 99 96 60 59 63 70 87 56 65 77 79 70 82 86 99 78 80 82 82 84 86 87 89 88 84 80 84 91 90 90 98 96 99 99 92 85 86 62 56 66 48 30 36
98 98 82 60 52 64 88 65 62 60 74 71 78 85 90 100 85 79 84 81 83 83 81 83 84 84 93 98 98 98 99 99 98 99 94 82 63 56 65 66 34 35 36 32
97 99 93 46 60 69 56 57 60 62 69 77 80 86 81 96 100 98 96 96 96 96 99 97 99 98 98 100 100 97 98 97 84 63 55 56 61 56 38 33 37 35 30 22
79 76 49 46 49 52 55 59 61 65 70 70 80 86 79 68 75 91 99 99 100 100 99 99 99 100 98 98 99 92 66 53 53 57 60 56 41 32 36 37 34 28 20 20
65 56 54 52 54 54 57 59 64 70 71 71 76 83 71 56 55 57 65 83 94 94 93 96 91 82 72 63 51 50 53 58 62 57 45 33 33 36 37 34 24 19 19 20
76 64 58 56 56 57 58 65 74 71 71 69 76 80 71 59 53 51 51 53 54 54 52 51 49 48 48 56 54 58 65 64 54 42 31 34 38 38 33 23 21 21 21 16
82 56 58 58 57 60 60 63 69 69 71 72 73 78 72 62 59 56 53 53 51 50 50 52 49 52 55 58 65 66 58 49 34 34 38 40 39 29 22 21 22 20 12 9
56 54 54 56 57 58 59 62 67 68 67 70 72 72 73 68 67 59 57 53 54 65 58 56 58 65 66 68 63 54 40 31 35 39 42 40 27 22 21 23 18 13 17 26
63 59 60 59 58 59 60 62 66 68 70 70 70 71 71 70 62 57 54 56 80 64 57 60 65 68 66 61 51 34 32 36 40 44 38 25 21 21 20 13 10 15 25 31
65 64 60 58 61 62 63 63 67 69 69 70 72 72 71 68 63 58 59 74 60 58 62 66 66 63 59 48 34 32 35 39 44 36 25 21 21 19 12 12 18 26 31 36
70 67 66 66 67 66 64 66 67 70 71 73 73 71 70 66 61 68 64 60 62 64 66 65 61 57 48 34 32 34 38 42 35 24 21 22 18 12 12 19 27 33 40 45
81 72 69 71 71 69 66 65 66 71 71 81 73 70 66 66 63 61 62 63 65 64 63 62 54 47 33 32 34 36 42 34 25 22 23 19 13 12 20 27 33 38 45 51
79 79 79 72 69 70 70 67 68 71 86 72 71 69 68 66 65 65 65 63 62 62 63 58 48 34 31 33 36 42 35 26 22 23 20 14 12 20 27 33 40 45 50 52
80 76 77 74 67 71 69 67 67 73 72 74 70 69 68 66 64 60 56 56 56 54 53 49 38 31 34 37 44 38 27 23 24 21 15 13 20 28 34 40 46 52 55 55
80 77 74 68 70 73 71 68 67 70 82 71 68 67 64 58 52 50 52 54 55 52 45 40 31 35 37 44 42 28 23 24 22 16 14 20 28 35 41 48 54 56 56 57
80 76 72 71 84 85 82 72 66 71 88 67 62 57 50 46 48 49 52 53 52 49 44 32 35 38 42 44 30 24 25 22 16 15 22 28 35 43 50 55 56 57 57 58
84 75 77 83 89 94 91 83 80 95 71 61 55 48 46 46 48 50 52 47 43 42 38 34 38 42 44 31 24 25 22 16 17 23 30 38 46 50 54 57 58 59 61 62
82 78 76 74 79 87 90 85 86 78 65 53 47 45 44 40 41 44 43 44 44 38 34 38 41 45 32 24 26 23 15 17 24 33 41 47 52 56 58 60 61 63 62 62
83 81 79 78 78 79 80 78 73 68 59 50 47 44 41 38 44 47 45 40 38 35 39 41 46 34 24 26 23 15 18 26 36 42 46 54 60 62 64 66 63 64 63 64
83 83 81 82 81 81 78 74 70 62 54 49 48 47 43 42 41 39 42 39 35 39 42 46 35 25 26 23 15 18 28 36 40 44 56 64 67 71 74 74 70 65 60 59
84 85 84 83 83 83 79 74 66 58 54 52 50 46 46 48 46 43 41 37 39 42 47 36 26 26 22 14 18 28 35 39 46 56 56 58 63 66 65 61 58 58 56 54
81 87 87 85 83 82 80 75 67 58 54 52 46 42 46 63 44 42 38 39 42 47 37 27 26 23 14 18 27 35 38 46 50 50 61 75 84 88 88 81 71 63 54 49

GFSNGP_850_rhum_024.txt.gz
RH
82 77 79 80 78 77 88 74 93 66 68 60 56 55 60 85 85 73 74 76 72 74 74 77 71 62 65 62 69 76 89 97 79 94 99 95 97 98 94 93 82 75 86 97
95 82 87 92 81 76 73 67 68 68 73 52 58 62 70 92 97 94 93 86 81 74 78 76 71 75 85 88 94 98 100 100 99 97 94 96 94 84 81 82 85 95 76 75
97 77 86 96 86 79 73 70 74 91 72 67 75 67 91 99 89 88 90 94 88 90 88 88 95 100 98 96 99 100 97 93 89 91 92 82 76 82 84 88 86 85 93 90
98 86 92 65 60 62 69 74 78 81 74 73 70 81 96 96 83 90 84 84 84 84 85 93 100 100 100 100 100 100 100 99 99 96 80 76 84 90 92 88 91 95 94 94
94 90 75 64 72 79 88 75 67 79 70 67 72 90 96 94 82 90 95 87 86 85 90 96 98 99 100 97 99 100 98 92 84 79 83 88 97 99 97 98 97 98 100 100
100 99 96 57 62 64 66 94 66 64 70 81 71 82 87 98 85 85 88 92 93 94 94 95 94 98 100 100 100 98 89 92 95 97 96 99 100 99 98 99 100 85 52 36
99 97 85 60 54 65 83 66 60 60 64 71 75 79 89 95 90 89 92 92 92 91 90 87 89 92 94 100 100 99 100 100 100 100 100 100 99 100 88 69 58 46 36 35
99 100 92 51 68 73 57 57 60 60 66 71 74 83 86 96 98 96 95 99 94 92 97 99 100 100 100 99 100 100 100 100 100 98 94 83 64 57 64 54 36 38 35 29
84 78 51 46 52 51 56 58 60 64 67 73 78 82 79 91 94 96 94 97 99 100 100 100 100 100 99 98 100 100 96 81 64 57 59 65 58 42 33 36 37 32 25 25
70 59 61 52 54 54 55 57 60 66 70 74 75 81 71 71 81 92 96 96 99 99 100 99 100 100 97 95 81 56 52 54 60 66 58 41 35 38 39 35 28 21 20 20
74 68 58 58 55 55 56 59 65 70 73 73 76 80 68 63 61 71 91 97 96 96 96 87 76 55 52 54 53 57 61 63 59 46 36 37 40 38 34 26 21 21 21 16
76 58 60 58 54 54 55 56 61 70 73 73 75 77 69 60 56 60 64 62 61 59 56 49 49 65 71 63 59 66 61 49 38 36 39 40 39 32 24 21 20 18 12 11
64 62 61 58 58 56 55 56 60 68 70 69 76 77 71 63 60 55 53 53 64 60 62 51 63 62 58 64 65 58 48 35 35 39 39 38 28 22 22 23 19 14 15 22
77 73 68 61 58 59 58 59 62 65 67 69 70 74 72 65 67 57 56 53 72 60 67 76 86 64 67 64 56 44 32 33 36 40 37 26 22 22 21 15 12 15 24 30
70 73 70 68 62 61 62 63 62 65 68 70 71 71 71 71 65 60 56 56 70 61 63 65 67 66 61 54 40 32 35 38 42 34 25 22 22 20 14 12 16 25 31 35
63 75 71 67 67 68 68 67 63 66 70 72 69 70 71 68 63 59 59 86 67 60 64 67 65 58 50 37 34 36 40 44 33 25 22 23 20 15 12 18 26 31 34 38
91 73 78 76 72 71 70 68 65 66 75 71 73 81 72 68 61 63 78 70 60 63 66 64 58 50 37 34 38 41 45 34 25 22 23 21 16 12 18 25 30 36 40 46
86 84 80 76 81 76 73 71 67 68 74 84 89 74 70 65 66 70 63 60 63 66 64 61 53 40 34 37 42 46 37 26 23 24 22 17 13 18 25 29 33 38 44 52
85 82 81 78 79 75 73 71 67 68 72 91 80 70 66 65 65 62 63 64 64 63 61 56 44 34 36 39 44 41 28 23 24 22 18 14 19 25 30 35 41 47 52 55
87 83 77 74 72 72 72 72 69 67 71 81 73 69 68 66 64 65 64 60 59 59 56 48 36 34 37 41 46 31 24 24 23 18 15 20 25 31 38 45 50 56 58 59
97 85 78 83 80 85 85 78 72 70 73 84 78 70 68 66 65 61 58 59 61 58 52 42 33 37 39 45 35 25 24 24 17 15 20 28 36 43 49 54 57 60 60 59
83 83 74 80 88 96 97 94 87 79 84 99 77 69 67 63 57 56 54 53 54 53 47 36 35 39 44 39 27 25 24 17 16 22 31 39 44 48 52 55 58 60 59 58
83 80 78 82 84 95 99 97 94 90 92 97 71 68 63 51 48 49 51 55 55 48 44 35 39 42 42 30 25 25 16 15 23 32 39 43 48 53 58 61 60 60 57 57
82 83 81 79 79 81 88 91 93 94 98 87 70 62 50 44 49 50 52 50 48 46 38 38 41 46 34 25 25 17 15 22 31 37 42 50 56 62 67 65 64 64 60 56
76 81 82 80 80 83 82 81 81 82 78 77 67 53 48 47 47 46 50 48 45 41 37 42 44 38 26 26 19 14 21 30 35 41 47 51 55 57 57 55 55 54 52 49
78 77 82 84 83 81 83 82 78 73 70 64 58 50 48 50 69 49 48 44 43 37 41 44 40 27 26 21 14 19 27 33 40 44 50 64 75 82 85 85 77 68 57 48
84 88 83 85 87 85 82 81 80 74 68 61 53 51 51 59 99 74 46 43 39 39 43 44 30 26 23 13 17 25 31 37 41 46 62 72 79 87 90 87 82 75 68 57

GFSNGP_850_rhum_027.txt.gz
RH
80 75 77 78 74 80 88 76 87 63 67 54 48 46 48 66 84 86 82 84 89 90 84 78 72 72 75 70 65 59 55 64 88 94 100 100 100 100 100 100 99 96 91 80
93 80 88 92 82 81 78 74 74 70 74 50 49 60 69 85 90 84 86 83 87 85 86 86 88 86 87 82 80 76 72 99 100 100 100 99 100 98 99 97 89 89 84 84
97 79 88 94 86 80 79 73 70 84 63 62 73 70 78 92 86 84 88 85 83 88 89 89 91 98 100 100 97 92 93 98 99 100 99 98 97 95 89 90 92 90 95 99
96 85 96 60 63 66 71 67 70 67 66 67 72 71 89 93 88 83 92 90 90 88 91 98 100 100 100 100 99 97 95 95 95 94 92 92 88 88 86 90 94 95 93 96
91 90 77 63 74 83 82 75 70 74 71 71 67 83 95 92 91 83 88 94 97 98 98 98 99 100 100 99 100 100 100 99 98 98 98 98 100 100 96 95 95 99 98 98
99 98 98 55 65 66 65 85 63 72 70 71 72 85 84 90 84 86 88 90 93 97 96 96 96 100 100 99 99 99 99 99 99 100 100 100 100 100 100 99 100 100 100 100
99 96 84 59 53 65 79 67 57 60 62 68 80 76 84 88 89 90 92 98 95 93 90 93 94 99 100 100 99 99 99 100 100 100 100 100 100 100 100 99 100 94 71 42
93 100 94 57 73 73 60 56 61 61 62 69 72 76 85 87 89 88 87 90 96 97 98 99 100 100 99 97 99 100 100 100 100 100 100 100 99 93 85 69 48 38 38 36
85 77 53 54 54 50 54 60 59 62 63 70 72 77 83 87 87 90 87 90 95 99 98 99 100 100 99 98 99 99 100 100 99 81 65 62 67 58 39 37 38 37 31 25
77 63 65 54 54 57 54 55 57 63 69 71 72 76 79 88 86 88 92 92 95 98 99 99 100 100 100 99 98 90 68 59 60 63 54 40 36 39 39 37 32 25 22 22
79 67 58 56 58 54 55 55 56 59 67 72 74 74 76 76 82 88 89 94 96 97 97 98 95 80 65 57 54 57 62 62 55 43 36 38 40 38 33 27 23 22 22 20
85 63 68 62 60 60 58 56 56 56 66 73 74 74 75 68 67 81 91 90 91 85 71 57 56 58 63 57 60 65 62 50 37 34 37 38 37 32 25 22 21 19 14 9
76 87 83 74 69 63 61 59 57 56 62 69 72 77 74 65 60 65 70 67 62 62 60 54 66 66 57 60 64 57 45 33 34 36 37 37 29 23 21 21 19 15 12 18
73 84 76 70 67 60 61 60 60 60 60 63 68 75 75 68 60 60 55 58 70 60 56 57 68 59 65 64 56 44 32 34 36 38 37 28 23 22 22 18 14 15 20 25
72 69 65 76 73 72 65 63 64 63 60 64 68 73 74 70 65 65 55 62 73 63 67 82 71 66 62 56 46 32 33 35 38 38 27 22 22 22 17 14 13 19 25 31
73 76 67 71 74 70 67 68 69 65 63 67 68 71 71 71 70 64 58 54 83 63 67 71 67 64 56 45 32 32 34 39 37 27 23 23 22 19 14 15 21 26 29 33
97 90 81 80 82 77 73 72 71 68 65 68 76 86 73 73 71 62 61 76 75 60 65 67 64 57 46 32 32 35 40 40 28 23 23 23 20 15 16 22 26 31 36 42
96 93 89 88 83 77 81 78 75 70 66 69 74 73 82 81 67 61 63 87 65 61 65 64 59 51 35 32 35 39 42 30 24 24 24 21 16 16 22 27 32 37 43 48
97 92 87 82 84 78 81 80 77 72 67 70 83 90 93 72 67 63 74 73 61 64 64 60 55 43 31 34 38 44 34 26 24 24 22 16 16 22 28 34 40 45 50 53
100 95 89 82 78 76 73 71 75 72 69 72 89 97 74 69 65 70 68 62 64 63 60 57 50 35 34 38 45 40 29 24 25 23 15 16 22 31 38 44 48 52 54 55
90 96 90 96 97 93 92 84 77 73 70 72 83 88 70 67 67 65 63 64 62 62 60 55 44 33 36 40 45 34 25 25 23 15 16 24 33 40 44 47 50 52 52 52
86 85 84 86 89 97 100 99 98 98 87 83 91 94 69 68 66 65 64 59 58 58 56 51 38 35 39 44 41 27 25 24 16 16 24 33 38 43 48 51 54 54 53 53
78 81 81 78 77 80 94 100 100 100 100 97 97 90 71 68 65 62 55 54 58 58 55 47 36 38 40 44 33 25 25 17 15 23 32 36 42 46 50 53 56 57 56 53
72 76 80 81 79 79 81 90 98 99 100 100 100 89 90 71 64 59 53 51 52 55 54 45 36 39 44 40 26 25 19 14 21 30 35 40 43 49 53 53 50 50 49 49
73 76 78 82 83 81 82 83 80 85 96 100 100 98 100 69 59 51 50 50 53 51 50 42 38 41 46 30 25 22 14 19 28 34 39 44 60 73 79 80 75 66 56 49
47 66 80 82 86 87 84 83 82 79 76 80 89 96 99 69 78 59 51 52 49 49 48 38 39 44 37 26 25 14 17 26 31 35 41 58 70 78 85 87 86 84 77 66
31 54 68 82 89 88 88 86 83 82 78 74 70 72 70 58 58 98 90 52 50 48 44 40 45 44 28 26 16 15 22 29 35 38 52 67 76 83 85 86 89 88 82 74

GFSNGP_850_rhum_030.txt.gz
RH
78 72 79 77 75 84 84 78 86 69 74 57 52 51 46 54 75 82 80 84 84 84 90 96 94 88 88 89 83 71 70 63 61 56 80 99 100 100 100 99 98 100 100 100
94 77 87 94 85 80 80 73 75 70 74 50 48 52 68 74 87 84 84 90 89 84 87 88 96 99 99 98 99 100 94 87 86 93 99 99 99 100 100 100 100 100 100 96
91 81 88 94 88 82 74 75 69 82 57 51 65 69 73 80 88 87 87 91 94 91 95 100 99 99 99 99 99 99 95 92 97 94 100 100 100 100 100 100 100 99 98 96
96 86 95 58 67 67 70 65 69 64 63 62 63 68 74 88 91 86 90 92 94 95 98 100 100 99 98 100 99 99 97 97 98 99 99 100 100 99 98 96 96 93 92 94
92 90 75 59 77 75 75 68 66 66 62 63 67 72 77 90 86 89 95 92 92 97 100 100 99 98 97 100 100 99 99 97 96 96 96 96 94 96 100 99 100 100 100 100
93 98 97 56 69 68 64 76 58 72 74 69 71 84 83 89 86 92 95 89 88 92 94 98 100 99 95 97 100 99 99 100 100 100 100 100 100 100 99 100 100 100 100 100
91 93 83 61 53 66 80 67 57 63 64 68 80 74 77 86 85 88 89 89 94 98 99 100 100 100 99 99 96 100 100 99 100 100 100 100 100 100 100 100 100 99 98 86
84 99 95 58 73 73 60 58 61 61 61 64 71 73 78 87 85 87 85 85 88 96 98 99 100 99 99 98 100 100 100 100 100 100 100 100 100 99 98 82 51 38 36 35
84 81 55 52 59 50 52 58 57 59 61 66 73 75 82 88 85 84 85 84 83 86 95 98 98 100 100 100 100 100 100 100 99 89 77 70 62 43 38 39 38 36 33 30
80 67 69 56 54 57 59 57 57 59 60 68 71 75 79 86 85 88 87 88 89 86 92 96 98 99 99 99 99 95 74 63 64 59 46 38 38 39 38 35 31 26 23 22
82 72 60 60 60 60 61 61 59 60 60 64 71 74 76 82 85 89 93 92 93 94 94 95 93 75 70 62 58 63 66 58 46 37 38 39 38 35 31 25 22 22 21 18
80 69 75 72 65 65 65 66 63 62 60 63 73 75 75 76 77 88 93 94 93 95 91 63 58 60 58 59 61 63 54 42 36 38 38 37 34 27 24 22 21 18 14 11
84 85 82 76 72 74 75 65 66 63 61 63 71 75 76 73 69 74 91 92 90 70 58 61 66 65 61 63 63 53 42 34 37 39 39 34 26 23 23 23 20 16 14 17
66 68 77 77 74 71 76 73 66 62 62 62 68 73 76 72 68 65 72 74 66 63 56 64 70 60 63 62 56 44 34 36 38 39 35 26 23 22 22 18 15 13 17 23
72 73 72 67 58 61 74 76 68 64 65 63 66 71 74 73 68 63 58 61 78 67 57 62 71 64 63 57 48 33 33 35 38 37 27 23 22 22 19 16 13 16 22 27
60 64 73 80 77 70 76 72 71 70 69 66 67 70 73 72 69 64 62 58 81 73 75 80 70 67 60 51 36 31 33 35 38 30 24 22 23 20 17 14 17 21 25 29
83 83 83 83 84 81 83 82 77 75 72 68 67 70 71 72 80 71 63 58 72 90 70 73 68 64 55 42 31 32 34 38 34 26 23 23 22 18 14 18 23 28 33 39
91 98 100 99 93 86 80 79 84 82 76 69 68 73 83 82 72 75 62 57 91 78 62 68 66 60 50 35 30 33 37 38 28 23 24 23 18 15 20 25 31 37 42 45
95 99 99 99 93 86 86 76 78 84 81 72 69 75 74 80 89 70 64 68 87 65 64 67 62 55 45 31 32 35 40 32 25 24 24 19 16 20 26 34 40 44 47 49
89 98 100 100 96 85 80 76 73 76 77 72 71 75 82 98 81 68 64 67 82 65 64 65 58 52 40 31 34 38 39 29 24 24 20 15 20 28 35 39 43 46 49 50
86 94 98 98 97 98 98 92 92 81 78 75 74 82 98 92 71 67 65 76 71 62 64 62 57 49 34 32 36 42 36 26 25 22 15 19 29 34 37 42 47 51 53 52
83 85 85 86 85 88 99 100 100 97 91 80 79 90 100 83 70 67 70 68 64 63 60 58 55 46 33 35 39 42 30 25 24 15 18 28 32 37 41 44 49 54 56 55
76 77 82 83 82 81 85 99 100 100 100 100 100 100 100 93 82 67 66 63 63 59 56 56 52 43 33 36 42 39 27 25 17 16 26 32 36 40 48 53 55 54 49 48
56 69 74 79 83 82 82 85 95 100 100 100 100 100 100 99 77 68 65 63 59 55 56 56 50 41 35 39 44 32 25 22 15 23 30 34 40 53 66 75 79 82 78 69
30 45 60 69 76 81 84 82 82 82 94 100 100 100 100 100 98 79 64 59 56 55 57 57 50 39 36 43 42 26 25 15 19 28 33 36 51 65 76 84 89 85 78 72
20 28 50 70 82 87 86 85 83 82 80 81 92 100 100 100 98 90 95 60 54 54 57 54 50 38 39 45 35 26 18 16 24 30 33 44 60 73 84 86 87 87 85 81
22 22 23 29 40 57 82 88 87 85 82 80 77 79 95 100 99 98 98 95 67 55 54 51 47 40 44 44 27 24 15 21 27 31 38 55 68 77 81 82 85 88 89 89

GFSNGP_850_rhum_033.txt.gz
RH
75 67 80 77 77 82 84 75 79 61 71 53 50 51 50 54 77 81 83 85 87 87 88 88 93 97 97 91 95 96 95 90 79 69 63 53 54 60 84 98 100 100 100 100
92 77 85 92 82 79 78 71 72 70 71 47 47 50 63 76 84 86 86 87 89 95 98 97 98 98 96 99 98 98 91 86 84 81 85 80 94 100 100 100 100 100 100 100
87 76 85 94 88 80 76 76 68 82 61 52 54 62 66 80 87 88 87 90 94 99 100 97 97 99 100 100 98 95 98 96 96 95 96 99 100 100 100 100 100 100 100 100
90 83 95 57 66 69 71 65 67 62 59 56 56 57 74 82 88 82 90 92 95 99 100 98 100 100 99 100 98 94 98 99 98 100 99 99 100 100 100 100 100 100 99 100
91 93 71 58 75 78 75 67 62 63 57 56 62 70 84 90 81 84 90 91 95 97 97 99 99 99 100 100 98 100 100 99 97 98 98 99 100 100 100 100 100 100 99 100
87 91 96 55 70 67 64 80 62 64 66 72 70 80 78 86 83 86 90 90 98 96 94 92 95 97 96 98 98 99 99 99 98 99 100 100 99 100 100 100 99 99 99 99
88 89 82 60 64 67 91 73 56 65 66 69 79 71 73 83 84 83 89 97 100 100 95 92 98 98 94 96 98 100 99 97 94 99 99 99 99 99 99 99 99 99 100 99
78 93 93 58 70 78 63 58 59 62 61 64 68 74 76 84 84 81 83 91 99 100 98 100 99 98 98 98 99 100 99 99 99 99 100 100 100 100 99 94 76 51 39 34
79 75 56 59 63 58 54 60 60 59 61 65 71 74 76 85 83 81 82 82 87 94 96 100 100 99 98 98 99 99 100 98 94 86 73 55 41 37 36 36 34 30 28 28
80 68 71 57 57 60 62 63 61 61 61 61 70 72 74 86 82 81 83 85 80 88 92 90 96 93 89 95 96 69 66 60 50 38 35 36 37 36 34 30 25 23 23 22
85 75 65 64 64 63 64 65 66 65 63 61 65 72 74 78 85 86 84 85 86 87 91 84 80 75 65 62 64 66 54 41 34 36 38 37 35 31 27 23 22 21 19 16
90 69 71 66 66 76 76 75 70 68 66 63 63 73 75 77 85 87 88 89 89 90 91 72 61 60 62 62 63 56 42 33 35 36 36 34 28 23 22 22 20 16 13 13
77 83 81 69 72 78 74 70 72 67 67 63 64 70 77 77 79 83 90 89 87 87 74 61 67 63 61 61 56 46 34 33 35 36 35 28 24 22 22 21 19 16 14 19
79 67 67 77 78 73 62 58 72 75 67 64 65 67 76 78 77 75 87 89 88 72 60 65 70 61 61 58 50 38 32 34 36 38 30 24 23 23 21 19 16 14 18 22
69 71 68 64 61 59 62 61 74 76 69 68 67 66 71 76 73 69 74 86 78 67 60 66 71 62 62 55 46 32 33 35 38 35 26 23 22 22 20 16 13 16 21 27
71 65 67 75 83 82 78 78 78 73 72 72 71 68 70 74 71 66 65 65 65 72 73 59 72 64 62 52 40 31 33 37 39 31 25 22 23 21 16 13 16 21 26 31
76 77 86 90 92 88 86 82 83 82 77 76 72 70 71 74 72 67 63 62 66 84 83 68 78 66 60 50 35 31 34 37 37 28 23 23 22 17 13 16 22 28 34 39
89 92 100 100 99 95 87 86 84 82 81 82 75 70 71 72 71 68 71 61 64 86 92 94 72 66 57 46 32 32 34 38 33 25 23 23 19 13 17 24 31 35 40 44
90 95 100 100 100 98 91 88 89 82 80 85 80 70 70 74 80 82 71 61 61 91 92 69 68 63 55 43 31 32 35 38 30 24 23 20 13 17 26 32 36 40 44 46
87 96 100 100 100 100 100 94 87 82 79 82 79 72 71 80 80 80 77 62 61 91 75 65 67 59 52 40 31 34 36 36 28 23 22 14 16 26 32 36 40 44 47 49
81 84 85 92 95 97 97 98 94 96 89 81 78 74 75 77 86 98 72 66 74 82 65 64 65 58 51 38 32 34 37 35 25 23 15 14 24 31 36 40 43 44 46 47
74 76 77 78 78 79 80 91 98 99 99 90 81 79 79 94 100 97 96 91 79 81 64 64 63 59 51 37 33 35 37 31 23 20 13 21 28 33 40 47 52 53 51 48
53 59 65 67 72 77 80 83 98 99 99 100 100 99 97 100 100 99 98 73 78 72 63 63 61 58 50 36 34 37 39 27 23 14 17 25 30 38 51 61 67 70 70 65
29 35 42 55 69 76 77 81 82 88 99 99 99 99 100 100 99 100 84 88 85 63 64 62 60 57 49 36 35 39 37 24 20 14 22 28 33 48 61 69 75 77 73 70
19 25 38 46 52 61 75 81 83 82 82 90 100 99 99 99 100 100 98 98 92 64 62 60 61 57 50 37 37 41 32 24 15 17 25 30 39 56 66 73 76 77 79 82
15 18 21 25 29 34 49 72 84 85 83 81 80 90 99 99 100 99 99 98 95 64 59 59 59 56 49 38 39 42 27 22 14 20 28 33 47 63 70 75 79 86 91 92
20 20 20 23 26 25 24 30 57 82 88 85 82 79 79 99 100 99 98 99 99 92 59 59 59 55 49 40 43 39 26 16 15 22 29 39 56 66 71 75 81 88 93 93

GFSNGP_850_rhum_036.txt.gz
RH
60 59 70 68 65 66 80 56 62 41 44 31 32 36 40 52 66 73 74 79 84 88 95 98 99 98 91 94 97 98 96 92 87 85 85 86 84 76 75 66 62 68 96 99
83 68 70 79 65 62 63 58 55 49 50 34 34 39 43 54 72 76 76 82 88 94 100 100 99 99 100 100 92 91 93 93 90 91 90 99 100 98 98 97 78 65 81 98
76 65 67 73 66 62 59 58 54 63 44 36 42 42 49 63 79 78 83 87 93 99 100 100 100 100 100 99 96 91 95 95 94 94 93 90 94 99 99 98 98 98 100 100
82 72 82 52 54 53 55 49 51 47 44 43 42 48 64 80 80 82 88 94 95 98 100 99 100 98 100 98 95 94 95 95 95 95 94 99 99 99 98 98 99 99 100 100
83 69 51 42 59 61 63 64 48 51 44 44 49 68 71 83 81 86 93 87 91 92 92 93 92 95 98 98 98 98 99 99 97 97 95 95 95 96 98 99 100 100 99 100
78 83 71 48 59 55 53 71 54 51 50 52 65 63 58 82 82 88 88 94 93 87 88 89 88 91 88 92 99 100 100 100 100 100 98 95 98 99 99 99 98 100 98 98
71 68 56 43 59 65 83 66 56 62 61 65 63 58 74 78 83 86 85 97 99 96 92 90 89 91 96 99 99 99 97 98 97 99 100 99 100 100 100 98 98 98 98 98
73 80 77 50 63 64 57 58 60 64 62 65 68 69 74 82 83 82 83 90 99 98 99 97 96 95 94 95 99 94 89 90 93 99 98 98 99 100 99 92 70 49 38 34
55 52 41 57 60 62 55 58 61 59 61 63 67 72 77 84 84 81 80 82 90 95 99 98 98 100 92 96 98 94 87 84 77 58 44 39 37 37 36 34 30 26 25 26
65 47 50 54 59 60 62 65 62 62 63 64 65 70 75 82 86 81 81 80 83 90 91 95 97 92 88 73 68 63 51 40 33 33 34 35 34 32 27 23 22 22 21 21
63 59 63 63 63 66 68 68 66 66 66 66 65 64 71 78 86 82 81 79 81 87 89 82 78 78 69 65 63 53 38 31 32 33 33 32 28 23 22 20 19 18 16 14
62 54 51 56 68 69 71 73 70 72 66 65 67 64 69 74 81 84 82 83 84 87 91 81 73 66 61 60 56 49 34 31 33 33 32 28 23 22 21 20 18 16 13 14
58 66 68 69 66 66 78 75 70 64 72 68 68 65 67 74 77 84 86 86 87 88 89 77 64 64 60 57 50 42 33 32 33 34 31 24 22 21 22 20 19 16 14 18
78 78 70 67 76 78 74 63 59 55 71 73 66 66 67 75 78 82 87 87 91 92 92 69 66 65 59 56 48 37 31 32 33 34 28 23 22 22 21 20 17 15 17 21
76 72 70 68 64 62 67 68 65 65 74 74 68 68 67 70 75 77 78 85 92 91 86 63 67 67 60 55 47 34 31 32 34 33 25 22 22 21 20 16 14 17 21 25
75 74 69 65 77 84 83 82 80 78 77 73 70 71 70 69 75 76 74 77 89 88 75 63 68 77 62 55 46 32 31 33 35 31 25 22 21 21 17 13 16 21 27 32
65 67 73 88 95 92 91 92 90 81 82 80 76 74 71 70 74 73 70 69 75 80 75 82 85 94 65 56 45 31 32 33 36 30 24 21 21 19 13 15 22 28 33 37
70 84 95 100 99 96 96 93 89 90 81 82 81 79 74 70 71 72 70 66 64 68 84 81 95 98 66 56 43 31 32 34 36 28 23 22 21 13 14 22 28 32 36 38
84 86 99 100 100 99 100 100 89 88 88 85 86 86 80 71 72 72 71 67 63 64 79 99 99 97 66 56 42 31 33 36 36 28 23 22 14 13 21 27 30 34 37 40
87 91 96 100 100 99 99 100 100 98 90 83 86 89 80 73 73 75 74 71 73 76 97 100 100 79 65 55 41 32 34 37 36 27 23 20 12 18 25 29 33 35 36 39
80 80 80 86 83 84 88 96 100 97 99 98 85 82 78 76 75 82 88 81 85 99 99 100 91 68 63 54 41 33 34 38 36 26 23 14 14 23 27 32 38 42 45 44
67 66 65 69 72 74 77 82 94 100 100 99 98 84 81 79 80 80 83 96 100 98 98 94 65 67 62 53 42 33 35 38 34 24 21 13 19 25 30 40 50 55 59 58
42 41 42 47 54 65 75 78 80 89 100 99 99 100 98 99 99 99 99 100 99 98 98 97 66 66 62 55 43 34 36 39 33 24 16 14 22 26 37 49 58 62 63 62
22 24 29 36 48 56 57 70 78 80 81 96 100 100 100 100 99 99 99 99 99 99 98 96 68 66 62 56 45 36 37 40 30 24 13 17 24 29 44 55 63 66 67 72
14 16 21 25 25 23 29 48 68 78 81 81 83 98 100 100 100 99 98 98 98 98 98 89 66 65 61 56 47 37 39 41 27 20 14 20 25 34 50 60 66 70 76 84
16 18 20 21 22 22 22 22 37 60 77 83 83 80 87 100 100 100 98 99 99 99 97 95 94 74 61 57 48 38 41 40 26 16 14 22 27 40 55 63 68 74 82 89
14 14 15 18 22 24 26 27 26 35 57 77 86 85 81 80 99 100 100 99 99 99 98 97 88 62 62 58 48 40 42 36 25 15 17 24 31 46 60 66 72 78 85 92

GFSNGP_850_rhum_039.txt.gz
RH
50 49 61 64 57 55 72 59 57 36 29 29 26 30 36 40 50 60 64 69 74 79 84 95 100 100 95 97 100 97 93 90 95 92 88 86 87 88 85 82 88 90 86 89
85 56 58 68 56 51 56 53 49 41 41 27 27 30 36 43 56 64 67 72 78 82 94 100 100 100 98 94 99 98 96 98 98 98 93 87 89 91 98 99 99 100 100 100
71 56 60 70 59 53 50 47 46 52 39 32 38 37 42 50 64 68 72 77 82 90 97 98 99 98 100 99 97 95 98 97 94 91 91 80 85 88 95 99 100 100 99 100
82 68 82 53 45 45 47 44 43 40 36 33 36 39 48 67 66 70 77 82 87 92 99 100 98 100 99 98 97 97 97 96 92 87 89 93 99 100 100 100 98 98 98 94
78 64 45 37 45 54 56 56 41 43 40 38 39 53 62 74 73 75 80 85 80 93 86 81 86 97 100 100 99 100 98 94 90 90 93 93 93 95 98 99 97 95 96 98
63 73 62 48 52 45 44 65 48 42 43 45 52 61 62 79 77 80 82 80 87 92 77 81 87 94 97 95 96 94 96 95 94 92 92 96 96 97 98 95 92 92 92 95
65 66 50 33 53 53 73 69 53 53 54 57 59 59 76 78 83 84 87 87 91 85 81 83 87 94 92 89 86 89 91 94 94 90 90 95 96 98 94 93 94 94 90 78
61 69 73 43 61 62 54 54 59 62 62 60 62 70 77 80 86 86 82 90 93 92 92 89 88 86 88 85 83 85 87 91 91 90 89 94 92 91 75 54 37 32 28 27
47 48 38 44 44 58 56 54 60 63 64 65 65 72 78 84 89 86 84 91 92 93 93 92 92 87 77 76 77 82 77 68 59 52 41 38 36 35 33 30 27 24 24 25
50 40 41 44 52 58 60 63 66 62 62 62 67 70 76 84 88 87 85 86 88 90 90 88 80 79 74 65 60 56 47 36 33 35 34 33 30 27 23 22 21 21 20 20
52 46 55 50 49 60 65 66 64 63 63 64 67 68 70 78 85 88 83 83 85 86 88 82 77 74 68 59 54 46 34 31 32 32 32 29 24 21 19 18 18 16 15 13
52 40 42 41 54 66 69 73 66 66 67 69 66 67 70 74 82 87 87 83 82 84 86 83 76 75 68 58 51 43 32 30 30 30 29 25 22 19 18 18 17 16 12 11
45 54 57 62 72 74 69 75 75 72 62 66 71 68 70 70 80 85 89 82 81 81 84 87 78 71 65 58 51 42 32 30 30 30 28 23 21 20 19 17 17 12 11 12
70 68 66 70 68 74 76 72 63 59 56 56 74 71 67 68 77 84 80 82 84 84 87 87 84 67 64 58 51 42 30 30 31 31 28 23 20 20 21 20 17 15 13 17
72 73 69 70 69 68 63 62 66 70 70 73 75 74 68 68 68 72 81 84 88 88 89 90 86 68 66 59 53 44 31 30 31 31 28 23 20 21 20 18 12 13 17 22
76 75 73 71 71 71 81 85 89 85 82 79 77 75 71 71 71 72 79 83 84 87 90 90 88 69 67 70 55 46 32 30 31 33 28 23 21 21 20 13 12 16 22 28
68 68 66 71 88 95 97 97 98 97 92 88 82 77 76 75 73 73 75 77 78 82 89 90 86 75 87 98 59 48 32 30 32 34 29 23 21 21 17 12 15 22 26 29
64 70 82 90 96 99 99 100 100 96 93 96 85 85 81 78 74 72 73 74 74 75 86 89 82 89 98 99 62 51 35 31 33 34 29 23 22 22 13 14 21 24 27 29
76 85 89 98 98 99 99 99 100 99 91 90 91 87 86 85 79 74 73 73 71 69 74 79 84 95 99 98 63 53 36 32 34 35 30 23 22 17 12 19 23 26 28 30
82 84 85 94 100 97 100 100 99 99 100 97 88 89 90 89 83 75 74 74 72 69 66 67 84 99 100 99 65 53 37 33 35 36 30 24 22 13 14 22 25 29 33 36
83 81 82 82 83 83 82 87 94 100 100 99 99 92 87 82 79 75 75 75 75 72 67 68 98 100 100 94 62 52 38 34 36 36 31 24 21 13 19 23 29 35 40 44
74 70 65 63 64 63 67 72 75 83 97 99 99 99 93 83 80 81 80 81 82 97 92 96 99 99 100 89 62 53 40 34 37 38 31 24 17 14 21 25 34 41 46 49
43 39 37 38 39 44 50 59 67 74 79 92 99 99 99 99 97 96 97 99 98 94 99 99 99 99 98 87 63 53 41 36 37 38 31 24 15 16 23 28 39 48 53 56
23 20 25 28 29 27 26 37 55 70 78 81 82 98 100 100 100 100 100 100 99 99 99 99 99 98 96 74 62 54 43 37 38 40 30 23 14 17 23 31 44 53 58 65
15 14 16 16 16 17 17 17 23 38 60 77 82 82 85 100 100 99 99 99 98 98 98 98 98 98 96 75 65 57 46 38 39 41 29 22 14 18 24 35 49 57 64 71
14 15 15 15 16 18 19 21 23 24 28 43 69 82 83 81 93 100 99 99 100 100 99 99 98 98 96 96 81 59 49 40 41 41 29 19 15 20 26 39 53 60 67 75
13 13 14 15 16 20 24 29 31 32 33 35 42 68 82 84 80 92 100 99 99 99 99 98 98 98 98 98 81 62 52 42 42 42 29 17 15 20 27 42 54 62 70 78

GFSNGP_850_rhum_042.txt.gz
RH
58 52 70 69 64 61 76 69 78 47 42 36 36 36 40 40 52 59 63 66 71 76 81 88 95 98 100 91 96 94 95 89 95 93 91 90 84 86 88 87 92 88 94 92
84 55 56 72 64 58 60 61 61 56 50 32 28 28 36 42 54 61 65 70 75 80 85 94 98 99 99 99 100 100 96 95 97 95 91 88 86 87 89 89 94 100 99 99
83 57 61 83 68 62 57 55 56 67 48 36 39 41 42 45 58 65 68 74 78 77 76 99 100 100 99 100 99 98 93 92 93 90 96 94 95 93 84 82 91 94 93 94
92 74 95 55 46 48 53 48 49 46 42 35 40 38 44 49 63 66 71 74 77 70 76 83 83 100 99 96 92 94 96 96 95 96 97 100 100 95 92 91 91 90 92 91
76 88 62 52 58 57 57 57 43 47 44 37 37 46 57 61 67 68 72 72 68 66 72 71 89 89 99 100 99 100 99 97 95 96 96 96 94 95 92 89 90 88 89 89
74 76 79 63 49 42 44 77 50 43 46 44 49 79 82 72 70 73 73 74 65 70 65 72 86 90 83 87 91 95 98 97 94 92 91 88 88 87 88 87 86 88 87 88
80 78 63 46 49 49 84 79 53 44 45 53 68 69 69 70 76 76 74 73 70 67 67 76 91 89 75 77 80 86 86 85 84 87 89 90 91 92 90 78 61 42 28 27
71 81 84 57 62 72 64 58 58 58 59 59 62 67 68 72 78 81 76 75 74 71 72 81 92 90 76 76 81 82 82 81 81 79 76 65 59 46 32 28 24 22 21 21
60 67 46 48 54 55 54 57 62 58 58 58 59 63 69 75 77 82 77 76 80 76 77 85 90 76 69 72 72 66 57 43 38 35 32 33 31 30 27 23 21 20 18 17
52 46 46 44 51 56 56 58 61 62 61 64 68 67 72 72 78 82 81 78 80 82 82 83 79 72 65 59 54 46 37 30 29 30 30 30 27 23 20 19 19 18 16 15
60 52 52 49 46 55 60 61 62 63 63 62 62 63 65 69 71 76 81 79 79 81 82 82 78 71 65 58 46 39 30 28 28 28 27 25 22 19 18 18 17 16 15 12
68 46 47 44 46 57 63 68 64 63 63 65 67 67 69 69 69 72 79 82 81 83 83 83 82 74 66 57 49 40 30 27 28 27 26 23 20 18 17 17 17 16 12 11
49 53 55 57 59 64 70 72 67 67 70 68 61 65 71 72 74 75 80 84 83 79 79 81 83 77 73 62 51 43 33 26 27 28 27 24 21 18 17 17 16 13 11 12
58 61 70 69 69 67 66 69 68 61 58 58 57 58 70 73 76 80 82 78 82 85 82 82 84 82 73 67 56 47 37 28 28 28 28 25 21 19 19 18 16 12 11 16
69 69 67 70 71 69 68 65 64 68 72 71 70 68 74 76 72 75 82 85 84 88 88 86 86 87 78 68 60 51 41 30 28 28 29 27 22 20 19 18 14 11 14 22
71 74 73 72 72 72 75 82 84 84 85 83 82 77 76 77 73 74 77 82 82 83 88 89 89 90 86 74 64 56 45 34 28 28 30 29 23 20 19 18 11 12 19 24
74 72 65 66 80 87 88 88 88 87 86 88 90 87 84 78 75 75 76 80 80 82 86 90 90 92 92 76 89 94 52 40 29 29 30 30 24 21 20 16 11 16 22 25
66 72 84 89 94 96 99 98 94 95 96 92 89 96 90 86 80 77 75 76 78 79 79 84 92 96 93 77 97 99 67 46 32 30 30 31 26 22 20 13 12 20 22 25
82 87 93 97 100 100 99 99 99 100 100 100 90 94 94 91 87 83 79 75 74 76 76 80 89 93 88 81 100 100 74 50 34 31 31 32 27 22 21 12 15 21 24 27
85 91 90 88 89 84 84 86 88 97 99 99 99 97 93 95 93 90 84 79 76 75 72 75 80 87 84 97 100 100 97 54 37 32 32 34 29 22 20 12 18 22 27 32
88 87 83 78 71 67 68 70 73 80 95 100 99 99 96 89 85 85 84 80 78 84 81 79 92 98 78 99 99 100 91 54 39 33 34 35 30 23 17 13 18 22 30 36
82 73 59 46 40 45 50 56 62 67 74 84 98 100 100 100 94 86 82 88 94 86 81 94 97 95 91 99 99 99 77 54 41 35 35 36 32 24 16 14 19 24 34 41
43 36 30 25 27 29 28 33 41 51 62 72 78 86 100 100 100 99 97 96 98 99 99 98 99 99 99 99 99 98 82 54 43 35 36 38 32 24 15 15 20 27 38 47
58 59 81 17 17 17 17 17 17 25 39 59 74 79 81 87 99 100 100 100 100 100 98 98 98 98 98 98 98 98 74 54 46 37 36 39 33 24 14 16 21 31 45 54
57 17 12 14 16 17 17 17 18 19 25 32 46 67 79 82 81 93 100 100 99 99 97 99 98 98 98 98 98 98 86 56 49 39 38 40 33 24 14 16 23 33 49 59
18 14 13 13 14 15 17 20 26 29 29 29 36 44 62 78 83 81 97 99 98 99 99 100 99 97 97 98 99 97 92 69 52 42 40 40 35 23 14 18 24 36 52 61
18 14 14 14 15 16 18 22 28 34 36 36 36 41 45 59 75 82 83 98 98 97 99 100 100 100 98 98 98 98 97 95 69 46 56 51 35 20 15 20 25 38 53 63

GFSNGP_850_rhum_045.txt.gz
RH
61 65 72 71 71 69 96 70 81 59 47 40 38 40 38 44 56 59 62 64 66 71 75 79 84 88 98 100 98 98 92 90 86 86 93 91 88 87 87 87 83 87 85 80
80 61 67 73 70 68 67 62 66 65 65 38 32 33 46 52 57 60 63 65 69 74 77 79 84 98 100 100 100 98 92 93 96 95 92 88 86 87 88 91 96 96 93 91
88 64 66 79 73 66 63 61 59 71 51 40 39 39 47 53 55 58 63 66 71 73 72 79 85 89 99 99 100 99 99 96 91 91 91 87 84 85 88 95 96 89 86 82
93 78 94 52 50 56 56 54 56 54 51 43 41 40 42 44 48 60 65 69 72 68 67 72 77 97 100 98 99 98 94 93 94 93 89 87 98 96 96 96 90 86 83 84
87 82 66 58 59 58 65 63 52 52 50 41 44 47 57 49 51 60 64 69 69 66 66 69 71 85 98 100 100 96 91 88 88 88 89 93 96 96 92 86 83 82 82 85
85 80 90 63 48 45 49 82 51 46 49 48 53 64 65 65 65 67 70 71 65 65 67 64 65 71 77 99 100 85 83 79 81 89 91 88 88 85 83 82 80 74 64 55
87 87 69 48 51 49 84 70 55 47 45 44 63 55 60 70 71 72 73 70 66 68 68 64 70 67 72 84 96 92 78 74 82 88 85 85 84 80 59 33 24 22 21 21
84 83 87 56 61 73 64 60 59 54 50 55 56 62 65 70 73 75 74 73 69 67 68 67 67 65 71 78 86 86 79 81 82 78 67 56 41 29 25 21 19 18 20 19
72 71 48 58 56 56 57 59 59 56 59 58 58 58 62 67 72 75 75 73 72 71 71 71 71 64 66 74 72 71 64 50 45 39 32 28 26 23 20 18 17 18 18 17
56 49 50 43 50 56 56 58 61 57 58 60 63 68 64 67 76 73 77 77 74 75 73 68 67 62 52 52 58 49 37 32 29 29 27 26 24 21 19 18 17 16 15 13
65 57 53 50 51 53 56 57 60 62 62 63 64 66 69 72 74 76 72 78 78 74 73 70 67 60 52 49 50 40 32 28 28 28 28 26 22 20 18 17 17 16 14 11
73 51 49 45 43 51 56 61 64 65 65 64 66 66 68 67 67 70 77 76 80 78 77 76 74 69 60 54 47 40 32 27 27 27 27 25 21 20 18 18 18 16 13 10
51 50 48 48 50 57 61 67 68 64 64 66 68 65 63 69 72 73 73 76 79 79 76 79 80 78 71 66 54 45 37 28 26 27 27 26 23 20 19 18 17 16 11 10
60 54 71 69 69 71 69 70 68 67 62 60 60 60 59 61 72 76 76 73 77 82 85 81 82 83 78 72 67 53 44 35 28 27 28 28 25 21 19 18 18 16 11 11
72 62 60 66 70 70 68 68 66 67 69 71 72 71 71 69 74 76 77 80 83 86 89 90 86 86 87 81 74 65 52 42 31 28 28 28 28 22 20 19 18 14 10 15
82 68 70 72 71 72 72 72 75 80 83 82 84 84 79 76 76 78 76 79 84 83 86 90 91 88 91 89 81 73 65 52 40 30 29 29 29 24 21 19 19 12 12 17
86 78 76 75 75 79 83 87 88 88 88 88 88 88 89 83 81 78 76 75 76 77 82 86 87 92 95 97 95 80 68 86 55 34 30 30 31 27 22 20 19 11 14 18
76 73 78 82 90 94 99 99 95 92 90 95 95 88 89 93 87 85 80 78 77 78 81 82 85 93 97 97 96 79 73 98 94 42 31 31 32 30 24 20 18 11 16 20
90 94 98 95 95 98 98 97 97 99 99 100 100 94 92 92 91 89 85 81 78 76 79 83 80 88 94 97 98 91 90 100 97 52 35 32 32 32 26 21 17 12 18 22
99 95 92 90 86 81 79 78 81 85 92 98 99 99 95 92 90 92 91 88 85 82 76 78 80 83 96 99 100 99 100 100 98 90 40 33 33 33 28 22 16 13 19 25
100 99 88 76 67 60 53 53 57 62 69 82 99 99 99 95 92 86 84 85 88 87 86 86 82 89 99 100 98 99 99 99 99 97 43 34 35 35 30 24 16 14 20 28
98 99 90 47 42 40 37 38 42 50 56 65 74 83 97 100 100 99 95 91 86 91 100 99 98 95 95 98 99 99 98 99 99 86 45 36 35 36 31 25 15 15 21 31
62 58 44 34 27 21 18 18 20 29 37 47 58 71 78 84 98 99 99 100 100 100 99 100 100 98 99 99 98 98 98 98 98 96 46 37 36 37 32 25 15 16 22 32
80 67 85 84 45 17 15 15 16 19 24 30 39 51 63 71 80 92 99 99 99 99 99 100 100 99 98 98 98 98 98 98 98 96 71 40 38 39 33 25 15 17 22 32
99 91 56 17 15 12 13 15 18 22 24 26 28 36 51 62 72 78 82 98 99 97 98 100 99 98 98 97 98 98 98 98 98 86 49 41 40 41 38 28 16 17 21 31
49 23 17 14 13 14 14 16 21 24 27 30 34 35 38 44 57 75 81 89 99 97 98 98 98 97 94 97 98 97 97 97 96 94 80 45 41 56 94 51 16 18 22 30
69 28 16 14 14 16 17 19 23 29 33 34 36 38 38 41 46 55 76 82 89 98 97 98 98 98 99 98 99 99 98 99 98 97 94 47 52 89 53 26 16 21 23 31

GFSNGP_850_rhum_048.txt.gz
RH
64 65 72 74 81 83 93 73 81 59 59 40 40 40 39 40 46 57 62 65 64 65 67 71 75 79 82 88 100 96 92 88 87 88 89 92 91 86 84 85 82 80 78 75
79 60 69 74 72 81 77 78 77 64 67 47 33 35 38 40 53 60 61 63 65 67 70 73 74 79 87 99 99 100 100 100 100 99 96 94 88 87 89 89 88 83 82 82
85 71 66 76 72 71 71 68 75 77 54 43 43 39 40 42 56 56 58 60 63 66 70 68 70 76 91 98 99 99 100 98 99 100 94 89 89 89 88 86 83 82 80 80
93 75 91 54 50 57 58 56 58 58 53 46 42 36 36 41 48 54 57 60 65 67 65 63 64 71 95 98 100 100 100 100 98 96 95 93 92 88 86 84 82 80 77 76
93 96 67 51 60 64 67 62 52 59 56 48 41 45 52 48 49 47 50 60 66 64 62 61 61 70 94 97 100 97 98 98 97 96 96 93 90 88 83 80 78 77 75 75
88 77 93 54 53 49 54 81 56 51 56 52 57 65 62 48 51 56 64 65 65 60 62 63 62 71 94 95 94 78 84 94 93 93 93 90 84 80 79 79 62 40 27 20
88 94 76 52 47 50 77 66 60 52 51 50 64 51 40 49 62 66 66 68 66 63 63 63 63 72 77 76 80 66 74 80 82 85 85 85 81 74 45 26 22 20 18 17
88 94 84 48 60 68 61 61 61 57 50 48 45 50 55 65 68 70 71 71 66 65 65 65 65 69 68 69 67 64 71 74 83 86 82 70 42 26 22 20 19 17 16 15
76 74 45 45 56 51 57 59 58 57 55 45 54 62 61 61 66 70 73 73 69 67 67 66 64 65 64 64 59 56 63 65 60 56 41 26 24 23 21 19 17 17 16 15
63 53 55 44 51 54 56 57 56 56 58 58 56 61 68 75 78 79 75 76 75 73 74 70 68 62 60 49 46 42 36 31 33 32 26 25 24 22 20 18 17 16 15 13
69 59 55 51 46 48 57 57 58 61 59 61 64 68 73 78 81 82 84 82 79 78 77 74 70 62 49 44 37 35 28 26 25 26 27 26 24 21 18 18 17 16 15 12
70 52 50 42 40 44 56 56 59 61 63 65 65 65 66 66 69 74 79 87 85 79 80 78 77 70 59 51 41 37 31 25 24 25 26 26 24 20 18 17 18 16 16 11
81 63 59 61 43 44 56 60 64 66 65 64 65 66 66 66 68 71 72 74 76 81 84 80 79 78 73 63 57 50 40 31 26 26 26 26 25 23 21 20 18 17 16 10
65 82 78 68 57 55 63 67 70 69 67 66 63 61 61 61 60 62 69 73 75 76 79 82 84 82 81 78 70 62 50 41 33 27 27 28 27 26 23 20 19 18 17 11
54 86 91 68 72 70 72 72 70 67 66 68 70 70 71 69 67 66 70 76 78 82 83 85 86 85 86 87 82 73 66 52 43 34 29 30 29 29 25 22 20 19 17 11
56 100 96 78 77 74 71 70 70 71 74 77 79 81 81 82 77 71 74 79 77 76 80 86 87 87 90 90 90 86 78 68 57 45 34 30 30 30 28 24 21 19 17 11
99 99 95 88 79 77 77 78 82 84 85 85 87 89 87 87 87 79 77 79 77 78 81 87 88 94 95 96 93 96 91 86 98 80 54 34 32 32 31 26 22 20 17 12
100 100 98 87 83 84 93 96 93 90 89 89 91 96 89 89 92 90 84 82 78 78 77 79 85 89 91 97 98 98 100 100 85 91 97 77 34 33 32 29 24 21 17 13
100 100 100 99 99 100 99 97 94 94 95 96 92 98 96 94 94 92 90 87 83 80 77 78 81 83 82 88 98 100 100 100 98 88 98 90 42 35 34 32 27 22 17 13
100 100 100 98 92 88 84 80 76 76 79 83 97 96 93 94 92 88 91 92 90 87 83 85 82 88 92 89 99 100 100 99 97 97 99 97 90 48 36 34 29 24 17 14
99 99 99 87 74 62 54 48 45 50 53 58 66 76 97 91 92 91 89 86 84 86 89 87 84 85 81 85 91 100 99 99 99 98 98 98 97 46 38 35 32 25 17 14
98 98 98 89 58 47 37 25 26 34 39 46 55 64 72 84 97 95 97 98 97 95 89 90 98 100 99 98 97 99 99 99 98 98 98 98 96 87 38 36 33 26 16 14
96 97 96 54 27 20 18 18 19 25 30 32 36 41 51 64 71 78 93 100 100 100 97 96 95 98 98 98 98 98 98 98 98 98 97 98 96 43 39 38 34 27 16 14
98 98 98 98 96 45 23 22 23 26 27 29 30 30 33 42 62 70 80 83 93 96 96 96 97 99 97 96 97 97 98 98 97 97 98 98 65 42 39 39 34 26 16 14
98 96 89 86 34 17 17 18 21 27 32 33 35 39 39 36 37 48 64 76 89 93 94 95 96 99 99 96 97 97 97 97 97 97 97 97 95 53 42 40 35 44 60 51
100 76 28 23 18 16 18 18 21 24 29 33 35 35 37 38 39 43 54 72 82 93 96 96 97 98 98 99 99 98 98 98 97 96 97 97 93 59 42 45 86 89 30 16
99 99 89 45 19 18 18 19 20 24 28 30 33 36 36 38 40 41 44 56 78 84 94 96 97 98 98 99 99 99 97 97 98 99 99 98 95 62 43 59 77 42 20 23

GFSNGP_850_rhum_051.txt.gz
RH
69 64 79 86 89 81 98 93 87 64 66 51 38 39 36 37 41 50 55 58 57 58 63 65 67 71 73 75 81 98 98 94 90 89 87 91 94 91 88 88 85 83 84 81
82 61 77 78 77 86 79 79 82 75 76 48 39 33 36 32 40 54 55 52 56 62 65 65 68 72 73 79 98 99 99 100 100 100 99 94 94 93 90 90 88 90 89 83
83 78 66 77 70 72 79 79 78 88 65 49 50 45 39 36 46 45 47 49 57 60 63 66 69 68 72 82 98 100 99 100 100 100 100 100 95 94 92 92 88 85 80 76
92 76 87 54 49 58 65 56 71 74 62 52 46 38 34 33 36 37 44 52 58 60 64 67 63 63 70 83 97 100 100 100 100 100 100 100 98 99 91 86 83 79 73 72
92 97 69 46 62 65 66 61 56 60 59 54 45 43 42 37 36 33 41 51 55 60 66 63 60 62 69 85 93 99 99 100 100 100 100 100 100 90 85 80 75 74 64 39
92 77 92 53 58 52 53 82 56 58 56 64 54 66 59 39 43 50 54 53 57 64 66 60 60 63 68 80 88 92 92 90 98 100 100 99 89 81 77 76 57 26 17 16
86 95 83 55 48 50 78 61 65 63 58 57 65 50 41 43 47 48 49 55 64 67 60 60 61 62 63 69 74 74 74 85 91 92 92 84 80 77 52 25 19 17 15 14
89 95 90 46 59 67 58 61 62 59 56 55 52 46 43 48 50 55 62 66 69 67 62 62 62 61 63 62 69 71 72 78 77 74 76 79 67 32 22 18 18 17 15 12
81 76 48 42 55 50 56 61 60 60 54 51 51 52 52 59 66 66 68 71 72 66 65 65 63 60 61 63 66 72 70 72 71 70 65 43 24 24 19 18 17 14 15 13
67 55 58 44 40 42 54 58 60 56 58 51 51 61 63 63 66 68 70 70 75 72 69 69 68 64 61 66 64 64 62 57 49 43 32 24 22 21 19 18 15 15 15 14
74 61 52 46 48 44 44 54 58 59 58 61 61 64 71 76 75 80 84 87 85 79 78 73 74 72 65 61 61 51 48 39 33 29 27 26 24 22 20 17 16 15 15 15
78 84 87 68 58 59 54 50 57 60 62 64 66 66 68 71 74 79 83 89 89 87 88 90 84 78 71 57 55 51 42 33 28 26 26 26 26 23 19 17 16 17 16 16
75 50 56 49 56 58 57 58 60 63 66 66 66 66 67 68 70 72 74 76 77 78 86 93 85 79 78 70 57 50 44 34 29 26 26 26 25 24 21 20 19 18 17 17
46 50 51 40 72 69 75 68 65 67 67 66 65 65 64 63 63 64 66 69 76 79 80 81 86 88 86 83 78 65 56 46 38 30 27 28 27 26 27 24 22 20 19 18
62 69 79 67 50 84 78 78 73 71 69 67 66 66 66 67 67 68 68 68 71 78 82 85 85 84 89 92 91 89 78 65 51 42 35 30 30 30 29 29 25 22 20 19
94 99 90 100 95 94 85 79 76 72 72 73 74 78 78 78 77 77 79 73 72 75 80 83 83 84 88 90 91 93 92 85 75 61 49 40 32 31 31 30 29 24 21 20
100 98 99 98 100 99 96 80 79 80 82 83 83 85 90 88 84 86 88 84 77 79 80 82 85 92 93 93 94 94 97 98 93 98 64 61 49 36 33 33 31 28 24 22
100 99 100 100 100 100 97 98 95 90 88 88 87 89 92 91 90 90 93 91 85 81 79 78 80 84 90 95 97 98 98 99 100 100 100 100 98 77 46 35 34 31 27 23
100 100 100 100 100 100 100 100 100 97 94 92 92 92 92 92 92 89 91 90 89 85 82 80 79 81 85 88 90 93 99 100 100 100 100 100 98 97 83 40 36 34 30 24
100 100 100 100 100 100 93 87 83 79 76 75 77 86 94 91 91 92 87 86 90 91 89 84 82 81 82 89 93 90 94 100 100 100 100 99 98 98 98 95 56 36 32 26
98 99 98 99 96 80 57 53 46 48 48 50 54 59 65 73 87 90 90 94 89 86 84 85 88 86 84 86 86 92 97 100 100 99 99 98 98 97 98 98 80 42 40 29
98 98 98 98 85 53 40 22 26 36 36 37 39 44 48 56 66 84 93 90 93 95 97 94 90 89 94 100 100 96 91 98 99 99 99 98 97 98 98 98 96 90 39 30
95 98 98 97 95 32 25 24 24 25 23 24 26 28 29 34 42 54 66 88 93 88 90 95 96 96 97 98 100 99 98 98 98 98 98 98 98 98 98 98 79 42 38 31
85 97 98 97 98 96 62 25 22 23 25 28 28 28 29 34 41 47 57 63 73 84 88 87 94 96 99 99 100 99 99 98 97 97 97 97 97 98 98 88 42 40 39 32
99 98 92 78 91 74 42 21 21 25 29 32 33 35 33 32 35 41 45 53 66 78 93 95 95 94 96 98 99 99 100 99 98 97 97 97 97 97 97 85 66 43 40 33
100 98 98 70 27 21 20 22 23 25 27 32 34 34 35 38 42 42 43 42 53 71 88 95 96 95 94 94 96 98 98 98 98 96 97 98 98 98 99 92 75 55 48 88
98 98 98 98 80 30 20 20 21 23 26 30 33 37 37 39 41 41 40 41 43 52 69 85 94 96 96 94 94 95 96 98 98 98 98 97 97 99 98 94 50 44 55 66

GFSNGP_850_rhum_054.txt.gz
RH
69 62 84 89 87 87 96 82 88 62 64 53 46 42 34 31 42 48 52 55 55 56 58 62 63 66 69 71 73 74 82 95 96 94 92 90 93 95 95 92 89 85 82 80
82 68 83 85 83 89 83 81 84 81 84 59 47 43 38 32 40 45 44 46 49 54 58 59 65 68 72 73 74 82 98 99 100 100 100 100 98 99 98 94 92 90 89 83
81 76 71 84 76 80 81 82 73 85 63 58 59 57 47 39 35 40 39 41 44 47 51 60 64 67 71 69 73 88 100 99 99 100 99 100 100 100 100 98 98 94 87 81
88 76 74 46 47 58 68 63 73 76 67 66 58 51 48 42 37 35 37 38 45 47 55 61 63 67 65 65 75 93 100 100 100 100 99 100 100 100 100 99 94 88 80 78
90 95 67 44 62 65 66 62 57 63 60 59 62 53 49 41 39 32 31 35 44 49 58 61 64 65 62 68 82 96 100 100 100 99 99 99 100 100 97 89 84 77 72 39
92 86 85 49 58 55 54 78 54 64 68 66 61 79 59 46 41 36 34 38 45 54 58 61 65 60 62 68 80 91 99 100 100 100 100 100 99 92 83 78 74 42 17 14
89 89 82 59 52 51 76 58 60 66 66 64 74 59 49 45 40 43 48 49 55 57 59 65 61 60 62 66 71 84 90 94 98 100 100 96 82 76 76 49 21 15 14 13
91 93 92 48 58 67 55 58 62 62 63 63 58 54 49 46 54 55 54 52 55 61 66 64 61 61 61 64 67 71 75 79 89 96 92 84 79 70 28 20 17 16 14 13
81 77 50 45 55 46 51 55 57 62 60 54 56 56 58 58 58 58 62 64 67 70 69 64 68 62 62 66 68 69 72 73 78 81 78 78 66 26 19 17 16 15 14 14
69 56 58 52 53 58 62 63 62 61 57 54 52 55 58 63 64 64 64 65 70 72 69 66 66 66 66 69 70 68 69 68 68 74 74 56 28 22 20 18 17 16 15 15
80 64 67 56 65 63 55 57 64 67 61 60 59 60 67 74 74 74 78 81 82 84 77 72 75 72 72 67 69 69 67 65 62 60 56 35 27 24 22 20 18 18 16 16
90 96 74 61 47 43 46 60 68 67 67 61 62 65 71 77 79 79 82 85 87 90 93 91 94 89 82 75 62 62 63 58 51 45 37 32 29 26 23 21 19 17 17 17
54 62 65 59 52 42 54 51 61 70 71 67 67 68 68 67 68 70 73 75 77 81 93 97 99 92 93 86 76 59 55 50 43 38 36 29 27 25 24 23 20 19 19 18
89 90 70 67 72 70 46 37 66 73 78 74 70 67 66 66 66 65 66 67 70 75 82 84 87 88 96 95 88 80 64 54 48 40 33 28 28 27 28 26 25 24 24 21
96 95 98 99 89 83 92 72 87 82 79 75 72 68 66 65 66 68 69 69 68 68 70 78 83 83 88 93 96 95 86 75 64 51 42 36 31 30 30 28 28 28 27 23
98 99 99 100 100 99 98 99 99 93 80 77 76 76 76 76 76 74 75 78 78 73 73 78 83 84 90 92 93 95 96 97 98 85 68 56 45 36 32 31 31 31 31 26
100 97 98 98 99 99 99 100 100 100 95 85 84 83 85 88 90 86 85 88 88 83 77 79 82 88 91 93 94 94 94 95 99 100 98 99 78 59 45 38 34 34 33 31
100 100 100 100 99 99 100 100 100 100 100 95 92 91 90 89 91 89 89 89 92 89 83 82 82 85 89 93 94 95 96 97 100 99 100 100 100 100 98 98 58 41 36 33
99 100 99 99 100 99 99 100 99 99 100 99 96 96 92 89 90 94 87 88 91 89 87 85 82 82 83 86 92 95 96 98 98 99 100 100 100 100 100 99 99 97 65 42
95 96 97 97 99 100 98 92 78 76 68 66 67 70 76 88 88 88 92 90 85 84 88 89 88 84 82 84 88 91 92 93 95 99 100 100 100 100 99 99 99 98 96 93
93 97 97 98 98 98 68 42 40 45 46 47 49 51 55 61 68 76 86 96 95 92 93 92 86 85 87 87 86 85 88 96 100 100 100 99 99 99 99 99 98 98 98 96
97 95 98 97 98 94 71 75 49 28 36 36 36 37 40 44 49 57 67 82 89 88 96 99 96 93 91 91 92 94 99 100 100 99 98 99 98 98 98 98 98 98 97 97
98 96 97 98 98 97 45 30 26 27 29 30 32 31 32 31 31 36 46 56 62 72 86 87 89 94 90 92 97 96 96 97 98 98 98 97 97 97 97 97 98 97 97 92
98 99 97 98 97 97 97 82 47 29 32 34 32 32 33 38 39 37 35 39 46 59 73 89 88 88 89 92 96 96 96 96 96 97 97 97 97 97 97 97 97 97 96 80
99 97 97 97 97 96 97 90 52 76 26 31 33 35 36 38 41 41 38 37 43 54 64 84 94 94 91 90 93 97 99 98 97 97 97 97 97 97 97 97 97 97 83 87
79 88 96 97 98 96 68 69 69 27 24 29 34 39 39 38 39 41 40 39 40 42 49 69 89 94 95 95 93 94 97 99 99 97 96 97 98 97 97 97 97 97 92 65
56 68 82 95 98 98 86 31 23 22 23 28 32 36 37 38 39 39 38 38 38 39 42 47 58 76 91 96 98 97 98 100 100 100 100 99 98 98 98 97 97 97 96 78

GFSNGP_850_rhum_057.txt.gz
RH
67 68 86 85 86 81 83 72 85 62 66 53 50 50 45 40 33 40 45 51 53 53 57 61 62 61 64 66 68 70 68 70 76 88 91 92 92 92 91 92 91 88 83 79
81 69 78 85 82 88 78 71 73 71 75 54 56 55 57 52 42 38 45 42 44 49 54 57 59 61 65 68 69 70 68 78 99 100 100 98 96 96 100 100 96 91 89 84
79 77 68 68 69 78 84 83 78 87 65 54 58 60 58 52 51 45 36 42 47 47 49 53 56 61 66 69 72 69 74 91 100 99 100 100 100 100 100 100 100 97 91 83
83 70 85 51 49 59 72 67 71 73 64 59 60 58 58 55 52 49 46 37 41 44 48 54 60 64 67 68 67 68 78 98 100 99 99 99 100 99 100 100 100 96 86 79
90 91 67 49 63 66 66 62 58 62 57 57 57 61 56 51 51 47 39 34 35 40 45 52 60 63 66 68 63 71 81 99 99 99 99 99 100 100 99 100 99 89 81 60
93 90 79 44 58 56 54 76 52 62 69 74 68 76 59 50 50 49 43 37 35 39 48 52 63 64 68 63 64 72 85 100 99 99 100 99 100 100 100 99 87 76 38 15
88 91 74 56 53 54 72 58 56 67 70 74 73 62 56 54 52 47 44 42 39 48 49 60 64 66 64 62 63 77 90 99 99 100 99 99 100 100 96 86 63 23 14 13
90 95 89 50 57 66 67 65 68 70 70 71 65 54 57 55 56 57 54 56 57 61 65 64 66 66 61 62 69 76 83 96 100 100 99 100 100 89 85 53 22 16 15 15
81 76 52 55 57 70 66 52 58 76 66 72 67 53 53 57 59 60 60 60 62 64 66 70 69 63 64 65 68 73 77 86 95 99 100 99 87 82 35 24 21 18 16 15
70 59 74 73 69 56 47 48 47 54 69 72 71 59 54 58 64 66 66 67 69 70 71 71 67 68 73 68 68 72 73 77 85 91 90 82 80 45 25 20 17 17 16 15
83 80 56 65 48 52 47 45 44 45 47 66 74 68 61 70 69 70 72 74 77 78 78 75 71 72 73 69 67 68 69 72 73 74 73 72 51 27 22 22 19 18 17 16
92 68 78 67 72 74 60 53 61 60 42 47 74 72 68 73 78 78 79 80 85 88 90 93 92 89 90 88 82 68 67 63 64 66 62 56 36 26 24 23 20 19 18 16
80 91 97 92 77 76 72 88 80 77 44 49 73 78 75 73 75 76 74 77 79 81 88 96 99 100 100 99 95 92 74 62 57 53 49 40 31 26 25 25 24 21 19 19
98 100 96 95 98 100 100 98 92 86 57 70 81 80 79 77 73 71 69 69 70 73 77 82 86 93 100 100 99 96 93 72 61 48 39 34 31 29 28 28 28 25 23 23
100 100 100 99 100 99 100 100 99 96 92 92 84 81 77 74 70 69 70 70 70 69 69 72 74 77 89 94 98 100 98 92 75 61 51 44 39 33 30 31 30 28 30 29
98 98 99 100 98 100 100 98 100 95 100 100 95 87 83 79 78 77 77 77 78 78 78 76 74 75 88 94 96 98 98 100 99 92 83 85 68 53 40 33 33 33 31 32
100 99 99 100 100 97 99 99 100 99 100 100 99 100 95 91 88 88 89 87 87 89 89 85 79 81 86 91 93 94 96 98 100 100 100 100 98 99 99 92 83 51 37 37
98 100 100 100 100 97 98 99 100 99 99 100 100 100 100 93 89 90 90 91 91 92 93 88 83 84 88 92 95 96 98 99 100 99 100 100 100 100 100 100 100 99 98 97
81 88 89 98 99 97 99 98 98 98 98 99 99 99 99 100 94 92 93 88 86 93 92 89 86 84 85 87 91 98 100 100 100 100 100 100 100 100 100 100 100 100 99 98
46 92 87 89 98 97 96 91 62 72 77 78 82 87 82 78 82 88 93 95 92 84 86 85 87 87 86 84 86 89 93 95 97 97 97 100 100 100 100 100 100 99 99 98
41 80 93 89 91 96 94 96 62 51 56 55 60 54 53 53 55 63 77 89 98 100 97 94 97 92 86 86 87 87 87 86 88 91 98 99 99 99 98 99 98 99 98 98
57 72 100 94 90 94 96 94 94 70 47 49 42 40 43 43 39 44 56 68 75 87 86 90 96 98 98 97 95 95 94 97 99 99 99 99 98 98 98 98 98 98 98 98
55 85 100 100 97 95 97 96 81 47 36 34 35 52 38 35 36 40 44 49 50 54 64 80 93 92 91 91 92 93 97 98 98 98 98 98 98 97 97 97 97 97 97 97
56 96 97 100 100 96 97 96 96 97 84 53 39 39 39 39 40 39 39 40 42 46 53 65 82 91 92 90 89 91 96 97 97 97 97 97 97 98 97 97 97 97 97 97
58 60 78 92 100 100 99 97 94 96 92 95 68 38 39 40 39 39 40 41 40 41 44 54 79 91 89 90 91 92 94 98 99 97 97 98 98 98 97 96 96 97 97 96
60 64 61 69 92 100 99 99 96 95 89 40 33 36 38 38 36 38 40 40 40 39 40 41 44 56 75 78 90 93 95 95 95 96 96 98 99 98 97 96 96 95 95 97
37 47 66 65 70 85 99 99 98 94 70 89 68 36 35 36 35 35 36 38 39 37 37 36 37 41 48 59 80 95 98 97 96 97 97 96 97 98 99 98 94 94 95 96

GFSNGP_850_rhum_060.txt.gz
RH
56 64 71 70 62 59 76 61 70 52 48 38 35 37 41 42 44 43 44 59 68 56 66 63 60 58 58 59 59 62 63 65 66 64 70 79 86 92 93 91 90 90 88 85
77 61 64 70 61 61 60 57 55 53 56 41 43 43 43 42 41 44 46 49 61 70 60 55 54 55 57 59 62 66 67 69 65 72 85 96 99 97 100 100 99 96 92 87
75 62 59 64 54 54 56 58 56 63 48 39 44 44 47 48 48 47 48 47 51 50 47 48 52 55 58 61 65 68 70 68 70 81 98 99 100 98 99 99 100 100 96 91
76 63 68 45 41 46 49 46 46 51 48 44 48 53 55 53 54 54 48 49 49 46 41 45 53 56 60 64 68 69 71 69 75 92 98 99 99 99 99 99 99 100 99 87
74 64 48 54 56 52 53 56 48 52 52 56 59 64 46 50 54 57 56 50 47 46 46 44 49 57 59 64 68 72 67 73 84 100 99 99 99 99 99 100 100 100 92 82
66 72 59 46 49 53 49 60 55 58 55 62 67 64 45 56 56 52 57 51 47 42 42 44 50 57 62 66 68 70 68 76 88 100 99 98 98 99 100 100 100 98 88 52
66 68 50 42 49 53 66 65 61 66 70 69 67 67 69 58 57 55 53 49 45 44 45 50 53 60 65 65 68 67 72 81 92 100 99 100 100 100 100 99 100 94 62 20
66 71 72 54 57 59 65 55 56 54 62 73 76 78 75 58 60 60 58 56 54 52 55 58 62 67 66 67 66 69 74 81 90 99 100 100 100 99 100 99 96 58 24 18
62 57 59 58 61 73 57 53 50 51 54 71 66 73 79 66 63 60 60 63 65 65 65 67 68 68 70 66 66 68 72 73 80 97 100 100 100 100 97 90 55 23 18 18
65 64 59 48 73 55 62 67 68 60 68 73 62 54 78 74 63 69 67 67 68 67 68 69 71 72 69 70 70 73 72 71 76 93 100 100 99 94 85 48 25 20 21 19
55 51 52 64 55 64 76 78 70 70 84 81 73 41 58 76 69 73 74 72 74 76 77 76 73 70 71 74 73 73 73 71 73 82 95 98 91 83 60 26 20 19 19 19
60 60 70 69 79 89 89 85 85 96 95 86 85 44 52 75 73 76 78 77 77 81 84 88 89 89 88 81 78 83 77 76 75 78 80 84 80 71 35 25 24 22 21 19
81 86 95 98 99 98 93 98 98 100 100 98 81 65 64 81 76 75 82 86 84 86 91 94 96 99 99 98 98 97 92 90 83 74 71 70 71 58 32 28 26 24 23 21
100 99 99 100 100 99 99 99 98 99 100 100 94 82 87 89 83 80 78 79 79 79 80 83 87 90 98 100 100 100 100 100 99 87 68 62 55 45 35 29 29 28 26 25
98 99 98 99 100 100 100 100 98 96 97 100 100 97 93 90 84 79 75 71 71 71 69 71 75 78 88 97 100 100 100 100 100 100 85 61 54 46 41 37 32 29 29 28
100 100 99 99 98 99 100 96 100 99 99 89 100 99 98 98 95 84 81 79 79 78 79 79 78 77 83 89 96 100 100 100 100 100 98 91 83 72 52 47 40 32 30 41
100 100 100 100 100 98 100 100 100 100 100 100 99 100 100 100 100 98 90 90 91 87 88 90 88 84 82 85 92 97 100 100 100 100 100 100 96 92 95 99 99 94 89 88
71 95 100 99 100 100 98 96 97 99 96 98 97 99 99 100 99 100 95 91 92 93 93 94 92 87 85 89 94 98 100 100 100 99 100 100 100 100 100 100 100 100 100 100
62 76 68 96 98 100 100 100 95 82 88 92 95 98 97 98 99 99 100 96 89 92 94 93 90 88 87 89 94 99 100 100 100 100 100 100 100 100 100 100 100 100 100 99
51 51 55 74 97 96 98 100 97 53 61 68 71 84 89 89 87 84 100 100 98 94 92 90 90 90 88 87 89 93 96 100 100 100 100 100 100 100 100 100 100 99 99 100
58 57 60 75 94 97 97 97 97 97 62 49 49 53 56 54 54 65 78 95 98 100 100 100 99 99 93 88 89 88 88 91 93 94 95 96 100 100 100 99 98 99 98 98
62 58 54 87 96 95 97 98 97 92 95 47 41 43 48 50 47 51 61 72 68 70 83 84 90 92 97 98 98 96 94 92 93 93 94 96 99 100 99 99 98 98 97 98
59 60 59 75 94 95 98 97 96 97 94 63 54 56 93 96 53 44 52 54 50 53 60 70 84 92 91 92 94 94 93 94 95 95 94 91 93 96 96 96 97 99 98 97
57 58 63 64 70 84 99 98 96 96 97 97 81 52 90 72 66 45 47 48 48 48 53 64 82 92 95 97 98 98 97 95 94 94 94 94 95 96 95 95 96 98 98 98
36 36 44 65 66 68 85 100 99 96 96 96 98 90 59 68 60 44 39 45 46 43 45 48 56 78 89 92 96 100 100 100 97 98 95 95 95 94 94 95 97 97 96 97
35 33 34 37 60 74 83 95 98 97 97 96 82 87 77 45 44 41 42 44 44 41 39 39 42 48 55 69 75 89 98 97 95 94 95 96 95 95 96 96 96 95 96 98
38 39 38 34 36 44 71 89 97 97 97 97 96 83 44 38 41 39 38 38 38 39 38 38 39 38 40 44 50 62 90 96 97 97 97 95 96 95 96 97 96 96 96 97

GFSNGP_850_rhum_063.txt.gz
RH
50 56 61 59 50 47 66 59 64 44 40 33 30 32 34 36 34 36 38 40 42 60 64 68 75 76 67 62 58 57 57 60 62 64 65 64 65 69 77 83 88 87 85 85
81 54 56 63 52 50 48 48 50 46 46 32 33 34 35 36 38 40 39 38 41 48 62 65 71 66 61 60 59 60 61 64 65 65 64 64 71 80 88 95 98 95 95 93
73 52 51 55 44 45 47 45 47 53 39 34 40 43 47 49 49 46 46 46 41 44 52 63 67 72 60 58 59 59 62 66 67 69 68 74 84 95 100 99 99 99 99 99
76 57 68 44 34 38 40 40 39 39 42 46 49 54 55 51 48 50 52 52 49 43 46 52 64 70 62 57 60 62 63 68 70 71 68 79 92 98 98 99 99 100 99 100
74 56 40 52 49 46 48 63 50 52 47 49 54 55 47 55 60 56 59 60 54 46 47 52 60 70 58 56 59 60 63 66 69 67 72 86 99 99 99 99 99 100 99 100
56 64 52 50 44 45 43 62 53 54 55 60 59 55 46 64 68 60 66 69 65 60 51 55 64 72 61 56 58 60 65 65 68 66 77 95 99 99 99 100 100 100 100 98
64 63 46 46 46 47 60 69 52 51 49 52 57 58 60 67 69 67 62 66 58 55 54 58 72 64 61 63 60 63 68 69 66 67 80 99 99 99 99 99 99 99 98 85
57 70 66 53 53 56 56 49 50 48 50 49 49 58 56 56 74 70 64 60 66 62 58 57 60 66 71 69 66 68 71 67 66 71 84 99 100 99 100 100 100 100 94 61
51 55 53 48 51 59 53 55 58 60 58 53 54 58 55 54 61 75 72 67 65 69 68 66 67 70 71 72 71 72 70 67 71 78 82 96 99 99 99 100 100 98 76 29
62 55 55 44 52 55 55 64 71 68 62 63 69 68 64 59 54 79 77 70 69 69 70 70 70 72 74 73 73 70 68 69 73 81 96 100 99 99 100 100 98 84 40 17
50 39 41 43 50 56 71 80 78 76 81 89 89 84 75 68 59 73 82 74 74 74 75 76 74 74 74 71 70 76 78 80 83 80 83 95 100 100 100 94 86 54 23 19
42 52 60 58 64 82 86 87 82 94 97 98 100 100 97 88 75 78 87 77 77 81 82 79 79 81 81 83 85 90 93 80 74 82 83 92 100 100 97 90 64 31 23 20
65 76 86 88 91 91 96 100 100 99 100 99 98 100 100 97 87 85 94 91 81 82 86 89 93 95 90 91 94 95 96 89 90 99 91 90 93 94 89 81 47 26 23 22
80 88 87 89 92 99 99 98 98 100 100 100 98 98 97 98 98 96 95 100 90 87 88 84 88 88 88 92 98 100 100 100 100 100 100 97 94 81 81 71 38 25 24 24
78 84 92 98 100 100 100 99 99 99 98 98 99 98 99 100 100 97 93 90 87 85 83 80 74 77 86 87 91 99 100 100 100 100 100 100 90 94 78 70 47 32 31 33
68 73 78 88 95 99 100 99 100 100 99 99 100 100 100 98 99 99 100 99 95 91 90 79 80 82 80 92 85 93 100 100 100 100 100 100 100 100 91 65 66 91 91 94
80 86 84 82 87 91 99 99 100 100 100 100 100 99 99 92 95 99 98 100 100 100 100 90 88 90 88 88 91 91 99 100 100 100 100 100 100 100 100 99 88 75 61 53
70 76 84 87 86 89 95 100 100 94 96 82 87 100 99 100 99 100 100 99 100 98 100 100 93 94 93 90 91 97 100 100 100 100 100 100 100 100 100 100 100 100 100 100
65 69 63 69 76 85 98 98 99 93 90 87 57 78 87 98 98 99 99 99 99 96 98 98 93 92 90 89 91 98 100 100 100 100 100 100 100 100 100 100 100 100 100 100
45 50 57 59 56 60 98 100 99 100 96 97 84 61 67 74 90 97 93 98 99 98 100 96 92 92 91 90 91 94 97 100 100 100 100 100 100 100 100 100 100 100 100 99
49 57 60 59 57 64 81 89 91 100 99 96 96 68 83 66 69 61 65 100 100 96 100 100 100 100 99 94 94 93 91 94 100 100 100 100 100 100 100 100 100 100 99 98
54 54 55 55 59 61 71 90 91 97 99 100 93 91 71 80 83 59 67 78 80 63 73 81 87 90 93 97 100 100 98 96 94 92 91 91 91 93 94 93 92 95 96 96
56 45 38 38 45 62 65 67 81 98 98 98 98 90 81 95 96 89 77 64 56 52 58 67 72 81 91 96 96 100 100 99 99 97 96 96 96 93 90 90 94 95 96 97
51 36 33 33 34 37 58 71 90 100 98 97 97 97 92 87 96 96 93 68 51 46 49 59 70 83 93 100 100 100 100 100 100 99 98 95 93 92 94 96 95 95 95 97
45 34 35 40 40 39 39 59 87 97 97 97 97 96 96 96 96 96 97 92 52 47 44 47 51 62 81 93 99 100 100 100 100 100 100 98 97 95 93 93 94 95 96 96
37 44 55 51 45 41 41 44 57 89 97 97 97 96 95 96 92 64 59 81 50 44 41 44 44 46 54 64 71 83 100 100 100 100 98 96 96 95 95 96 96 96 97 96
40 60 68 62 54 60 47 43 52 72 99 98 97 97 96 95 94 58 53 45 43 42 43 45 44 43 43 44 47 52 64 90 98 99 98 97 96 96 97 98 99 99 97 97

GFSNGP_850_rhum_066.txt.gz
RH
54 58 68 60 57 55 69 66 72 59 53 41 39 39 36 36 38 42 43 42 38 38 47 63 69 72 72 68 66 63 63 61 59 59 60 60 60 61 58 60 66 72 78 84
82 53 55 64 56 54 52 55 54 52 55 41 40 42 45 48 50 50 47 47 46 44 42 56 66 70 73 70 68 65 62 62 61 60 61 61 63 60 62 72 81 88 91 90
82 53 53 69 58 55 53 49 49 62 48 45 54 55 55 55 52 51 51 52 52 50 48 46 60 67 65 68 64 60 60 59 58 60 61 62 62 59 67 80 98 99 99 99
88 69 86 50 37 42 42 45 43 40 48 52 56 54 55 62 66 65 58 59 58 53 50 46 47 62 66 66 66 63 64 63 62 64 65 68 62 66 80 94 98 99 99 99
93 85 53 60 52 52 55 69 57 59 58 59 59 57 59 55 58 70 65 63 61 56 57 50 50 54 64 69 68 65 64 64 64 67 68 69 64 75 90 99 99 100 100 100
67 79 65 60 46 44 43 83 54 51 52 55 53 77 65 52 54 60 73 67 61 58 54 54 48 56 58 64 69 66 66 67 67 66 68 63 67 81 96 98 98 99 99 99
75 81 64 52 48 46 71 76 48 48 48 50 56 54 50 52 55 52 69 74 68 63 58 56 60 60 64 70 72 72 75 74 70 69 68 64 75 89 100 99 99 99 98 99
68 80 77 50 54 66 59 51 55 59 61 60 58 54 53 59 57 52 52 78 73 68 65 63 67 72 74 74 72 77 77 75 74 70 63 66 80 91 99 99 100 100 100 100
63 72 53 44 56 55 53 58 67 72 73 68 65 66 75 77 71 62 58 71 80 73 69 67 68 73 76 78 80 80 78 77 74 68 65 72 81 92 100 99 98 100 100 97
69 61 55 49 52 55 68 77 80 81 77 77 86 91 95 92 90 82 62 59 85 80 75 70 71 75 80 76 76 77 77 75 70 67 68 75 87 99 99 100 100 99 100 93
60 50 45 51 59 74 78 85 89 87 92 95 97 96 96 98 100 96 89 64 85 86 81 78 75 76 78 77 77 74 72 72 71 71 75 78 81 89 100 100 100 100 97 82
72 71 72 67 76 85 91 95 97 96 98 99 100 99 98 96 99 99 95 84 83 93 85 85 83 80 80 82 83 84 87 86 86 88 90 89 91 91 99 99 100 100 97 69
63 68 81 84 86 89 88 98 98 98 98 99 98 100 100 99 97 97 100 97 92 98 96 90 89 96 91 90 98 92 93 92 97 98 91 87 92 100 97 98 99 93 79 41
73 76 77 80 81 72 86 92 90 97 97 99 99 98 98 100 98 97 99 96 92 93 99 100 96 92 98 94 94 98 89 93 99 99 97 100 100 100 99 92 91 85 68 33
66 65 68 56 49 60 65 72 86 100 100 93 90 90 99 99 95 90 95 98 98 99 96 91 98 100 100 94 88 94 98 92 98 100 100 100 100 100 98 91 87 86 63 38
56 53 53 57 61 57 59 63 79 98 100 100 100 94 81 88 90 93 91 94 100 98 99 100 98 99 93 94 96 98 92 99 99 100 100 100 99 100 100 89 85 68 66 50
66 63 66 67 70 65 66 66 77 87 98 100 100 94 80 64 86 85 89 94 96 98 98 100 99 100 100 100 100 100 100 100 100 100 100 100 100 100 99 100 99 99 98 97
50 54 52 57 62 66 60 58 73 86 100 100 99 96 91 70 71 72 86 92 89 93 100 100 99 100 100 100 100 99 100 100 100 100 100 100 100 100 100 100 100 100 100 100
40 45 45 49 56 57 56 55 58 91 100 100 100 99 98 93 81 71 63 94 92 92 97 98 98 98 98 99 99 97 100 99 100 100 100 100 100 100 100 100 100 100 100 100
30 40 48 52 52 50 53 56 62 84 92 96 91 97 96 95 84 81 62 63 89 85 94 96 97 99 96 97 98 100 100 100 100 100 100 100 100 100 100 100 100 100 100 100
38 44 48 46 41 32 34 46 65 81 96 92 98 97 97 95 84 83 75 62 87 87 88 95 97 97 98 98 100 100 99 99 100 100 100 100 100 100 100 100 100 100 100 99
45 46 49 44 34 30 31 33 49 72 83 100 100 98 97 95 95 95 97 92 85 80 67 75 87 96 95 99 100 100 100 99 99 98 99 100 100 100 100 99 97 96 94 88
50 53 54 41 36 35 36 34 34 50 79 98 97 97 97 97 97 95 97 96 90 71 62 78 86 95 98 100 100 100 100 100 100 100 100 100 99 98 99 98 92 90 87 89
48 51 50 37 45 41 38 35 33 37 44 80 94 97 97 96 96 96 97 96 97 77 55 63 82 94 100 100 100 100 100 100 100 100 100 100 100 97 94 93 94 95 93 92
45 53 45 44 56 57 68 69 58 43 44 63 89 95 96 96 97 96 96 96 96 90 56 57 62 77 99 100 100 100 100 100 100 100 100 100 100 99 97 93 92 93 92 93
46 41 45 46 67 71 74 76 67 52 46 57 84 98 97 97 96 96 96 95 95 94 55 54 57 54 68 86 91 99 100 100 100 100 100 100 98 97 96 95 96 97 97 96
45 42 42 43 51 71 83 85 64 53 51 51 62 93 97 96 96 96 90 57 67 90 57 55 55 53 52 53 61 66 74 88 100 100 100 99 98 97 97 98 98 97 97 96

GFSNGP_850_rhum_069.txt.gz
RH
62 62 66 64 66 67 74 68 74 59 54 48 50 51 47 53 53 51 49 47 47 48 49 52 46 48 56 61 70 73 72 69 66 63 60 58 58 59 59 60 60 56 61 69
83 56 58 65 61 59 62 62 64 59 61 44 51 54 58 58 53 54 54 50 49 47 49 53 64 49 59 62 64 69 68 67 65 62 61 60 61 61 62 62 59 64 72 81
86 56 54 68 62 61 57 51 56 68 54 57 66 63 65 66 66 67 64 61 57 55 55 52 53 64 56 60 65 67 70 69 66 63 62 62 63 62 64 59 63 72 82 100
91 71 76 51 41 45 58 64 57 62 66 66 63 60 64 54 54 59 67 74 69 60 55 52 54 51 62 60 66 66 68 68 67 65 63 62 61 61 61 63 73 86 96 99
92 90 59 60 52 52 61 74 63 67 63 57 50 57 64 58 49 51 54 56 75 74 65 57 53 54 54 65 66 69 68 68 65 66 66 65 65 67 62 68 80 96 99 99
80 84 78 62 48 46 45 84 57 54 54 54 51 75 69 48 46 45 50 45 69 76 73 63 56 55 55 66 65 66 68 70 73 76 73 71 70 68 69 76 90 99 99 99
79 88 70 59 53 47 62 66 56 59 63 64 66 60 59 56 53 58 59 47 50 78 80 70 64 56 54 62 65 67 76 80 80 78 78 79 75 69 72 84 99 98 99 99
81 90 90 52 60 65 64 62 66 69 73 75 74 71 76 80 80 76 76 65 51 71 84 78 72 68 67 78 79 82 84 84 83 84 84 82 76 74 80 91 100 99 100 99
72 75 53 53 64 66 64 74 78 77 81 84 88 89 90 97 98 97 92 83 70 64 84 87 78 76 74 75 79 80 83 86 86 85 84 84 76 80 85 98 99 99 99 99
68 63 57 74 76 72 71 75 82 86 88 88 94 96 95 95 96 97 100 97 82 71 82 91 85 80 78 78 81 84 85 85 86 85 84 79 78 84 92 100 100 100 98 99
67 62 68 72 71 71 75 73 73 82 91 95 99 97 100 98 98 97 96 98 97 88 78 94 93 84 83 81 81 80 81 82 80 79 78 76 79 85 95 100 100 100 99 100
73 69 68 69 79 76 70 66 80 90 96 93 98 100 100 100 100 100 98 92 98 96 89 94 100 96 89 89 86 84 79 80 86 95 91 88 91 93 99 99 100 99 99 100
71 67 73 77 75 80 60 66 69 72 72 92 100 99 99 96 100 100 92 92 91 91 90 89 95 99 100 97 100 100 96 97 92 93 95 99 99 99 100 100 100 100 100 99
69 66 76 78 64 51 50 50 52 53 53 67 100 100 100 98 98 87 84 86 88 95 88 87 96 93 100 100 100 100 100 100 98 94 99 100 98 96 100 100 99 98 98 94
57 48 49 50 48 48 53 51 52 54 57 58 69 100 100 100 97 76 77 88 89 90 98 98 98 98 99 99 100 100 100 99 98 96 99 100 100 100 100 100 100 100 91 89
40 38 39 39 39 41 44 50 63 59 66 78 83 100 100 100 96 86 70 95 100 95 90 93 90 95 100 100 99 100 100 100 100 100 100 100 100 100 100 100 100 99 88 82
30 28 30 28 36 37 40 47 53 55 56 63 85 100 97 100 100 94 88 70 83 91 94 92 94 97 94 99 100 100 100 99 100 99 100 100 100 100 100 100 100 100 100 100
34 40 43 44 46 52 53 51 49 50 54 60 83 97 99 97 94 96 96 84 75 65 91 95 98 98 98 97 97 98 100 99 100 100 99 100 100 99 100 100 100 100 100 100
31 36 37 45 49 54 55 42 36 38 50 65 85 96 87 84 94 98 96 94 84 66 80 100 100 99 98 96 94 94 99 98 99 99 100 100 100 100 100 99 99 100 100 100
34 38 41 45 50 49 37 30 31 32 35 66 89 100 100 100 100 98 97 94 89 84 86 100 96 96 98 97 95 97 98 98 99 99 100 100 100 100 100 100 100 100 100 100
39 41 42 45 49 46 32 31 36 34 34 44 73 92 99 99 97 98 97 96 90 97 87 92 84 77 96 99 97 97 98 97 98 99 99 99 99 100 100 99 99 99 99 99
38 43 47 48 50 43 32 36 35 36 37 38 42 77 92 95 97 96 96 97 94 97 95 80 69 79 100 100 99 98 98 97 97 98 98 99 99 99 99 99 99 99 99 98
32 33 41 51 54 41 40 49 63 62 52 45 48 73 93 96 97 97 95 95 96 96 97 86 86 88 100 99 98 100 100 99 98 97 98 98 98 98 98 98 98 99 98 96
45 44 41 38 48 43 49 63 76 73 63 52 44 54 92 93 94 96 96 97 97 97 96 94 93 96 100 96 97 98 99 99 99 100 99 98 99 100 100 100 98 96 96 98
49 50 45 40 41 46 48 62 82 72 62 53 50 47 64 90 97 96 98 96 96 97 96 94 94 85 90 100 100 97 97 98 96 97 98 99 100 100 100 100 99 98 94 92
54 51 49 48 48 50 55 57 80 82 78 56 52 52 51 81 94 97 96 96 96 96 96 86 78 78 86 90 100 100 100 100 98 98 99 100 99 98 99 98 97 95 94 94
49 50 54 56 53 54 61 68 68 71 78 59 55 54 54 60 93 96 96 96 93 95 95 70 75 74 77 70 79 77 78 83 97 99 96 97 98 99 99 98 98 98 98 98

GFSNGP_850_rhum_072.txt.gz
RH
65 64 68 68 69 71 76 66 67 55 53 55 52 54 59 59 54 52 52 49 50 50 49 49 51 51 59 57 56 61 73 74 73 71 70 66 61 58 57 58 59 60 61 58
82 59 61 64 62 65 71 64 63 60 60 54 58 62 64 65 68 71 70 68 64 57 53 54 53 54 58 65 68 64 65 73 76 73 69 65 62 60 61 63 63 63 61 59
88 68 58 68 57 62 60 58 61 73 62 67 70 72 72 62 58 56 55 54 62 69 66 66 60 56 55 52 65 70 65 68 71 73 71 68 66 64 64 64 65 63 60 65
90 69 81 54 46 51 68 73 68 75 73 67 61 63 59 55 53 49 49 48 45 48 65 68 68 60 55 54 50 69 70 67 68 68 70 70 67 67 67 66 67 63 67 74
87 90 61 57 54 53 60 79 66 67 61 56 52 71 68 65 56 55 50 45 43 40 46 65 72 64 56 55 53 62 71 70 69 67 70 72 71 72 72 72 70 69 75 83
86 85 80 62 51 49 50 85 58 58 67 66 54 69 71 50 48 50 52 52 46 37 34 57 73 69 63 58 56 58 64 71 71 73 72 73 76 77 78 76 72 76 83 97
83 89 75 61 57 51 62 61 67 65 68 69 70 62 64 68 64 65 62 55 54 53 41 59 81 79 68 63 57 57 72 76 78 78 79 80 81 82 81 79 77 83 99 99
86 93 93 54 60 65 65 70 69 67 68 68 69 67 69 73 73 73 74 70 70 65 52 50 83 84 75 70 70 71 77 85 85 84 86 86 86 85 83 80 80 94 99 100
76 78 62 65 64 63 60 63 67 66 65 71 78 79 83 87 86 85 92 97 92 89 76 52 80 90 80 78 79 85 89 90 90 90 92 92 91 89 88 83 84 98 99 99
74 65 82 77 74 68 65 65 68 74 78 84 87 91 93 95 98 98 99 94 98 98 94 69 79 93 88 84 81 84 86 88 91 95 95 94 94 90 86 83 88 96 99 99
73 82 83 83 78 74 75 69 73 76 80 88 92 93 95 98 98 99 100 99 96 97 98 93 89 96 97 89 85 85 90 90 89 89 88 87 85 81 80 81 89 100 99 100
79 67 69 75 78 79 67 49 57 59 53 59 80 99 100 99 99 97 100 99 97 99 90 90 89 87 98 99 94 94 90 91 88 86 84 91 96 95 93 90 99 100 100 99
71 66 69 76 76 65 46 47 48 49 54 57 62 79 100 100 100 100 95 80 79 90 92 91 88 88 90 98 100 97 96 97 100 96 94 95 90 94 98 100 100 100 99 100
61 60 70 67 50 46 45 44 50 53 57 62 65 72 84 96 100 100 100 88 75 83 96 98 97 95 100 100 100 100 100 99 99 100 100 100 96 98 100 100 100 100 99 99
45 37 38 41 42 38 39 44 45 48 48 47 51 65 81 93 100 98 100 94 93 74 75 98 94 91 97 98 100 100 100 100 99 100 100 100 100 100 100 100 100 100 100 99
41 40 38 37 36 36 40 45 55 52 47 45 55 64 85 89 94 99 93 91 100 95 70 60 74 86 92 98 97 99 100 100 100 100 100 100 100 100 100 100 100 100 99 99
26 24 26 25 36 43 48 50 53 44 35 33 40 50 57 69 91 89 84 93 99 96 87 75 58 80 94 100 100 99 100 100 100 100 100 100 99 99 100 100 100 100 100 100
27 33 37 44 46 48 44 48 45 31 27 29 30 33 54 65 73 90 99 100 96 91 87 86 69 100 95 97 98 98 99 100 100 100 99 100 100 99 99 99 100 100 100 100
31 34 40 42 45 47 52 51 37 29 29 34 34 34 50 72 83 85 93 98 99 97 85 91 80 99 96 96 98 97 99 99 100 100 99 100 100 99 99 99 99 100 100 100
33 39 43 45 45 48 50 49 38 31 33 35 36 38 42 55 84 92 94 92 92 96 97 95 98 94 96 86 96 97 96 98 99 100 100 100 100 100 99 100 100 100 100 100
34 30 28 28 32 40 48 50 41 38 43 51 50 46 48 56 83 96 100 97 84 96 96 97 98 89 79 76 96 96 95 96 98 98 100 99 99 99 99 100 99 99 100 99
32 35 36 37 39 38 42 50 41 49 69 70 58 52 52 49 78 95 95 97 95 95 97 97 96 92 89 100 100 99 92 94 96 98 99 98 98 99 99 99 99 99 99 99
39 44 46 47 47 42 38 36 45 59 78 82 58 53 55 53 66 100 98 95 95 95 96 96 96 96 98 100 100 96 94 96 96 97 98 98 98 98 98 98 98 98 98 98
46 49 51 52 51 46 45 40 43 50 64 85 78 55 56 59 54 78 96 96 96 96 96 96 96 96 97 93 100 94 96 97 97 98 98 97 96 97 98 98 98 98 98 99
49 57 55 55 54 55 61 59 51 51 54 60 85 72 56 58 65 69 95 96 96 95 95 96 96 96 95 95 98 95 96 96 97 98 97 96 96 97 98 98 98 100 97 96
58 61 60 57 59 66 69 72 69 62 74 70 72 69 69 61 61 64 90 96 96 95 95 96 96 96 93 88 97 98 97 100 98 96 97 97 95 96 99 99 100 99 96 95
50 56 61 64 70 80 86 90 92 85 89 97 96 84 81 67 64 64 84 95 96 96 96 96 94 94 88 86 88 88 85 82 90 96 96 96 96 97 96 98 100 97 96 96

GFSNGP_850_rhum_075.txt.gz
RH
71 69 70 70 69 72 77 64 64 55 53 53 57 64 66 62 60 61 62 60 61 59 57 55 53 51 51 51 57 64 67 70 72 75 74 74 73 70 66 62 60 59 60 61
83 65 62 66 64 72 72 68 62 62 63 56 67 68 73 75 71 62 57 55 54 56 62 62 62 60 54 51 54 64 67 71 75 76 76 75 74 70 67 66 65 65 64 63
84 70 56 68 57 65 67 66 66 79 65 75 75 78 69 59 52 51 48 44 42 40 39 45 57 65 58 52 52 55 60 71 73 73 72 73 73 71 67 65 66 68 66 66
89 69 79 53 49 53 68 74 75 81 77 69 68 71 57 54 54 51 49 46 43 40 36 34 35 47 61 59 55 54 54 63 72 72 73 73 71 71 70 68 68 67 68 67
87 88 65 56 56 70 65 74 65 72 62 57 56 70 63 63 64 61 62 60 56 52 46 41 36 42 54 60 60 53 53 54 66 74 75 75 72 73 74 72 72 71 71 69
84 88 84 56 53 53 54 75 60 59 63 62 63 91 76 71 56 56 61 61 59 59 55 51 47 47 65 71 62 58 57 59 69 78 78 78 76 77 76 76 76 75 73 72
84 90 74 56 57 52 68 63 63 62 66 68 67 60 61 64 65 70 71 68 73 73 69 63 57 53 66 78 72 63 59 58 68 78 81 81 84 83 82 83 81 79 76 76
83 86 92 60 59 61 64 70 67 67 68 70 73 74 75 75 80 84 84 80 87 92 86 82 80 65 72 84 83 74 68 66 68 79 85 85 88 88 89 88 85 84 80 78
78 78 70 73 69 66 64 66 70 70 74 76 75 76 80 78 83 83 84 92 88 98 98 96 93 94 96 94 89 83 79 76 84 88 90 90 92 93 93 91 90 88 82 78
74 71 80 77 74 68 67 67 70 68 66 63 70 70 70 73 74 81 88 93 96 98 97 91 97 93 92 100 98 89 86 84 84 90 93 94 96 98 98 97 94 90 84 83
77 83 83 79 75 72 68 59 49 56 58 59 55 49 52 59 67 82 93 86 99 94 78 80 82 84 84 89 100 99 92 91 89 91 92 94 95 96 96 92 89 84 83 91
84 69 71 72 73 72 72 43 43 46 44 49 50 51 54 54 59 64 84 100 87 77 77 70 75 78 79 85 96 100 100 97 93 90 89 90 92 94 95 98 95 90 91 96
66 69 68 71 76 74 53 44 47 48 51 50 51 56 54 55 59 74 75 92 87 63 72 74 69 76 82 86 95 100 100 100 100 100 96 90 90 92 94 96 98 100 99 100
62 60 70 71 52 56 49 46 44 48 45 44 45 42 49 56 55 57 60 66 95 87 71 82 82 68 73 87 90 94 100 100 100 100 100 100 99 99 100 100 100 99 100 100
44 35 38 42 43 44 39 36 36 37 40 39 36 35 39 47 54 62 71 80 87 90 83 80 84 77 66 66 85 88 88 99 100 100 100 100 100 100 100 100 99 100 100 100
35 36 39 35 36 35 30 33 42 43 46 38 28 25 28 32 48 66 69 73 93 100 100 93 87 82 84 68 92 94 95 94 97 100 100 100 100 100 100 100 100 100 99 99
35 29 35 33 34 34 37 45 51 51 47 34 29 29 31 30 30 41 54 61 74 94 97 96 92 89 89 85 100 100 100 92 93 100 99 100 100 100 100 100 100 100 99 100
28 31 35 38 40 43 40 41 46 51 46 34 33 34 32 32 36 34 44 65 73 72 83 88 92 92 90 86 100 100 100 98 97 98 100 99 99 100 100 100 100 100 100 100
32 33 36 40 44 47 46 50 51 53 51 40 38 39 44 45 45 44 47 64 81 92 86 96 95 97 100 99 100 100 97 99 100 99 98 98 99 98 99 99 100 100 100 100
32 34 38 32 30 33 37 37 39 53 51 44 46 58 60 54 50 50 48 67 97 94 97 98 97 94 96 97 96 87 86 99 99 98 96 97 98 99 99 100 99 100 100 100
28 28 31 37 39 40 41 42 40 40 44 47 56 76 68 54 53 53 51 62 71 92 95 98 99 96 96 96 92 89 98 100 100 98 97 97 98 98 99 99 99 99 99 99
28 34 38 42 44 44 48 49 45 46 42 45 55 84 78 57 54 54 56 61 76 93 94 96 96 96 95 95 97 97 99 100 98 98 98 97 96 97 100 100 99 99 99 99
31 38 41 45 50 56 55 54 56 58 54 50 54 65 87 90 62 58 61 60 71 93 98 95 96 96 96 97 96 95 93 95 97 98 98 98 96 97 100 98 98 98 98 98
40 41 46 52 57 63 62 57 64 61 63 64 57 60 64 93 87 64 63 62 62 88 94 96 96 96 96 95 95 95 97 96 96 96 97 97 96 95 97 97 97 98 98 98
46 52 55 58 60 60 65 73 80 78 82 80 68 66 74 93 94 77 71 65 62 89 93 96 96 97 96 96 96 96 96 96 96 96 97 98 97 95 96 96 97 97 97 97
49 55 60 66 74 86 91 92 94 92 96 97 85 72 83 92 93 86 75 67 65 90 94 96 96 95 95 96 96 98 97 96 96 96 97 98 99 97 95 96 97 96 96 97
63 73 80 87 92 94 95 99 100 97 99 99 94 85 82 82 83 80 75 68 71 92 95 96 95 96 95 96 96 96 93 93 92 96 96 96 95 95 96 97 97 97 97 98

GFSNGP_850_rhum_078.txt.gz
RH
76 73 72 71 72 70 76 64 60 62 64 62 59 68 72 67 70 64 60 56 55 53 54 56 55 53 50 47 45 48 54 57 58 65 73 75 73 73 73 72 69 66 63 60
82 67 62 69 69 74 71 65 62 62 58 55 65 72 76 74 64 59 54 49 45 42 40 39 39 42 51 57 53 48 50 53 66 68 73 76 76 76 76 74 71 68 65 64
85 72 61 66 57 67 70 68 67 73 60 79 78 81 74 62 55 54 53 51 48 47 46 43 41 38 35 41 58 58 51 54 58 71 74 78 80 78 76 73 71 70 68 68
87 71 76 52 52 55 66 74 77 76 78 72 78 75 61 56 58 60 59 58 56 54 51 49 48 45 41 36 49 64 59 53 56 67 75 79 81 80 78 75 72 71 70 67
87 90 62 59 59 68 65 65 68 76 61 62 62 64 63 61 68 68 66 62 59 56 53 52 55 55 50 42 44 67 70 57 58 61 76 80 78 79 79 78 76 74 73 70
83 88 80 58 56 57 55 73 62 61 62 63 78 81 82 71 64 60 62 67 65 63 64 65 69 74 65 54 49 75 78 67 62 63 70 81 81 82 82 81 81 80 77 76
80 91 74 58 59 53 68 62 62 61 64 66 66 64 67 66 64 68 73 74 75 75 77 79 82 87 82 71 71 86 86 77 69 70 76 80 84 86 86 86 86 84 82 81
80 79 90 69 60 58 63 70 67 68 68 68 71 69 70 72 72 71 67 66 71 72 74 78 86 94 92 86 92 99 92 84 81 84 80 84 88 88 88 89 89 89 87 86
80 74 70 73 73 68 67 67 69 67 70 70 70 72 69 65 63 65 71 75 78 76 72 70 73 84 84 83 87 91 98 90 88 89 94 94 95 93 92 92 92 92 92 90
74 72 74 76 73 70 68 68 70 71 72 66 65 56 49 46 48 48 47 45 54 67 60 55 56 60 71 79 80 84 92 98 92 94 96 100 99 98 98 95 97 97 97 95
81 73 80 76 74 72 74 64 51 52 52 48 45 42 41 36 38 41 43 43 44 37 35 43 49 58 63 72 85 84 85 89 99 97 100 100 100 100 99 99 100 100 100 98
82 66 72 66 73 75 74 57 43 44 43 46 47 42 40 34 36 38 32 33 36 41 42 37 44 51 58 69 85 96 86 88 92 100 100 100 100 100 100 100 100 100 98 92
63 66 69 71 76 78 76 50 49 48 44 40 40 45 42 41 34 31 35 40 47 56 55 50 52 54 54 68 77 72 91 89 96 100 99 100 100 100 100 100 100 100 98 97
69 70 68 71 62 62 56 47 40 35 37 42 43 41 36 29 26 28 29 38 54 58 56 56 56 52 64 77 88 84 66 83 93 99 100 99 100 100 100 100 100 99 99 100
49 43 39 46 50 44 39 35 32 35 41 44 46 36 28 27 25 25 26 31 53 56 57 62 79 69 75 85 88 89 84 79 97 99 100 100 100 100 100 100 100 100 100 100
50 42 42 43 35 33 31 34 38 38 43 42 39 36 29 27 30 28 27 33 40 41 51 67 60 65 84 89 87 92 95 100 100 100 100 100 100 99 100 100 100 100 100 100
38 30 30 28 28 29 35 40 44 43 38 43 52 46 34 34 33 33 44 46 44 40 41 66 62 77 92 89 93 97 100 100 95 98 98 100 100 100 99 99 100 100 98 100
30 28 29 30 32 38 35 35 31 32 42 46 51 54 42 39 46 53 51 48 46 42 44 66 79 85 90 93 100 100 100 100 100 96 96 97 100 100 100 99 99 99 99 99
31 32 34 33 36 36 30 34 40 42 40 39 45 54 48 44 60 61 53 52 52 53 48 71 84 88 88 90 100 100 97 96 93 91 96 97 98 99 100 100 99 99 99 99
34 35 33 30 29 34 39 44 47 48 47 45 42 42 49 49 73 70 57 56 56 59 59 66 80 85 89 92 97 97 96 95 89 98 100 97 97 98 98 99 100 100 99 99
35 32 30 30 36 40 45 49 51 53 53 50 55 52 50 53 74 86 67 59 58 63 61 66 83 89 93 94 96 95 96 96 98 100 98 95 96 96 98 99 100 100 100 100
34 34 33 36 43 47 51 54 56 62 61 55 60 60 60 55 57 73 93 88 67 65 65 64 84 92 96 96 97 96 96 96 97 95 93 93 96 97 97 98 100 100 100 99
34 37 41 45 49 53 56 59 64 65 64 68 71 72 77 76 79 80 75 88 83 72 68 69 89 96 96 97 96 96 96 95 96 96 99 98 96 97 97 98 99 100 100 99
32 33 40 45 50 54 57 59 69 76 83 84 83 83 90 86 85 91 100 97 89 79 71 82 98 97 100 97 96 95 96 96 96 96 96 96 96 97 97 98 100 100 98 97
48 50 53 60 66 76 88 93 94 90 92 90 88 88 92 93 100 99 98 96 90 79 70 84 98 96 94 95 95 95 96 96 96 96 96 97 97 97 97 98 100 98 96 97
52 58 65 75 85 88 89 92 98 96 99 97 97 90 90 95 99 99 92 85 79 74 76 97 97 96 95 96 96 96 96 96 96 96 96 97 97 97 98 98 98 96 96 97
56 63 68 69 70 74 77 100 100 100 100 100 94 92 100 97 97 96 90 85 78 76 92 98 96 96 95 95 96 96 95 95 94 95 96 96 97 97 97 98 96 96 96 95

GFSNGP_850_rhum_081.txt.gz
RH
74 70 72 74 75 71 75 62 59 56 66 63 62 74 73 73 71 63 56 52 49 47 44 42 40 40 42 46 53 51 47 45 52 61 62 68 74 76 77 75 74 72 70 68
80 67 62 73 74 76 70 63 64 63 55 57 67 74 80 74 64 58 56 55 53 51 48 46 44 41 38 36 34 36 47 52 51 55 65 67 73 77 78 78 77 76 72 69
84 71 61 65 64 66 71 71 66 66 63 75 80 84 73 61 60 65 68 65 61 56 52 50 47 44 40 37 35 32 31 44 54 54 58 71 75 78 76 77 78 77 73 69
86 69 75 53 54 58 63 72 75 77 75 75 83 76 62 61 66 68 68 64 57 51 51 53 56 56 53 52 48 43 38 39 54 58 56 67 81 81 82 82 81 79 75 72
86 88 58 57 60 67 66 65 72 74 65 68 70 64 66 66 69 68 65 62 62 64 64 65 70 72 69 66 63 56 51 54 64 69 62 62 77 79 81 83 82 78 76 75
81 86 72 56 57 60 58 65 64 64 64 71 78 73 76 68 63 62 64 63 61 61 66 70 73 76 75 73 74 72 68 70 78 78 73 69 71 83 86 86 84 84 82 80
77 90 74 58 59 57 66 56 63 62 64 65 65 64 68 68 65 65 62 59 56 59 60 68 69 66 69 70 77 81 82 87 89 85 79 81 78 88 91 90 89 88 86 85
81 85 87 67 62 60 62 67 66 67 67 65 67 67 64 64 58 50 46 45 43 41 40 48 49 46 47 59 70 74 78 83 95 92 85 87 91 92 96 97 95 93 91 90
76 72 65 66 70 68 64 64 68 66 66 67 66 64 54 40 36 34 35 31 28 24 20 22 30 36 32 38 49 66 71 77 86 98 95 91 98 100 100 100 99 95 94 92
73 70 73 71 72 70 67 66 68 68 66 64 58 51 44 45 45 42 38 36 32 30 29 24 27 32 37 40 46 51 63 72 80 88 99 99 98 100 100 100 100 98 97 97
82 71 74 72 72 71 71 69 60 52 51 52 48 49 47 40 36 32 31 34 39 39 37 32 35 34 37 45 51 49 51 58 72 82 96 100 100 100 100 100 100 100 99 100
80 67 70 67 68 75 75 71 55 48 48 49 48 44 37 31 29 27 27 31 36 40 44 39 38 32 35 49 60 59 56 56 60 72 83 99 100 99 100 100 100 100 100 100
64 64 68 70 75 78 80 71 51 48 45 37 37 40 39 33 29 28 27 24 24 25 33 40 44 38 40 41 50 71 79 74 69 65 74 95 100 100 99 100 100 100 100 100
65 70 70 70 67 71 69 51 44 37 36 35 34 37 42 40 32 25 22 27 27 25 25 33 37 36 47 61 60 52 76 88 85 81 82 96 100 100 100 100 100 99 100 100
57 54 42 40 53 47 40 34 30 30 32 30 39 49 49 43 35 28 28 32 32 38 42 42 40 36 42 48 58 81 76 85 93 99 100 100 100 99 100 100 100 100 100 100
56 44 39 40 42 35 31 32 34 32 31 34 37 37 43 50 48 38 32 36 49 50 48 46 42 39 42 60 73 78 87 92 100 100 100 100 95 98 99 100 100 100 100 100
47 42 33 29 29 30 32 34 36 33 32 31 33 34 34 41 49 47 37 49 56 51 49 51 47 43 56 73 82 86 95 100 99 100 100 98 100 99 97 99 99 99 100 100
39 29 28 30 32 32 30 30 30 33 36 39 43 43 42 39 38 43 45 53 63 53 51 55 54 54 59 76 86 91 95 99 100 100 96 99 100 98 98 97 99 99 99 99
29 30 34 35 32 33 31 30 36 40 41 46 51 53 52 46 48 47 51 57 76 62 53 59 60 60 61 72 84 94 99 100 100 100 99 91 98 97 98 97 97 98 100 100
35 38 37 32 31 33 34 38 45 49 49 57 62 62 60 53 56 57 59 58 77 79 65 65 64 64 67 80 89 93 96 98 97 96 96 96 96 97 96 97 97 97 99 100
41 36 33 35 36 36 41 46 52 56 58 64 69 68 67 67 67 70 76 75 58 69 96 92 73 68 71 87 94 96 97 98 97 96 96 97 95 93 92 96 97 98 99 99
35 30 31 36 41 43 45 50 57 62 66 68 70 74 84 82 81 86 86 89 80 83 99 94 82 74 82 100 98 99 99 97 98 98 96 94 95 97 97 97 97 97 99 99
31 29 32 43 50 53 54 62 70 77 85 89 92 96 97 96 100 96 92 86 96 98 99 95 87 89 100 100 96 97 96 96 95 95 96 96 96 97 97 96 97 97 98 100
32 45 48 52 57 61 59 62 69 72 81 86 92 93 99 96 88 90 98 100 98 97 96 92 82 87 100 96 96 97 96 96 96 96 96 96 96 96 97 97 97 97 97 100
45 50 54 55 56 58 63 67 70 78 87 82 92 94 94 91 98 93 93 95 95 93 87 81 86 100 96 96 96 96 96 96 96 95 96 96 96 96 96 96 97 96 97 98
52 54 57 60 63 66 70 76 92 90 96 92 86 86 92 98 94 95 95 94 91 89 87 92 99 96 96 96 96 95 95 96 96 96 96 96 96 96 97 96 96 96 97 97
56 58 58 60 64 70 78 89 90 88 95 96 92 96 98 96 96 97 95 93 92 91 98 97 96 96 96 95 96 96 94 95 96 96 95 96 96 96 96 96 96 97 96 96

GFSNGP_850_rhum_084.txt.gz
RH
58 57 63 64 62 55 60 50 48 48 46 50 48 51 56 66 59 55 56 60 62 51 47 45 44 43 42 41 38 35 34 38 47 45 49 58 62 64 67 69 72 75 77 79
73 49 54 62 59 60 57 53 48 44 51 41 49 61 64 61 57 57 62 66 59 54 52 49 47 45 43 40 38 35 33 31 33 46 49 51 64 70 75 76 76 76 75 75
72 54 49 51 50 56 61 59 53 48 54 51 58 62 63 58 59 64 67 62 59 55 49 43 40 40 38 36 36 37 38 37 36 38 53 57 58 75 80 81 81 80 80 80
71 54 65 48 44 52 52 60 59 61 61 60 57 67 62 62 63 69 73 75 74 70 65 59 51 46 44 46 49 49 46 46 47 48 53 64 65 65 81 85 85 85 86 85
67 57 50 53 53 56 56 56 60 59 57 66 66 61 63 69 69 75 73 70 63 62 62 65 67 64 60 58 56 55 59 61 61 61 65 71 72 72 80 88 89 87 86 85
61 65 52 50 52 57 55 49 58 57 55 59 63 63 53 75 69 68 64 64 60 56 59 62 62 53 52 58 62 63 63 61 61 70 79 79 80 78 80 89 90 92 90 87
61 64 53 46 49 57 56 46 58 58 56 61 57 58 69 64 64 63 56 49 46 45 43 39 36 33 33 32 42 46 60 66 70 73 85 89 83 82 83 88 94 92 91 89
60 63 54 58 59 53 50 62 62 64 66 66 70 66 66 66 51 38 34 32 29 25 25 26 23 24 25 26 29 30 33 47 64 74 82 94 94 88 91 93 97 99 94 92
53 46 53 64 64 63 61 62 68 69 71 70 69 72 62 46 37 34 33 28 26 23 23 29 26 26 25 26 27 27 32 27 31 59 77 85 98 100 99 99 100 99 96 93
58 56 56 64 67 66 66 69 68 70 69 66 63 52 44 38 34 29 27 25 23 28 38 35 34 32 31 32 35 34 32 31 29 30 46 76 93 99 100 100 99 100 100 100
58 57 65 67 70 68 69 70 70 63 54 50 47 53 44 43 35 32 33 34 35 36 33 27 32 29 31 34 37 36 36 35 35 38 36 43 72 94 99 99 100 100 100 100
46 58 58 60 64 69 74 74 67 57 48 45 42 38 34 29 37 33 33 30 26 25 26 26 31 33 35 38 42 46 47 48 53 52 59 51 51 67 91 99 99 100 100 100
55 60 62 63 67 73 79 76 68 51 44 36 32 32 38 39 38 38 33 28 26 29 29 29 29 31 35 38 41 48 49 50 54 75 95 96 79 89 90 87 100 100 100 100
66 65 70 69 70 71 76 69 45 36 31 30 32 36 41 42 38 38 37 35 31 29 29 31 42 45 45 43 45 53 62 68 71 71 94 100 100 100 100 100 99 98 99 100
67 68 54 43 53 54 44 35 30 30 31 32 34 34 32 32 32 32 34 43 45 36 34 46 49 45 46 43 43 50 58 67 89 93 99 100 100 100 100 97 100 99 98 99
56 49 42 41 42 38 32 29 30 31 32 29 26 28 32 34 36 37 35 35 50 47 44 56 52 50 50 49 50 56 58 65 78 99 97 99 100 100 100 100 98 96 99 98
57 54 44 36 30 29 32 34 33 34 32 28 33 38 40 44 47 49 48 46 46 44 50 60 58 55 57 57 58 61 66 71 80 99 93 99 100 100 100 100 100 98 95 98
54 39 28 29 33 36 34 33 35 35 31 37 43 47 50 56 57 59 58 54 54 52 48 52 70 62 63 62 62 63 69 83 97 100 96 100 100 100 100 100 100 99 93 96
39 31 32 36 38 36 33 32 32 34 37 44 50 54 59 64 64 66 67 67 66 70 56 59 79 73 66 66 67 69 78 99 98 95 96 100 100 100 100 100 100 100 95 96
36 37 39 40 35 34 36 38 43 43 46 54 59 63 71 82 77 80 91 93 80 77 74 74 73 93 94 93 81 77 92 100 100 98 97 97 99 97 96 98 90 91 94 96
42 43 39 31 28 29 36 43 48 53 57 64 74 84 99 98 100 100 100 100 83 88 92 93 99 100 100 92 97 97 95 98 97 94 95 95 95 96 100 94 88 91 96 97
45 36 29 27 35 40 46 52 59 66 72 77 87 98 100 100 100 100 99 95 93 93 98 99 98 97 99 100 100 95 97 96 95 96 96 95 95 96 97 95 97 95 98 98
29 25 33 44 44 48 51 54 56 61 66 75 86 91 99 100 100 100 100 88 92 94 100 97 96 97 100 100 96 97 96 96 96 96 96 96 96 96 96 96 96 96 97 98
30 37 43 49 52 51 52 56 60 64 68 71 76 87 98 96 92 94 99 100 95 96 94 91 90 88 100 98 97 95 95 95 96 96 95 96 96 96 96 96 96 96 97 98
35 44 50 49 51 55 59 66 66 67 68 74 79 82 88 93 100 95 95 95 93 94 92 90 93 99 97 95 95 95 95 95 96 97 95 96 96 96 96 96 96 96 97 97
46 49 51 56 58 62 68 67 72 78 76 77 78 86 90 92 94 94 94 95 95 97 98 98 96 95 95 95 96 96 96 96 96 95 95 96 96 96 96 96 96 96 96 96
48 51 56 57 60 68 70 76 77 74 80 84 90 97 92 91 93 94 91 89 89 95 98 95 95 95 95 95 95 96 96 96 96 95 96 96 96 96 96 95 96 97 96 96

GFSNGP_850_rhum_087.txt.gz
RH
49 48 54 54 52 45 54 37 42 40 43 45 43 45 49 49 48 49 53 57 61 62 62 62 52 48 46 43 41 39 37 35 32 31 36 44 47 60 63 64 67 71 74 81
75 44 48 51 46 46 49 44 38 39 45 35 39 46 52 49 50 52 55 59 63 64 66 66 62 52 48 44 43 42 40 38 35 32 31 32 45 51 64 68 72 76 77 78
68 46 45 49 46 48 51 49 51 42 47 40 47 50 54 51 52 56 60 65 67 67 69 69 58 51 45 42 42 42 44 49 50 46 42 40 42 54 57 74 79 76 78 80
74 52 66 47 40 47 47 50 50 51 52 48 45 56 56 54 54 59 64 67 66 58 48 46 48 52 46 44 46 46 47 48 50 50 52 54 57 61 66 66 81 83 80 78
70 45 43 48 46 48 51 45 49 52 50 58 59 57 57 62 67 70 71 70 70 73 61 44 36 29 26 24 31 37 54 54 58 60 56 55 62 69 71 74 72 85 88 86
49 60 43 46 46 49 46 47 45 50 50 55 58 60 57 67 73 71 72 73 77 77 72 70 75 42 28 25 20 18 22 27 47 68 84 74 71 76 79 84 88 80 93 93
48 53 45 42 45 50 52 51 50 52 50 54 55 57 66 71 70 64 61 54 30 32 42 36 40 28 27 35 32 26 19 17 17 24 50 81 84 88 94 90 97 98 92 96
46 51 48 46 51 50 47 51 52 55 55 56 59 66 70 67 62 53 42 31 29 26 29 33 45 36 26 37 54 32 25 22 21 20 25 43 85 92 99 99 99 99 100 99
43 42 43 51 52 59 58 53 58 59 66 68 68 67 68 61 52 50 41 35 38 43 50 59 63 53 36 33 34 25 26 33 48 32 24 22 27 73 92 98 100 99 100 100
50 39 45 48 56 62 63 62 69 72 72 74 68 62 58 52 50 47 44 47 50 49 56 56 52 54 57 61 56 50 35 32 35 33 37 31 32 33 66 86 96 100 100 100
47 41 50 53 56 60 69 70 72 69 68 65 59 57 55 51 48 46 50 54 50 45 52 43 46 48 52 57 66 59 44 39 43 50 48 42 55 45 35 48 99 100 100 100
35 42 44 52 61 66 71 73 70 67 66 58 44 52 52 49 49 50 56 54 53 54 52 41 46 37 29 40 67 74 76 75 77 67 56 58 72 74 58 42 44 83 100 100
44 57 59 66 64 68 76 74 72 68 60 45 47 44 47 49 41 50 50 54 51 50 50 50 54 52 48 66 70 64 71 85 90 86 61 66 83 100 96 47 55 52 89 100
63 62 68 67 66 64 68 69 65 42 32 28 28 33 34 37 44 48 54 52 53 56 51 52 58 55 62 71 73 63 69 77 67 76 95 88 84 96 100 100 99 95 59 90
69 70 58 57 53 52 48 39 32 29 35 42 44 39 33 38 39 49 46 42 50 56 47 57 64 59 69 72 62 56 68 87 100 100 100 100 99 100 100 100 100 100 98 82
73 67 54 43 44 38 34 31 32 36 45 48 42 36 39 48 43 44 48 51 66 65 59 56 60 49 66 76 60 60 72 91 94 100 100 100 99 98 100 100 100 99 97 100
61 61 53 46 39 36 31 35 41 38 34 31 34 41 46 49 50 49 52 60 65 66 68 62 58 56 61 76 68 67 95 77 74 93 98 100 97 90 98 100 100 98 100 100
55 48 39 30 28 33 38 40 36 32 33 36 39 41 45 52 60 63 67 74 74 72 68 69 80 84 82 88 78 89 89 74 89 99 94 96 93 91 100 100 100 100 100 100
57 44 31 32 36 40 40 31 28 30 34 43 50 55 65 77 87 92 96 98 97 95 90 92 91 91 92 88 96 94 91 95 96 100 97 94 93 91 96 100 98 95 96 99
46 34 36 40 43 37 28 26 31 39 48 60 68 77 93 98 97 98 95 94 95 98 98 96 99 100 100 97 96 97 96 97 99 100 95 95 94 92 92 92 94 96 97 99
38 39 43 44 32 26 31 37 45 51 51 57 71 93 100 100 98 95 96 94 94 96 96 97 98 96 96 96 96 96 96 96 98 99 96 92 94 94 90 89 92 96 100 98
45 48 39 25 24 30 38 45 47 51 54 61 82 100 100 100 99 100 99 97 96 100 98 97 98 100 98 97 95 96 95 96 97 96 94 96 94 94 93 96 100 100 100 100
47 30 24 29 35 43 42 46 49 54 58 64 71 84 88 90 100 100 97 95 100 100 100 100 98 100 100 100 100 99 97 97 96 95 98 99 97 95 95 95 96 98 100 100
22 26 30 40 44 44 45 47 52 56 59 63 70 77 82 89 89 100 100 96 89 95 94 91 96 100 100 100 96 96 96 96 96 99 100 97 96 97 98 98 98 98 96 96
26 34 43 46 48 48 49 52 55 60 59 63 71 77 81 97 100 95 92 90 89 89 90 95 97 97 98 100 98 97 98 99 96 100 97 96 95 96 96 96 96 96 96 96
36 44 47 50 49 50 57 59 60 59 63 67 73 75 80 86 89 89 87 88 91 91 96 98 98 100 100 98 99 98 97 96 95 95 96 96 96 96 96 96 96 96 96 96
44 47 52 51 51 59 61 62 58 62 70 76 73 76 81 84 87 87 85 89 93 95 98 99 97 98 96 96 96 96 96 95 95 96 96 96 96 96 96 96 96 96 96 96

GFSNGP_850_rhum_090.txt.gz
RH
50 47 54 56 55 54 61 48 64 64 63 58 59 61 51 48 50 54 57 60 61 61 62 60 53 46 43 40 38 36 36 35 34 33 31 29 33 41 44 53 58 59 63 68
82 44 47 52 51 54 57 56 46 50 59 45 47 52 50 49 50 54 58 63 64 65 64 61 54 48 42 40 38 36 36 35 35 34 34 34 33 31 38 48 60 71 71 74
86 54 48 64 52 53 53 57 60 69 58 51 57 55 52 50 52 57 62 65 66 65 59 54 51 48 44 39 38 38 43 45 43 42 42 43 44 43 42 48 62 67 80 83
94 65 81 51 44 48 51 50 54 57 58 59 59 57 54 53 54 60 65 66 66 61 60 57 54 48 35 30 30 28 26 26 34 41 48 49 49 52 54 58 64 73 78 89
87 82 49 50 50 54 61 57 52 54 57 59 57 56 59 61 62 64 65 62 55 49 43 34 32 29 24 25 32 32 29 30 24 24 25 32 44 52 57 67 73 83 92 90
70 77 58 54 50 48 47 68 52 51 55 59 58 77 76 68 70 70 69 60 48 32 26 22 19 18 17 17 20 20 23 23 24 26 28 26 30 39 56 69 85 90 98 100
67 70 55 48 47 49 61 65 52 51 52 55 64 65 66 67 69 65 53 48 41 39 42 48 46 31 27 21 17 16 17 16 15 16 20 22 26 31 34 75 91 99 99 99
54 60 67 47 52 57 54 50 52 55 56 58 61 64 67 67 60 52 44 40 41 38 40 50 57 60 50 38 35 29 19 15 14 19 27 31 33 32 39 65 85 85 90 95
53 59 46 46 53 56 52 54 56 57 61 62 66 67 65 61 52 45 39 37 40 46 42 34 40 49 49 44 54 53 39 26 23 22 23 28 35 36 40 49 83 97 97 98
55 44 49 47 50 53 56 59 61 62 66 66 66 64 58 54 47 39 36 40 44 38 33 29 30 31 33 40 47 51 50 39 32 33 36 44 41 47 60 56 56 74 100 100
57 48 46 46 49 54 59 61 64 65 65 63 60 56 52 46 38 37 40 43 41 36 32 33 30 27 29 32 38 56 64 54 46 46 47 49 46 50 61 91 92 88 98 99
63 47 49 56 55 58 62 64 67 66 65 63 59 47 35 28 30 35 37 39 35 26 29 29 28 28 29 31 38 48 62 65 66 70 70 60 52 41 48 68 76 100 100 100
46 49 52 55 56 59 66 70 68 66 65 57 36 32 33 33 30 30 30 27 29 36 40 41 36 39 37 39 53 59 70 69 62 66 68 64 53 56 54 37 74 89 92 94
52 51 62 62 63 61 62 61 60 57 36 28 27 31 36 36 32 30 31 34 43 43 43 45 47 49 47 50 58 65 73 72 70 74 75 73 86 95 94 100 94 66 97 86
58 64 60 60 64 57 50 47 37 30 30 35 41 42 40 42 41 38 43 44 45 52 57 63 64 61 57 57 63 72 76 77 78 98 100 100 100 100 96 96 100 100 100 100
66 68 65 55 46 41 38 36 33 34 40 41 37 36 41 47 50 53 56 58 66 74 74 75 78 72 70 71 75 82 90 85 95 100 100 100 100 99 92 95 90 99 100 100
68 66 59 48 44 41 36 36 38 42 40 33 32 32 38 44 48 53 62 71 82 87 88 86 88 93 98 99 97 96 98 97 100 100 100 100 96 92 95 95 95 100 100 100
53 50 50 46 37 32 34 40 42 34 29 27 31 41 52 60 78 93 97 97 98 93 88 92 98 96 93 92 95 96 96 96 97 96 95 96 93 92 96 94 93 99 97 93
53 47 42 34 33 38 42 38 25 24 33 39 48 55 62 70 77 79 81 83 88 91 88 93 93 92 93 94 98 96 96 96 97 96 96 96 96 92 92 90 90 89 87 92
54 46 37 36 41 43 31 21 25 33 42 44 47 52 56 58 66 80 80 81 86 92 96 94 94 92 93 92 96 97 96 97 94 94 96 97 97 97 96 93 96 95 89 87
51 39 39 44 42 25 20 24 37 40 43 46 51 55 59 60 65 72 79 87 80 92 100 100 98 99 100 97 97 96 97 99 98 98 94 97 98 92 95 96 95 94 93 99
40 42 47 40 21 21 30 37 42 45 47 48 51 58 58 62 66 69 82 92 94 100 100 100 100 100 100 99 100 99 99 95 95 97 97 92 96 99 96 95 95 96 95 93
47 48 30 18 19 32 36 42 46 46 49 51 57 58 64 70 79 86 78 74 98 100 100 100 100 100 100 98 96 97 98 97 96 94 95 96 99 98 98 98 96 96 96 97
44 23 19 21 34 35 40 45 48 48 51 58 62 64 69 67 63 82 79 76 82 100 100 96 100 100 100 97 97 98 95 96 96 96 96 97 97 95 95 96 96 96 96 97
19 21 26 36 36 38 43 48 49 49 55 61 63 67 67 76 86 80 77 74 84 94 98 97 97 97 100 99 96 96 96 96 96 97 96 96 96 96 96 96 96 96 96 96
22 28 36 38 40 42 46 50 50 53 58 60 60 62 60 73 78 78 74 77 82 93 97 98 98 100 99 97 96 96 96 96 96 95 96 96 96 96 96 96 96 96 95 95
29 37 38 40 42 46 52 55 54 57 64 63 60 59 67 74 75 78 75 76 80 89 96 98 98 96 97 97 96 96 96 96 96 96 96 96 96 96 95 95 96 95 95 96

GFSNGP_850_rhum_093.txt.gz
RH
64 52 54 57 61 67 73 63 74 75 78 76 74 69 60 56 57 59 61 61 60 59 57 54 50 46 42 40 38 37 36 35 35 34 34 34 33 31 30 32 40 50 56 61
89 48 49 53 56 60 65 66 63 64 70 60 61 53 54 54 57 61 63 64 62 61 59 52 46 42 40 36 34 33 33 32 31 31 33 33 33 35 35 34 34 37 49 63
90 71 60 70 53 56 60 64 62 72 60 61 66 62 56 55 57 61 63 64 63 62 54 48 43 39 36 29 26 25 24 22 21 23 25 28 32 35 40 40 39 42 48 55
92 70 80 56 46 50 54 58 62 63 70 68 63 59 57 56 58 62 64 64 61 55 51 45 39 33 31 26 21 21 20 20 19 17 16 18 22 26 32 42 46 46 48 60
81 90 56 53 51 57 60 64 57 64 68 62 59 58 62 60 61 62 63 61 58 55 45 35 33 34 34 28 23 23 21 20 20 17 15 14 15 15 18 25 38 53 65 72
75 81 65 53 52 50 49 74 54 57 67 64 62 85 82 62 63 63 58 54 47 38 32 29 28 30 34 38 32 25 20 19 19 18 17 16 16 14 12 14 18 26 78 96
75 82 63 50 52 50 61 51 55 54 56 60 71 67 63 66 61 60 55 46 40 36 31 27 24 22 20 21 23 26 25 24 23 23 22 24 27 26 24 22 23 26 26 76
67 65 62 47 54 57 52 52 53 54 56 59 58 62 64 65 64 59 50 46 43 41 41 42 48 51 41 31 31 25 21 20 22 25 29 34 41 36 37 41 41 36 28 36
56 58 46 47 50 49 48 50 54 56 60 60 64 66 66 64 59 51 47 44 44 44 43 40 39 39 47 43 46 50 57 45 28 24 28 36 46 56 59 54 50 48 51 48
55 44 52 45 50 52 52 53 58 60 62 64 63 66 62 58 54 46 39 38 38 40 41 33 27 29 30 30 32 37 39 42 42 41 37 41 52 60 64 61 63 79 74 53
67 56 48 47 46 47 53 57 59 62 63 64 63 61 57 49 38 33 35 38 42 42 36 27 33 32 29 33 36 39 45 49 51 58 64 62 59 64 66 61 75 94 100 100
62 46 48 54 53 54 56 59 63 65 64 64 62 55 39 31 31 35 36 36 34 30 30 35 42 40 39 43 48 51 52 55 58 68 72 71 67 56 54 53 58 70 100 100
45 44 49 51 56 60 61 63 66 66 65 59 40 32 32 38 37 31 30 30 34 40 45 51 50 50 50 57 62 64 63 64 64 72 75 75 75 71 52 44 58 64 100 100
44 46 58 56 54 59 62 67 62 56 39 30 33 40 42 40 34 37 42 48 55 59 58 61 66 74 77 75 81 83 77 67 78 80 78 82 94 80 83 71 70 56 72 96
52 52 52 54 61 63 58 53 42 32 31 37 41 39 33 32 38 42 46 51 55 60 64 75 82 82 82 88 93 94 94 86 77 92 92 91 98 99 100 100 86 82 87 86
60 60 61 60 60 54 45 38 34 34 40 42 33 25 25 32 39 44 50 54 66 77 82 85 85 91 88 92 95 88 86 87 98 96 94 97 98 99 100 98 92 89 90 99
62 70 67 60 51 46 42 38 36 40 42 28 22 26 34 41 43 44 49 57 63 68 73 83 90 89 91 94 92 92 96 94 96 97 95 97 96 96 96 96 95 92 89 91
51 50 55 51 47 44 39 37 41 36 21 20 31 36 38 42 49 55 56 58 59 62 74 82 87 98 93 88 90 100 99 98 97 93 93 95 96 92 96 98 99 97 92 90
55 48 50 44 38 34 38 42 28 18 25 36 36 35 41 47 52 53 54 59 66 71 72 83 94 94 87 86 93 100 99 98 98 98 97 94 93 93 96 96 96 94 90 90
50 46 41 38 38 41 38 20 19 30 36 38 35 37 42 48 52 56 60 64 76 84 95 95 98 87 88 91 90 100 94 92 92 90 92 98 95 94 96 98 98 98 94 94
51 46 40 40 44 35 19 19 31 36 38 36 36 41 45 52 58 62 64 65 69 72 80 73 86 88 97 93 96 96 95 95 97 97 96 96 97 96 94 89 93 92 94 94
54 41 41 47 33 19 22 31 35 40 39 38 42 47 50 56 60 61 66 78 71 78 79 86 88 99 100 98 95 95 96 98 96 96 97 96 96 94 91 91 95 96 99 98
43 44 47 30 18 23 32 35 40 41 40 42 47 52 57 61 63 67 60 69 72 71 99 90 97 100 100 97 95 94 95 95 96 96 95 94 95 96 97 97 96 97 96 97
47 48 29 18 22 32 35 40 43 42 45 47 51 55 59 60 59 74 79 76 72 72 81 92 95 100 100 94 94 95 95 95 95 96 97 96 95 96 95 95 94 94 96 96
51 31 18 21 30 33 39 42 45 46 46 49 54 58 62 72 71 66 73 74 72 73 78 90 93 94 94 92 96 97 96 95 95 95 95 95 95 96 96 95 95 95 94 94
33 19 22 30 33 37 40 44 48 48 47 49 55 60 64 69 68 71 72 69 71 73 75 88 92 96 96 93 100 96 95 95 95 95 96 96 96 96 96 96 96 96 95 95
21 16 28 31 37 41 42 45 50 50 50 52 54 60 65 67 67 72 68 63 63 65 70 82 92 96 96 96 96 95 95 96 96 96 96 96 96 96 96 96 96 96 96 95

GFSNGP_850_rhum_096.txt.gz
RH
68 67 59 60 60 70 78 70 71 78 82 78 77 72 69 62 62 62 62 62 63 61 59 53 48 46 42 38 35 34 33 31 30 32 36 36 36 35 34 34 34 33 33 41
90 56 57 58 54 62 68 67 67 70 70 63 64 60 60 59 61 63 64 64 62 61 57 50 45 42 38 33 30 28 27 25 23 22 21 20 19 22 29 34 39 41 42 40
75 72 66 71 52 57 63 64 66 71 66 70 66 62 59 58 58 59 61 63 62 60 54 50 43 37 34 31 27 24 23 21 20 19 17 15 14 14 15 15 16 22 40 48
89 70 72 56 48 51 55 62 63 69 69 66 66 65 59 59 60 62 63 63 62 55 50 42 36 33 32 30 27 24 21 19 17 17 16 15 14 14 13 13 13 13 15 23
84 88 59 53 53 60 64 65 59 65 71 65 63 62 64 61 62 62 64 64 59 54 44 35 33 32 31 30 29 28 27 24 22 21 18 17 16 16 15 14 14 13 14 15
84 84 67 47 53 51 48 62 57 61 70 67 64 80 80 62 63 65 63 60 52 44 40 36 34 32 29 28 28 30 31 30 30 29 28 26 22 19 18 17 17 19 21 24
79 88 71 52 54 49 56 35 57 57 60 65 76 67 59 60 63 60 59 54 48 44 40 32 29 28 26 24 24 27 29 30 28 32 42 36 36 37 42 37 31 25 24 24
73 74 69 52 57 54 43 56 53 55 55 59 59 59 60 62 62 62 56 52 46 37 30 28 29 31 29 27 26 23 19 16 15 17 25 30 35 33 32 39 45 43 36 27
60 58 40 49 43 42 43 43 50 50 53 55 56 60 64 66 65 58 53 46 38 33 30 33 38 37 33 29 33 33 31 30 25 18 17 26 45 52 53 58 58 54 48 43
52 41 55 44 44 48 48 48 50 54 57 62 64 67 67 63 58 52 41 35 37 41 43 40 32 27 31 36 38 43 45 46 45 44 39 40 50 69 72 67 68 64 63 60
70 59 48 45 47 46 53 53 55 60 62 65 65 64 61 55 39 32 34 37 36 35 35 32 35 38 39 42 48 55 58 56 53 51 52 51 59 74 80 79 85 74 64 96
55 43 41 41 38 48 52 55 58 62 65 65 64 59 45 33 34 38 35 31 32 33 38 43 50 54 56 56 60 66 71 67 68 67 63 68 69 76 77 81 78 68 72 94
47 42 41 44 48 52 56 58 63 65 66 64 54 34 33 40 40 33 35 34 37 45 53 62 65 64 66 75 78 76 78 84 84 82 74 75 83 92 84 70 80 70 76 87
43 50 58 55 54 58 60 63 68 67 61 36 33 39 40 35 27 25 28 34 43 48 54 60 63 66 70 74 79 83 88 86 87 90 89 85 87 95 96 100 92 66 71 81
54 50 50 48 57 62 66 68 64 47 34 35 40 40 29 22 23 34 43 46 44 45 48 52 58 66 76 82 90 88 82 85 93 97 95 93 96 94 97 91 99 89 82 79
61 62 59 55 60 66 64 59 40 34 36 41 38 23 20 32 40 41 41 44 44 45 52 59 67 74 80 86 85 82 81 83 99 100 98 96 95 92 96 97 94 88 88 87
65 73 70 68 67 62 50 41 37 36 40 34 20 24 36 37 38 39 41 44 47 52 58 64 65 69 75 82 83 85 89 93 99 96 93 98 98 98 99 98 90 92 92 84
55 52 56 58 59 50 45 40 38 40 30 18 29 36 37 35 37 39 40 43 48 54 61 65 72 82 78 79 83 88 93 94 90 90 86 89 95 93 95 95 96 98 94 90
59 50 53 52 50 46 38 37 40 23 15 29 35 36 36 38 41 44 46 50 52 51 54 61 59 63 71 79 85 88 95 96 94 94 97 96 92 89 92 95 94 94 97 93
56 52 48 45 40 37 39 34 16 17 30 35 36 36 39 41 42 46 50 50 57 62 61 66 73 77 83 86 88 100 97 93 96 94 92 100 97 96 100 99 98 96 91 90
50 45 42 40 40 41 30 15 20 30 36 36 35 36 40 44 48 46 45 48 54 59 62 71 81 88 96 94 100 93 91 93 94 98 98 100 98 94 96 94 95 93 90 94
52 49 43 41 45 32 16 22 32 37 37 36 36 40 44 47 49 47 51 53 56 61 66 77 86 99 100 100 96 92 89 90 94 94 96 100 100 97 99 98 98 93 92 91
57 51 42 45 40 18 19 30 36 38 39 37 39 44 47 48 46 44 46 57 63 64 80 75 79 96 100 98 94 90 88 91 94 96 96 97 96 96 96 98 97 97 95 94
60 46 46 46 24 18 28 34 39 38 42 42 44 47 50 49 50 54 53 56 62 61 68 74 79 88 94 94 94 90 92 94 96 95 96 97 96 95 95 96 96 96 96 97
48 48 49 35 18 23 32 40 38 42 44 43 50 54 56 54 52 52 53 59 62 62 62 68 74 85 91 93 94 92 93 95 96 97 95 96 96 96 95 96 96 96 96 97
50 49 46 22 20 31 35 42 37 45 47 46 52 60 60 58 57 54 56 59 59 60 63 64 68 75 89 92 91 93 93 95 95 95 96 96 96 96 96 95 95 96 96 96
56 55 34 19 19 32 36 45 38 42 51 52 53 59 62 60 57 55 59 61 62 61 64 68 70 70 78 86 90 91 93 96 98 97 96 96 96 96 95 95 96 96 95 96

GFSNGP_850_rhum_099.txt.gz
RH
76 72 71 70 67 62 77 70 71 71 82 69 77 80 75 67 65 65 65 66 66 64 61 56 52 49 42 35 31 30 28 27 26 24 22 20 19 18 18 18 22 28 34 37
85 69 66 69 62 59 68 67 67 75 76 62 67 64 65 61 64 64 64 66 66 64 58 52 45 41 39 36 32 29 26 24 22 22 20 18 17 16 16 15 14 14 14 15
80 67 73 75 65 58 64 67 65 79 64 72 69 66 61 60 61 62 65 66 66 63 58 51 42 38 36 35 32 30 28 25 23 22 20 18 17 16 16 17 17 16 15 14
93 68 63 49 47 51 60 62 69 71 69 71 64 58 57 57 57 60 63 65 66 60 54 44 37 36 35 33 30 27 26 25 24 22 21 20 20 20 19 18 18 18 18 19
90 91 59 52 53 61 67 60 68 69 71 67 68 64 61 58 59 62 64 66 61 55 46 41 38 35 33 33 33 35 33 32 29 27 27 27 27 27 24 23 22 21 20 19
85 88 64 41 53 53 46 61 60 64 78 73 69 87 83 63 63 64 66 63 55 49 46 41 37 34 33 33 32 31 30 28 26 22 21 20 22 23 25 32 32 25 22 26
86 91 76 54 55 49 48 36 57 59 63 69 78 68 65 66 69 68 66 58 51 48 40 37 36 34 30 30 28 25 19 16 14 14 16 18 21 24 26 29 34 40 50 44
79 83 75 54 58 52 44 51 51 54 58 61 61 63 63 65 65 65 61 56 52 41 30 27 29 32 33 27 26 27 26 24 22 22 22 23 26 30 36 45 58 55 50 43
65 64 42 48 45 42 44 43 50 49 50 52 55 57 61 63 64 62 58 52 36 29 31 35 34 28 22 20 25 27 30 36 41 43 43 41 40 37 38 42 64 78 75 66
57 47 54 42 42 43 45 44 45 47 50 53 56 60 63 66 63 58 46 30 30 33 31 20 19 22 32 42 48 49 51 52 54 57 57 53 51 50 53 59 75 79 78 82
74 61 50 42 40 39 46 51 52 53 56 60 63 65 66 62 56 37 30 33 34 25 23 27 34 39 44 48 52 54 55 58 59 60 64 69 66 65 67 69 85 86 80 85
57 43 40 36 34 37 46 50 52 56 61 65 64 64 60 47 32 33 37 31 25 27 32 35 42 47 53 54 56 57 57 61 66 72 73 79 81 74 64 84 93 87 82 93
49 47 46 43 44 42 46 53 58 61 64 63 63 58 38 32 38 37 27 22 23 28 36 39 41 42 45 48 53 60 67 66 66 69 72 72 74 84 91 77 84 86 78 84
53 54 56 51 47 49 57 61 65 67 66 64 52 33 34 38 32 21 19 27 33 32 34 37 41 46 49 52 55 58 61 65 73 74 80 89 96 94 95 95 91 82 92 95
57 61 56 54 50 56 64 65 67 67 62 44 33 35 38 26 16 21 30 27 28 33 37 40 42 46 49 54 60 65 68 70 79 97 98 100 97 96 95 93 90 98 92 89
60 60 67 63 57 62 66 68 67 61 41 34 36 38 22 16 28 29 27 30 34 35 39 43 47 50 56 62 70 70 71 76 95 100 95 89 84 84 95 98 98 99 86 82
74 68 69 67 66 65 66 65 59 41 35 37 38 21 18 30 29 27 34 38 40 42 45 48 48 53 55 64 77 80 82 92 96 91 91 93 94 93 90 100 99 100 91 83
71 67 61 61 62 66 67 53 41 37 38 38 19 20 31 29 28 34 38 42 46 49 51 51 52 54 62 75 83 86 98 99 92 100 100 98 95 100 98 97 97 98 92 90
70 64 54 61 64 64 52 43 39 39 36 18 24 31 31 28 34 39 41 42 44 43 46 47 50 55 71 80 90 95 100 97 91 100 100 100 96 97 100 99 97 97 99 99
62 55 54 55 59 50 44 38 39 28 16 25 32 33 32 32 40 43 45 43 43 43 44 45 46 60 75 85 91 100 100 90 89 88 89 100 96 99 97 95 97 100 95 94
58 52 48 48 45 40 40 38 20 15 26 32 34 34 34 42 46 45 44 47 49 48 48 49 55 64 79 98 96 100 95 88 87 90 93 96 100 100 98 96 96 96 100 97
54 46 44 42 40 41 38 19 16 25 30 34 36 35 37 44 49 48 46 49 51 52 52 50 57 62 100 100 100 98 94 91 90 91 95 96 97 96 95 95 96 100 97 94
59 52 49 45 42 44 30 17 23 31 32 34 35 38 40 46 50 48 41 51 49 51 52 54 55 57 76 100 99 98 92 92 90 92 95 97 99 98 96 96 97 98 97 95
58 57 55 46 45 46 27 16 28 36 38 41 38 36 39 49 52 51 50 52 51 54 55 52 54 55 65 86 98 92 91 93 92 93 98 99 96 96 95 96 96 96 96 95
57 62 60 47 46 44 21 19 32 38 40 46 48 38 39 46 51 51 50 49 50 52 52 53 54 56 62 76 92 91 95 95 93 97 96 95 96 95 95 96 96 96 96 97
54 56 54 47 48 41 20 24 31 37 40 46 48 45 43 50 54 56 57 55 54 55 57 54 53 58 62 75 81 87 93 92 92 94 94 95 96 95 95 96 96 96 96 96
54 61 58 52 52 39 19 22 32 36 38 46 50 49 45 50 56 57 57 58 56 58 58 56 58 65 68 76 79 91 93 92 94 95 94 93 96 96 97 96 96 97 96 96

GFSNGP_850_rhum_102.txt.gz
RH
80 77 74 74 73 71 80 74 78 62 80 68 80 86 82 82 71 68 68 69 70 68 63 58 56 52 46 40 35 31 28 27 26 24 22 21 20 19 18 17 17 16 16 16
90 71 79 79 72 71 66 71 76 76 81 68 66 67 72 67 64 65 65 68 69 67 61 57 49 44 41 37 35 33 31 29 27 25 24 23 22 21 20 20 19 19 18 18
86 72 72 74 69 70 63 69 67 82 66 73 75 72 64 62 62 63 65 67 67 65 60 52 42 40 39 37 34 30 28 26 25 24 23 22 23 22 22 22 22 21 21 20
94 75 66 44 49 52 61 61 73 72 70 72 68 63 58 56 57 61 65 66 68 64 56 46 42 40 37 33 30 27 25 25 25 25 24 21 18 16 14 14 16 17 18 20
91 96 61 41 53 58 60 55 66 75 69 68 67 65 61 58 58 60 64 66 66 59 50 46 44 39 33 30 30 31 30 27 23 20 18 18 19 20 22 22 20 20 21 23
90 90 54 30 52 54 47 60 47 67 76 74 70 84 82 62 61 62 65 66 61 54 50 46 38 36 36 37 35 29 24 23 25 25 24 23 24 23 25 26 28 27 27 31
91 92 79 56 53 51 51 30 56 60 64 70 79 67 59 58 65 66 67 63 57 52 46 39 38 40 39 32 26 27 27 25 24 25 26 26 29 29 32 33 33 32 33 37
88 90 81 53 58 52 42 45 48 54 57 64 62 63 64 64 68 68 66 60 55 47 38 38 41 37 27 21 22 26 26 25 24 26 29 36 43 43 43 44 46 47 53 58
66 64 44 46 48 38 42 42 43 46 49 56 61 66 66 68 68 67 62 57 48 34 32 35 28 20 20 22 25 28 34 38 41 41 40 38 39 44 51 52 55 59 67 83
61 46 53 42 38 39 43 46 45 43 45 48 50 56 61 66 67 64 59 48 33 33 33 19 18 20 24 31 37 40 39 36 37 40 45 51 54 60 69 69 68 81 89 94
77 58 48 38 35 37 38 41 48 49 50 52 56 60 63 65 64 60 45 32 34 30 15 13 19 26 30 32 33 34 36 42 46 48 51 55 56 64 69 66 85 99 100 100
60 42 46 44 42 41 41 40 46 56 55 56 61 63 63 63 59 42 32 35 27 16 17 26 25 25 28 32 37 43 46 49 51 54 58 63 70 64 60 67 70 80 83 95
54 49 53 55 56 49 48 44 50 59 60 60 61 63 63 56 37 33 36 23 14 22 26 23 26 32 36 39 44 48 53 56 55 60 64 71 70 87 99 66 74 65 69 95
56 60 62 56 61 50 48 47 53 59 62 64 65 63 52 34 36 36 21 16 28 24 24 28 32 38 40 42 45 50 53 56 62 61 66 80 96 100 93 88 94 100 80 93
55 61 61 58 64 62 57 56 59 62 64 66 65 50 35 38 35 18 19 28 25 27 30 32 36 41 43 46 50 51 54 60 65 75 84 97 96 86 90 97 100 100 96 84
61 52 53 64 62 66 65 65 65 67 66 64 48 36 37 35 16 21 28 25 27 30 31 35 40 42 44 48 51 52 59 70 79 86 90 88 98 100 100 100 97 95 94 99
68 67 65 68 65 64 65 67 68 67 64 49 37 37 36 15 21 28 25 28 32 34 34 40 41 42 49 51 58 63 69 74 81 84 88 100 100 100 96 97 98 97 96 96
65 69 66 66 65 64 67 69 70 64 47 37 37 36 15 20 29 26 28 32 34 35 40 44 45 46 49 55 67 74 81 88 88 92 94 100 100 98 98 99 96 97 95 96
63 60 63 59 61 65 66 66 61 45 39 38 36 16 19 28 26 26 30 34 34 36 45 46 46 45 50 60 79 87 96 95 98 92 86 94 100 99 97 96 96 95 95 95
65 63 56 55 57 64 65 57 45 41 38 34 14 20 28 30 30 32 35 35 38 43 48 49 48 50 54 57 72 90 100 100 95 94 90 100 96 94 100 100 100 97 96 98
59 58 53 50 54 58 51 46 39 38 24 13 21 28 30 30 30 34 37 38 43 47 50 50 51 48 49 47 74 93 96 95 97 93 95 95 94 94 100 97 97 97 99 100
54 56 50 46 47 45 41 39 37 20 12 18 26 32 34 31 33 37 41 40 41 50 49 48 47 48 48 80 53 73 86 93 95 93 95 96 96 95 96 97 98 97 97 98
55 56 50 45 44 42 41 41 27 13 15 25 29 32 33 34 38 41 41 45 45 52 52 51 50 52 57 52 57 66 83 89 92 96 98 96 96 96 96 97 97 99 97 96
42 49 53 52 49 45 44 43 35 15 18 29 33 33 34 36 41 45 46 46 46 49 52 55 53 54 56 59 58 65 76 83 88 95 95 98 98 96 96 97 97 97 94 93
41 46 53 56 55 55 48 46 38 18 21 30 34 36 38 39 44 49 51 50 50 51 55 56 56 56 62 60 61 69 74 82 89 98 99 98 98 96 96 96 97 97 98 99
41 41 44 50 54 56 51 48 44 21 24 32 34 37 39 40 45 50 52 52 51 55 56 58 60 60 65 65 67 72 74 84 90 95 96 98 98 97 96 96 95 95 96 96
46 47 50 53 58 62 54 50 49 23 21 32 35 41 43 44 48 54 56 55 56 58 60 62 64 68 68 70 71 73 78 87 94 95 96 100 100 96 97 95 96 96 96 96

GFSNGP_850_rhum_105.txt.gz
RH
86 80 78 76 73 75 82 73 82 66 80 66 75 83 83 81 88 74 68 68 68 68 63 56 52 50 44 39 37 36 34 31 29 28 26 26 25 24 23 23 22 22 21 21
94 75 78 89 80 80 74 72 81 80 77 65 62 70 79 79 74 65 64 65 69 68 63 58 49 45 43 40 37 34 31 28 26 25 25 24 24 22 19 16 14 13 13 13
89 72 75 64 59 76 70 69 68 80 66 72 76 75 70 65 63 60 62 66 67 66 62 55 44 42 41 39 35 32 29 29 28 27 22 15 12 10 10 9 9 9 10 10
95 74 43 31 51 58 65 63 71 70 65 69 68 63 60 57 55 56 60 64 68 68 63 52 45 44 41 37 32 29 28 27 21 13 12 14 15 17 20 22 24 25 24 24
91 96 55 27 53 57 54 53 56 66 69 68 69 67 63 57 56 56 58 64 67 67 58 50 48 44 38 34 31 31 25 17 17 20 22 24 26 29 30 30 30 30 30 30
92 88 54 27 48 55 47 52 36 67 70 73 71 80 74 59 61 61 63 67 68 62 54 51 48 41 33 31 31 20 18 23 27 29 30 32 33 34 33 35 33 32 32 35
95 94 80 56 53 50 52 29 44 61 60 70 77 65 59 57 60 64 67 68 64 58 54 51 42 33 35 31 24 27 33 38 40 41 40 38 34 36 34 34 33 33 34 32
92 96 85 51 60 50 41 36 44 49 52 58 58 60 61 60 61 66 68 66 62 57 52 41 36 37 26 24 28 33 36 36 32 30 32 34 34 35 38 44 46 47 48 48
67 66 43 45 44 40 42 43 44 46 45 50 56 58 61 62 63 67 67 65 60 54 40 35 33 23 24 27 32 31 29 28 29 31 34 38 39 39 37 42 47 54 65 68
58 47 50 39 39 40 40 40 40 45 49 47 50 55 60 64 67 67 67 61 55 40 37 31 21 23 31 33 31 30 30 31 31 33 34 37 41 47 50 53 58 63 87 99
73 58 48 40 40 40 42 43 42 43 48 52 53 55 56 61 68 68 64 56 40 37 29 19 27 31 28 28 30 31 31 32 35 37 42 43 45 51 52 54 90 100 99 99
62 46 46 45 48 52 53 52 48 49 49 54 56 57 61 66 67 64 57 39 37 29 17 27 24 25 28 31 32 31 32 35 41 45 47 53 56 48 51 90 100 100 100 100
52 48 52 54 56 54 60 59 56 53 52 60 60 64 66 66 63 54 37 38 28 16 25 20 23 26 29 31 32 36 39 41 45 53 58 66 71 92 99 60 64 93 100 100
52 56 60 56 56 54 54 60 59 54 59 63 64 64 65 63 53 36 37 27 15 25 20 23 27 30 32 32 34 39 44 52 59 63 73 80 90 99 95 100 100 88 80 97
60 62 58 56 58 47 46 60 64 64 66 68 67 65 63 51 37 38 26 16 25 21 24 28 31 34 35 35 39 44 51 54 63 74 86 94 81 92 100 100 98 90 85 82
59 59 52 43 44 53 63 65 69 70 70 69 66 64 51 37 37 25 14 25 23 24 28 31 34 37 37 38 43 46 53 67 82 90 84 77 79 100 100 94 100 97 95 90
62 47 47 61 58 63 63 66 70 72 70 68 65 51 38 38 29 15 26 25 25 29 33 34 35 38 37 42 44 48 59 73 94 90 83 85 88 99 100 99 93 96 98 96
39 54 60 60 62 65 63 63 67 70 69 67 54 39 38 34 14 24 27 25 29 32 36 37 38 36 38 43 48 53 70 92 96 91 87 84 99 97 90 89 91 100 99 99
51 55 52 56 61 61 64 67 67 69 69 53 39 38 37 16 22 29 27 28 32 34 37 38 39 38 39 45 51 56 78 94 95 91 90 87 88 90 87 90 100 99 95 91
47 56 58 55 52 53 56 65 69 67 51 42 39 36 15 20 28 28 28 31 38 40 39 41 40 37 38 44 49 58 92 93 92 93 88 96 92 86 91 90 100 97 93 93
40 53 56 54 52 51 57 64 61 48 43 39 32 14 21 30 31 28 27 30 42 44 42 45 43 42 41 43 53 77 73 79 92 92 92 93 88 88 88 91 93 93 94 95
34 44 55 56 50 50 53 52 48 42 38 28 12 16 25 30 31 29 30 33 40 44 44 47 47 44 43 52 50 60 65 71 83 90 90 89 90 87 88 92 94 94 94 96
30 37 45 50 49 46 46 45 41 39 33 15 13 22 29 33 32 31 32 36 40 46 48 48 50 47 48 47 53 60 64 70 81 87 88 88 88 88 92 93 95 96 95 96
29 31 35 48 50 48 47 46 43 43 41 22 13 22 29 33 34 34 37 38 40 46 51 53 51 51 51 52 55 62 66 74 83 87 87 91 88 88 90 94 94 95 96 95
33 35 38 42 45 45 48 50 49 46 45 37 16 21 30 34 36 37 39 39 41 46 52 57 54 53 54 57 60 66 71 78 84 88 91 90 85 89 93 94 96 96 96 97
37 38 39 40 42 47 50 54 55 53 47 45 21 20 30 34 38 39 41 40 41 47 54 56 57 56 58 59 63 70 76 82 88 90 91 89 86 92 95 95 96 95 95 96
40 43 43 44 44 44 48 55 59 58 51 48 32 23 33 36 39 42 43 43 44 47 55 58 60 61 62 64 69 75 80 86 91 90 92 89 87 92 95 97 98 96 96 96

GFSNGP_850_rhum_108.txt.gz
RH
65 56 56 60 59 54 65 59 56 38 48 35 40 52 59 66 70 76 76 70 67 69 67 54 48 46 42 40 39 36 33 30 28 27 28 26 23 19 14 10 8 8 7 7
83 49 54 66 56 56 56 54 53 48 48 32 36 44 56 63 68 73 63 63 66 68 63 59 50 45 44 42 39 34 31 29 29 28 24 16 12 10 10 11 12 13 14 13
68 53 54 50 41 46 52 52 51 57 39 31 52 56 57 60 65 66 59 61 67 68 68 63 53 45 45 43 38 33 32 31 28 19 14 14 15 18 19 19 20 20 20 21
82 60 43 31 39 42 47 43 45 42 45 48 49 55 59 58 57 58 59 60 61 65 66 63 53 46 46 42 36 33 32 28 17 14 15 17 20 23 24 25 26 26 26 29
82 66 38 29 46 49 50 37 37 42 39 49 58 64 57 58 55 56 58 59 64 65 67 63 51 49 45 39 33 32 26 15 15 19 23 27 29 30 30 29 29 29 29 30
70 76 42 23 40 50 46 37 30 41 43 49 62 56 34 53 56 56 57 59 63 67 67 57 52 49 43 37 35 25 16 19 25 30 30 29 29 29 30 30 28 28 28 31
75 78 56 37 45 51 43 24 35 54 51 58 57 46 55 53 55 60 62 64 67 68 61 55 52 47 38 34 23 14 20 26 28 28 28 29 31 33 34 36 36 35 32 33
73 81 80 45 56 41 30 34 39 45 43 59 59 58 56 58 59 60 64 68 69 64 59 56 52 38 33 21 16 25 29 29 31 34 34 32 31 32 36 38 37 39 42 39
44 41 35 45 38 40 42 47 49 50 47 47 53 47 53 60 61 63 66 68 66 62 58 52 38 34 21 17 26 26 28 30 32 33 34 36 38 37 39 44 60 74 90 90
46 30 36 34 39 42 42 44 44 44 46 51 51 55 52 63 67 67 69 70 66 60 53 38 34 20 18 27 26 29 31 33 34 35 36 38 41 44 46 73 96 99 100 99
46 40 40 41 43 43 47 51 52 51 52 50 52 52 55 60 66 69 70 68 63 55 39 35 20 23 26 26 30 33 34 36 36 35 36 39 44 48 55 70 100 100 100 100
46 36 37 34 39 44 54 53 54 60 56 53 53 54 58 60 64 68 69 66 58 40 36 19 24 24 26 31 35 36 38 40 38 39 47 53 59 55 75 75 68 64 94 100
40 40 43 44 48 51 54 52 49 55 61 57 55 58 62 64 66 67 66 59 40 36 18 24 25 28 32 34 36 38 38 39 40 45 54 68 86 100 90 47 58 73 92 100
47 52 58 55 56 55 57 51 48 41 57 56 62 65 66 67 66 64 57 39 37 19 23 23 24 29 34 37 38 38 40 40 44 50 64 92 100 100 100 100 100 77 77 99
49 52 53 59 64 62 57 43 45 53 62 62 66 68 66 65 62 52 39 37 20 23 24 24 29 32 34 36 37 40 40 43 48 58 90 100 100 98 100 100 100 100 98 99
50 51 56 60 58 45 52 54 60 65 67 69 69 67 66 62 49 38 37 19 21 26 25 29 32 35 39 37 36 37 38 44 53 77 99 95 100 100 100 100 100 100 100 100
58 55 48 41 56 59 62 65 65 69 71 71 69 68 65 53 39 38 23 19 26 25 27 30 34 36 37 36 37 39 41 43 62 90 84 100 100 100 100 100 100 100 100 100
47 46 39 51 52 58 61 63 64 66 68 70 69 66 56 41 39 28 16 26 26 26 30 31 33 36 40 40 40 40 44 52 68 81 100 100 100 100 100 100 100 100 100 100
29 31 48 49 51 56 57 58 63 66 69 70 68 60 43 40 38 18 26 28 27 30 33 34 36 40 42 44 42 42 52 59 70 81 85 95 100 100 100 100 100 100 100 100
27 33 46 54 56 51 51 55 62 65 68 69 60 44 41 40 20 22 29 28 29 32 34 36 37 42 44 46 46 48 55 61 60 63 72 91 96 99 100 100 100 100 100 100
26 31 38 50 53 52 51 53 60 63 64 56 45 41 38 18 19 29 31 29 29 32 36 37 38 41 44 47 46 53 54 55 58 60 70 80 86 96 100 100 100 100 100 94
24 26 31 41 49 52 51 53 58 60 52 46 40 37 17 15 25 30 32 30 31 34 37 40 41 43 45 46 50 53 53 56 59 63 74 85 88 91 100 98 94 94 92 94
25 26 28 32 38 45 48 49 49 48 47 40 38 21 12 19 29 32 31 32 32 35 38 42 42 45 47 45 50 52 54 59 62 68 80 86 88 92 94 91 93 96 93 93
26 27 27 32 37 39 38 43 46 46 44 41 39 24 15 18 27 32 34 34 35 36 39 42 43 46 49 49 50 53 56 62 66 73 84 86 89 92 90 90 93 94 92 92
27 29 31 34 34 36 37 43 47 47 46 46 45 43 28 18 26 34 35 36 38 38 41 43 42 48 51 52 52 54 60 67 70 78 85 88 89 91 88 90 94 96 96 96
25 27 31 34 38 41 42 45 47 48 50 50 50 47 44 24 25 33 37 39 40 42 45 44 44 50 54 53 53 56 63 71 73 81 87 88 90 92 89 90 94 95 95 95
27 36 40 36 41 40 50 45 46 45 49 52 54 54 49 33 26 33 38 40 42 45 46 46 47 52 55 54 55 59 66 73 77 82 86 89 92 92 90 90 94 94 95 96

GFSNGP_850_rhum_111.txt.gz
RH
53 47 46 47 46 43 48 51 61 43 31 24 22 27 37 49 59 62 63 63 65 63 60 59 60 59 48 44 41 38 34 30 28 26 25 19 11 8 8 8 10 11 12 13
79 46 39 46 42 41 43 44 44 42 42 28 27 26 30 34 49 55 58 61 57 59 64 63 60 56 46 44 43 39 34 31 29 26 16 11 11 14 16 16 17 17 17 17
66 39 46 48 35 36 38 37 39 46 33 25 30 35 42 41 46 51 55 57 54 58 63 65 63 59 49 46 45 40 32 31 28 17 14 18 22 27 31 29 24 21 20 20
76 56 60 32 30 30 32 32 32 34 34 32 34 39 46 48 47 49 53 54 54 58 64 67 67 59 49 48 44 37 35 37 30 22 22 25 25 24 22 21 22 25 26 27
74 56 38 29 40 43 44 30 27 32 28 28 32 42 48 46 51 50 50 52 54 59 65 70 66 59 51 49 43 36 40 28 18 19 22 20 20 22 26 29 31 34 41 46
52 68 49 23 36 39 41 42 28 32 31 36 45 42 33 51 55 56 57 58 61 67 68 67 64 56 52 48 40 40 33 18 23 28 25 26 30 33 35 40 42 42 41 55
74 67 50 30 39 44 40 27 30 36 36 39 45 36 48 46 50 54 63 65 64 67 67 67 61 55 51 45 39 32 16 22 22 20 24 26 29 33 40 44 48 53 60 64
61 64 73 36 47 39 27 31 34 39 40 39 40 40 47 58 61 57 58 61 64 68 67 64 59 55 47 36 31 15 20 18 19 23 25 29 38 43 50 54 55 62 67 59
39 44 29 40 27 34 40 39 38 40 41 43 46 48 50 57 65 68 65 65 68 68 65 61 58 53 37 31 15 20 17 19 24 26 30 33 41 40 48 56 66 74 76 80
31 26 27 28 34 34 37 38 41 44 47 50 52 51 51 52 67 71 70 66 66 66 63 60 56 40 32 16 22 18 21 25 27 29 29 35 43 47 54 57 72 82 92 93
38 32 30 31 32 33 34 39 46 52 54 57 59 57 56 58 70 74 70 68 68 66 62 57 45 34 16 20 18 21 25 28 31 35 38 44 46 54 66 71 85 94 100 100
43 29 30 29 35 38 46 50 53 55 52 50 62 66 62 65 70 70 68 69 68 66 61 46 36 18 20 19 22 28 30 33 37 38 44 52 63 62 74 85 88 89 98 100
34 34 36 36 44 47 50 54 58 56 49 46 57 67 68 69 67 66 68 69 68 62 45 38 19 22 21 24 29 32 34 37 41 41 51 59 71 89 72 75 77 78 99 100
42 42 42 45 52 54 55 56 59 57 52 42 55 62 65 68 66 67 68 66 61 44 38 19 22 21 23 27 31 34 35 38 39 40 52 72 89 100 100 95 96 96 99 100
48 50 48 47 49 55 58 63 61 48 49 54 63 65 67 67 67 66 64 59 41 38 18 20 22 24 27 31 34 35 38 39 40 44 59 90 99 100 100 100 98 98 93 90
48 53 54 55 58 58 55 50 56 57 67 67 68 68 68 68 66 62 54 39 37 17 20 22 22 26 30 34 37 37 38 38 39 46 72 94 99 100 100 100 100 98 97 95
55 56 52 51 44 40 50 56 59 62 68 69 68 68 68 66 62 54 40 38 20 17 24 22 25 30 33 36 38 38 39 39 45 70 71 85 100 100 100 98 100 99 98 96
44 47 46 45 36 44 50 58 58 61 63 66 68 69 68 65 59 43 39 26 15 23 23 24 27 30 33 38 39 39 39 41 50 62 71 81 99 100 100 100 100 100 99 96
46 47 43 31 42 46 50 56 55 60 64 68 69 68 67 63 47 40 38 17 20 26 23 25 28 30 33 37 39 39 40 46 52 58 64 72 98 100 100 100 100 100 98 98
36 30 26 32 45 51 52 50 52 59 63 66 68 69 66 54 42 40 29 17 25 26 23 26 29 32 34 38 40 39 43 48 50 53 56 67 99 100 100 100 100 100 100 94
21 24 26 31 39 48 51 52 52 54 60 64 65 66 58 44 41 32 15 21 26 27 26 29 32 34 35 39 43 40 45 50 49 52 57 64 78 95 100 100 100 99 92 94
20 21 23 28 32 38 46 49 51 55 60 64 64 56 46 41 35 15 17 26 30 28 28 30 33 35 38 41 48 45 45 48 52 57 60 72 84 88 87 92 91 89 92 97
21 22 25 27 26 29 36 41 44 49 53 56 52 47 41 38 19 14 19 26 30 30 30 32 35 37 40 44 48 47 46 48 54 60 66 76 84 84 86 86 86 93 97 99
21 22 26 30 30 32 29 32 38 43 47 48 48 46 41 36 18 14 21 27 32 33 33 34 36 38 41 45 46 47 48 49 55 64 67 80 85 86 86 86 87 95 97 98
21 21 24 28 29 28 31 35 41 43 43 45 47 46 44 41 34 25 21 28 34 36 35 36 36 38 41 44 46 49 49 51 57 67 71 83 87 86 88 86 88 96 97 99
24 21 23 28 30 31 35 40 47 64 76 57 46 48 47 47 45 39 24 26 34 36 37 38 39 41 44 46 49 49 49 54 61 70 76 84 87 88 87 86 90 96 97 99
32 27 25 27 31 34 46 73 88 94 79 91 67 51 52 51 51 48 36 27 34 38 40 40 42 43 45 50 49 48 51 56 64 72 75 84 89 89 84 86 94 99 100 100

GFSNGP_850_rhum_114.txt.gz
RH
66 56 57 59 56 52 56 59 70 52 51 41 38 36 33 41 57 66 70 71 67 66 67 60 58 60 55 48 44 44 40 36 31 28 23 12 10 12 16 16 16 15 14 13
79 58 57 64 54 51 51 49 48 47 49 35 32 31 34 36 38 57 60 61 60 62 61 62 61 59 58 50 46 45 41 36 32 29 15 12 15 18 18 17 17 16 16 17
86 65 65 75 48 48 45 43 46 57 44 36 38 38 38 42 42 45 49 53 56 60 56 60 64 63 61 54 48 48 43 34 30 21 10 14 18 16 16 16 18 18 20 21
83 74 89 49 28 31 39 38 39 37 36 36 36 32 34 40 47 47 47 50 54 56 55 60 65 64 62 56 50 49 42 34 31 15 14 17 13 14 18 20 21 22 22 24
91 87 61 46 38 44 46 41 35 37 36 30 32 40 35 43 40 47 50 50 53 53 56 62 65 66 64 57 52 50 39 33 20 12 17 14 16 19 20 21 23 24 26 29
71 88 77 36 40 38 41 61 34 32 32 35 44 58 48 42 39 43 52 53 53 54 59 64 66 65 63 55 52 48 36 30 14 19 16 18 20 21 23 26 29 34 38 49
76 78 70 38 42 41 43 37 30 30 32 37 53 47 38 40 41 43 51 52 58 60 63 66 66 64 61 54 52 42 34 15 18 16 19 22 22 24 26 30 38 46 54 64
76 84 87 43 48 46 36 29 30 34 35 38 39 40 40 41 52 53 55 57 61 65 67 66 66 64 58 55 47 34 18 16 16 19 23 21 21 21 28 38 46 51 55 51
61 65 39 38 33 31 33 37 38 38 39 40 41 43 44 46 51 57 58 60 63 65 65 66 66 60 57 49 36 24 17 17 20 23 22 23 24 25 30 41 53 58 67 66
39 35 30 28 33 31 34 36 35 38 39 44 45 47 49 51 52 54 62 64 64 65 65 65 63 60 54 40 29 16 17 18 23 22 23 24 24 30 39 50 62 70 74 77
44 37 31 31 30 30 30 32 34 39 42 47 52 53 54 57 56 57 65 69 68 65 66 65 63 60 46 33 15 17 16 22 24 26 28 28 30 37 47 61 83 95 98 100
46 33 34 31 33 33 33 32 39 39 46 52 52 46 51 62 62 62 68 70 68 67 68 65 62 54 36 16 16 16 20 26 28 27 27 28 34 36 51 71 94 100 100 100
36 36 35 34 35 36 40 40 44 50 53 54 51 49 51 62 66 68 70 67 66 68 67 64 57 38 18 16 17 20 25 28 28 29 30 33 39 50 59 60 76 76 80 100
37 38 42 40 41 42 43 46 53 52 54 58 59 47 54 66 70 68 66 64 67 67 64 55 37 20 17 19 20 24 28 30 30 30 32 36 45 63 78 88 83 74 79 87
38 38 40 43 45 48 50 51 54 57 57 50 48 51 66 65 66 65 66 67 66 63 50 37 21 17 20 20 24 27 32 33 34 32 35 42 64 79 80 89 92 86 86 83
45 42 45 46 48 48 50 54 53 44 50 52 54 63 67 68 68 68 66 64 61 47 37 23 15 21 20 23 27 29 34 34 33 33 36 50 69 69 81 93 90 90 93 89
51 52 46 49 46 41 38 36 43 51 53 59 63 66 69 69 68 67 64 61 45 38 28 14 21 21 22 26 29 30 34 35 35 34 42 56 67 76 88 95 97 97 93 90
53 49 44 42 40 42 36 40 47 55 56 61 67 68 68 67 65 64 62 50 39 36 15 18 22 21 23 27 30 31 36 36 36 38 45 52 64 81 98 96 96 99 92 87
55 56 51 49 47 34 37 42 47 55 55 63 67 67 67 68 67 65 55 42 39 28 13 22 22 22 25 28 31 34 37 37 36 38 47 49 55 63 85 100 100 96 92 92
57 58 55 46 41 28 36 45 49 48 50 60 66 69 69 69 67 64 50 41 39 20 18 23 23 24 27 30 33 35 38 39 38 44 48 52 54 66 79 97 100 92 88 89
27 36 32 27 25 29 33 42 45 45 48 55 62 63 63 66 66 60 46 40 28 15 22 26 25 26 29 31 35 38 39 37 39 47 49 51 55 65 78 87 89 85 85 91
22 22 22 25 27 27 32 35 43 45 45 50 59 64 66 66 65 52 43 38 16 16 24 26 26 27 29 33 36 40 38 38 42 46 50 53 60 67 80 84 85 82 87 93
29 25 21 21 25 28 32 31 34 40 40 42 51 57 58 56 52 45 40 25 12 15 24 28 28 29 31 35 37 41 41 43 44 50 53 57 64 73 82 84 87 84 90 93
36 33 33 22 22 29 30 24 30 32 36 41 36 49 48 49 48 43 40 25 13 18 24 29 30 31 33 35 37 39 43 46 46 51 55 61 67 78 84 86 86 87 93 95
40 37 35 32 28 22 24 28 35 38 38 41 47 66 80 74 48 45 43 34 25 21 22 30 32 33 34 34 37 40 45 49 47 52 57 63 70 79 85 88 88 93 95 97
45 41 37 37 29 27 27 32 31 34 41 45 59 76 96 100 63 48 46 44 37 28 24 31 34 34 34 37 40 43 48 50 48 56 63 68 74 80 87 88 89 96 96 96
52 49 46 45 45 42 38 29 32 36 40 50 81 99 100 100 100 64 50 49 46 41 30 29 35 36 37 40 42 46 49 48 48 56 64 71 78 82 87 88 91 95 97 97

GFSNGP_850_rhum_117.txt.gz
RH
74 72 69 68 68 64 66 60 76 47 56 42 43 44 38 36 38 51 60 69 68 65 66 69 64 60 59 56 48 46 46 46 40 31 26 11 9 13 13 9 9 10 11 12
89 70 71 77 65 63 63 60 56 53 55 38 36 36 36 36 39 48 54 58 61 62 64 68 66 61 60 59 55 48 47 46 40 32 24 10 14 15 13 16 19 20 22 23
89 72 73 77 57 53 55 56 55 66 48 40 43 40 36 34 36 43 46 52 56 56 59 62 62 60 62 62 60 52 49 47 40 32 16 14 18 15 17 19 21 22 23 24
91 78 85 40 38 32 48 47 45 43 42 40 38 32 33 35 42 42 47 50 52 55 56 60 58 60 64 64 62 54 51 48 39 30 12 18 14 18 21 22 23 24 25 26
88 94 64 59 40 39 40 42 41 45 41 37 34 38 31 30 39 38 42 48 50 53 55 57 56 59 64 66 64 56 52 49 35 18 16 16 17 20 20 21 24 27 32 33
83 96 83 44 40 40 36 47 33 37 40 39 45 50 48 27 41 39 37 43 50 53 55 55 58 63 66 66 63 57 54 44 33 15 16 15 20 20 21 23 25 29 32 38
76 79 74 53 41 39 46 34 33 33 33 37 52 36 26 40 41 42 46 44 50 56 57 57 61 64 66 65 62 56 52 38 18 16 15 19 18 19 20 21 24 29 36 41
81 79 89 46 48 44 38 29 29 27 27 30 30 32 40 39 41 44 51 54 52 58 61 63 66 66 65 64 58 55 42 28 15 15 18 21 21 23 24 26 28 36 42 44
70 67 44 41 36 31 31 27 29 30 31 35 38 40 40 42 44 46 51 56 56 60 64 66 66 65 66 62 58 50 35 16 17 18 23 24 26 26 26 29 33 41 51 52
47 43 46 38 34 34 34 36 33 34 36 37 37 37 41 44 47 51 53 54 57 61 64 65 65 66 64 60 56 39 20 17 18 21 23 26 27 26 27 33 39 48 61 68
47 36 33 31 30 30 32 32 30 30 36 37 39 42 45 47 44 48 57 58 61 63 64 64 65 65 63 60 45 28 16 17 18 23 26 26 25 24 26 37 56 77 95 100
54 33 35 33 31 31 32 32 33 33 36 40 43 47 50 51 41 51 61 60 66 68 67 66 66 65 62 55 37 16 17 17 22 26 28 27 24 22 34 40 48 60 80 99
41 36 36 34 35 38 38 36 36 37 38 41 46 51 54 51 50 53 62 64 68 66 66 67 67 65 62 41 21 16 16 20 25 29 28 26 26 25 22 31 44 48 67 82
42 47 48 43 44 40 42 42 44 45 47 48 50 55 58 58 48 55 62 61 67 67 66 68 67 64 44 27 16 17 18 23 27 29 29 28 28 31 38 42 45 51 64 78
39 39 47 47 42 43 44 46 46 48 48 51 54 53 48 45 51 62 67 68 67 65 67 67 63 44 32 16 18 18 22 26 28 29 30 29 30 38 44 49 52 66 75 74
51 55 52 47 45 51 51 50 50 45 43 40 45 46 48 56 67 69 69 67 65 63 63 62 43 35 15 19 19 20 24 27 30 30 31 35 37 42 45 50 57 72 78 81
57 65 60 57 50 45 49 45 40 34 37 47 50 56 62 65 68 68 67 68 67 64 59 42 37 16 18 20 20 23 27 28 32 32 34 40 42 44 50 53 64 74 79 79
46 53 55 60 57 46 42 42 35 38 42 52 56 60 63 64 62 64 66 67 65 61 48 39 25 15 21 21 22 26 28 30 33 34 37 41 46 44 49 55 68 80 76 74
40 47 51 58 58 52 48 46 36 44 47 53 54 56 62 65 65 67 68 66 64 56 43 38 18 18 22 22 24 28 30 32 34 35 38 44 47 49 50 53 69 82 78 77
25 31 50 53 56 56 52 48 37 46 50 52 53 55 60 65 68 69 68 66 64 54 41 36 18 20 23 24 26 28 32 34 34 36 40 44 46 50 54 58 76 84 76 78
36 37 33 28 25 24 27 30 34 41 45 49 50 57 57 66 73 69 69 66 60 52 42 34 18 23 25 25 28 30 33 36 36 37 40 44 48 52 56 62 77 83 74 80
35 41 41 36 35 37 32 27 31 33 37 46 46 52 62 55 66 74 62 56 55 50 43 21 15 25 27 28 29 32 35 36 37 40 43 46 49 53 60 69 78 80 75 82
38 38 43 37 38 41 37 35 25 29 32 32 41 45 51 49 45 63 85 62 52 45 40 15 15 28 29 30 30 33 36 38 40 42 46 48 49 55 62 74 79 82 76 84
45 45 43 43 44 43 43 35 36 32 34 35 38 40 48 59 60 64 79 89 50 44 34 16 17 28 32 31 32 35 37 40 42 44 46 45 49 58 67 77 81 83 78 89
48 49 48 49 49 50 51 45 39 34 30 31 32 33 36 43 58 66 81 98 74 45 42 40 43 27 34 33 34 37 39 41 42 45 45 44 52 63 72 82 84 80 80 88
54 55 55 55 56 57 57 55 49 45 41 37 30 31 38 42 54 70 94 99 97 79 76 49 71 30 30 33 36 39 41 42 44 47 45 45 55 66 75 84 84 82 86 89
63 64 64 65 65 64 63 63 62 61 60 56 51 37 36 42 52 77 100 100 99 97 94 72 93 46 30 36 39 42 44 44 46 46 47 49 59 68 78 85 84 82 83 86